[[{"header":{"parameterUnit":"m.s-1","parameterCategory":1,"la1":31.0,"la2":29.5877,"lo1":-88.7671,"lo2":-86.6584,"dy":0.0162,"dx":0.0185,"nx":115,"ny":88,"refTime":"2023-11-21T06:00:00:Z","depth":0,"parameterNumber":2,"parameterNumberName":"U-component_of_WINDS"},"data":[0.0,0.0,0.0,0.0,0.0,0.0,0.0,0.0,0.0,0.0,0.0,0.0,0.0,0.0,0.0,0.0,0.0,0.0,0.0,0.0,0.0,0.0,0.0,0.0,0.0,0.0,0.0,0.0,0.0,0.0,0.0,0.0,0.0,0.0,0.0,0.0,0.0,0.0,0.0,0.0,0.0,0.0,0.0,0.0,0.0,0.0,0.0,0.0,0.0,0.0,0.0,0.0,0.0,0.0,0.0,0.0,0.0,0.0,0.0,0.0,0.0,0.0,0.0,0.0,0.0,0.0,0.0,0.0,0.0,0.0,0.0,0.0,0.0,0.0,0.0,0.0,0.0,0.0,0.0,0.0,0.0,0.0,0.0,0.0,0.0,0.0,0.0,0.0,0.0,0.0,0.0,0.0,0.0,0.0,0.0,0.0,0.0,0.0,0.0,0.0,0.0,0.0,0.0,0.0,0.0,0.0,0.0,0.0,0.0,0.0,0.0,0.0,0.0,0.0,0.0,0.0,0.0,0.0,0.0,0.0,0.0,0.0,0.0,0.0,0.0,0.0,0.0,0.0,0.0,0.0,0.0,0.0,0.0,0.0,0.0,0.0,0.0,0.0,0.0,0.0,0.0,0.0,0.0,0.0,0.0,0.0,0.0,0.0,0.0,0.0,0.0,0.0,0.0,0.0,0.0,0.0,0.0,0.0,0.0,0.0,0.0,0.0,0.0,0.0,0.0,0.0,0.0,0.0,0.0,0.0,0.0,0.0,0.0,0.0,0.0,0.0,0.0,0.0,0.0,0.0,0.0,0.0,0.0,0.0,0.0,0.0,0.0,0.0,0.0,0.0,0.0,0.0,0.0,0.0,0.0,0.0,0.0,0.0,0.0,0.0,0.0,0.0,0.0,0.0,0.0,0.0,0.0,0.0,0.0,0.0,0.0,0.0,0.0,0.0,0.0,0.0,0.0,0.0,0.0,0.0,0.0,0.0,0.0,0.0,0.0,0.0,0.0,0.0,0.0,0.0,0.0,0.0,0.0,0.0,0.0,0.0,0.0,0.0,0.0,0.0,0.0,0.0,0.0,0.0,0.0,0.0,0.0,0.0,0.0,0.0,0.0,0.0,0.0,0.0,0.0,0.0,0.0,0.0,0.0,0.0,0.0,0.0,0.0,0.0,0.0,0.0,0.0,0.0,0.0,0.0,0.0,0.0,0.0,0.0,0.0,0.0,0.0,0.0,0.0,0.0,0.0,0.0,0.0,0.0,0.0,0.0,0.0,0.0,0.0,0.0,0.0,0.0,0.0,0.0,0.0,0.0,0.0,0.0,0.0,0.0,0.0,0.0,0.0,0.0,0.0,0.0,0.0,0.0,0.0,0.0,0.0,0.0,0.0,0.0,0.0,0.0,0.0,0.0,0.0,0.0,0.0,0.0,0.0,0.0,0.0,0.0,0.0,0.0,0.0,0.0,0.0,0.0,0.0,0.0,0.0,0.0,0.0,0.0,0.0,0.0,0.0,0.0,0.0,0.0,0.0,0.0,0.0,0.0,0.0,0.0,0.0,0.0,0.0,0.0,0.0,0.0,0.0,0.0,0.0,0.0,0.0,0.0,0.0,0.0,0.0,0.0,0.0,0.0,0.0,0.0,0.0,0.0,0.0,0.0,0.0,0.0,0.0,0.0,0.0,0.0,0.0,0.0,0.0,0.0,0.0,0.0,0.0,0.0,0.0,0.0,0.0,0.0,0.0,0.0,0.0,0.0,0.0,0.0,0.0,0.0,0.0,0.0,0.0,0.0,0.0,0.0,0.0,0.0,0.0,0.0,0.0,0.0,0.0,0.0,0.0,0.0,0.0,0.0,0.0,0.0,0.0,0.0,0.0,0.0,0.0,0.0,0.0,0.0,0.0,0.0,0.0,0.0,0.0,0.0,0.0,0.0,0.0,0.0,0.0,0.0,0.0,0.0,0.0,0.0,0.0,0.0,0.0,0.0,0.0,0.0,0.0,0.0,0.0,0.0,0.0,0.0,0.0,0.0,0.0,0.0,0.0,0.0,0.0,0.0,0.0,0.0,0.0,0.0,0.0,0.0,0.0,0.0,0.0,0.0,0.0,0.0,0.0,0.0,0.0,0.0,0.0,0.0,0.0,0.0,0.0,0.0,0.0,0.0,0.0,0.0,0.0,0.0,0.0,0.0,0.0,0.0,0.0,0.0,0.0,0.0,0.0,0.0,0.0,0.0,0.0,0.0,0.0,0.0,0.0,0.0,0.0,0.0,0.0,0.0,0.0,0.0,0.0,0.0,0.0,0.0,0.0,0.0,0.0,0.0,0.0,0.0,0.0,0.0,0.0,0.0,0.0,0.0,0.0,0.0,0.0,0.0,0.0,0.0,0.0,0.0,0.0,0.0,0.0,0.0,0.0,0.0,0.0,0.0,0.0,0.0,0.0,0.0,0.0,0.0,0.0,0.0,0.0,0.0,0.0,0.0,0.0,0.0,0.0,0.0,0.0,0.0,0.0,0.0,0.0,0.0,0.0,0.0,0.0,0.0,0.0,0.0,0.0,0.0,0.0,0.0,0.0,0.0,0.0,0.0,0.0,0.0,0.0,0.0,0.0,0.0,0.0,0.0,0.0,0.0,0.0,0.0,0.0,0.0,0.0,0.0,0.0,0.0,0.0,0.0,0.0,0.0,0.0,0.0,0.0,0.0,0.0,0.0,0.0,0.0,0.0,0.0,0.0,0.0,0.0,0.0,0.0,0.0,0.0,0.0,0.0,0.0,0.0,0.0,0.0,0.0,0.0,0.0,0.0,0.0,0.0,0.0,0.0,0.0,0.0,0.0,0.0,0.0,0.0,0.0,0.0,0.0,0.0,0.0,0.0,0.0,0.0,0.0,0.0,0.0,0.0,0.0,0.0,0.0,0.0,0.0,0.0,0.0,0.0,0.0,0.0,0.0,0.0,0.0,0.0,0.0,0.0,0.0,0.0,0.0,0.0,0.0,0.0,0.0,0.0,0.0,0.0,0.0,0.0,0.0,0.0,0.0,0.0,0.0,0.0,0.0,0.0,0.0,0.0,0.0,0.0,0.0,0.0,0.0,0.0,0.0,0.0,0.0,0.0,0.0,0.0,0.0,0.0,0.0,0.0,0.0,0.0,0.0,0.0,0.0,0.0,0.0,0.0,0.0,0.0,0.0,0.0,0.0,0.0,0.0,0.0,0.0,0.0,0.0,0.0,0.0,0.0,0.0,0.0,0.0,0.0,0.0,0.0,0.0,0.0,0.0,0.0,0.0,0.0,0.0,0.0,0.0,0.0,0.0,0.0,0.0,0.0,0.0,0.0,0.0,0.0,0.0,0.0,0.0,0.0,0.0,0.0,0.0,0.0,0.0,0.0,0.0,0.0,0.0,0.0,0.0,0.0,0.0,0.0,0.0,0.0,0.0,0.0,0.0,0.0,0.0,0.0,0.0,0.0,0.0,0.0,0.0,0.0,0.0,0.0,0.0,0.0,0.0,0.0,0.0,0.0,0.0,0.0,0.0,0.0,0.0,0.0,0.0,0.0,0.0,0.0,0.0,0.0,0.0,0.0,0.0,0.0,0.0,0.0,0.0,0.0,0.0,0.0,0.0,0.0,0.0,0.0,0.0,0.0,0.0,0.0,0.0,0.0,0.0,0.0,0.0,0.0,0.0,0.0,0.0,0.0,0.0,0.0,0.0,0.0,0.0,0.0,0.0,0.0,0.0,0.0,0.0,0.0,0.0,0.0,0.0,0.0,0.0,0.0,0.0,0.0,0.0,0.0,0.0,0.0,0.0,0.0,0.0,0.0,0.0,0.0,0.0,0.0,0.0,0.0,0.0,0.0,0.0,0.0,0.0,0.0,0.0,0.0,0.0,0.0,0.0,0.0,0.0,0.0,0.0,0.0,0.0,0.0,0.0,0.0,0.0,0.0,0.0,0.0,0.0,0.0,0.0,0.0,0.0,0.0,0.0,0.0,0.0,0.0,0.0,0.0,0.0,0.0,0.0,0.0,0.0,0.0,0.0,0.0,0.0,0.0,0.0,0.0,0.0,0.0,0.0,0.0,0.0,0.0,0.0,0.0,0.0,0.0,0.0,0.0,0.0,0.0,0.0,0.0,0.0,0.0,0.0,0.0,0.0,0.0,0.0,0.0,0.0,0.0,0.0,0.0,0.0,0.0,0.0,0.0,0.0,0.0,0.0,0.0,0.0,0.0,0.0,0.0,0.0,0.0,0.0,0.0,0.0,0.0,0.0,0.0,0.0,2.5111,0.0,0.0,0.0,0.0,0.0,0.0,0.0,0.0,0.0,0.0,0.0,0.0,0.0,0.0,0.0,0.0,0.0,0.0,0.0,0.0,0.0,0.0,0.0,0.0,0.0,0.0,0.0,0.0,0.0,0.0,0.0,0.0,0.0,0.0,0.0,0.0,0.0,0.0,0.0,0.0,0.0,0.0,0.0,0.0,0.0,0.0,0.0,0.0,0.0,0.0,0.0,0.0,0.0,0.0,0.0,0.0,0.0,0.0,0.0,0.0,0.0,0.0,0.0,0.0,0.0,0.0,0.0,0.0,0.0,0.0,0.0,0.0,0.0,0.0,0.0,0.0,0.0,0.0,0.0,0.0,0.0,0.0,0.0,0.0,0.0,0.0,0.0,0.0,0.0,0.0,0.0,0.0,0.0,0.0,0.0,0.0,0.0,0.0,0.0,0.0,0.0,0.0,0.0,0.0,0.0,0.0,0.0,0.0,0.0,0.0,2.522,2.5283,2.5311,2.5311,2.5283,0.0,0.0,0.0,0.0,0.0,0.0,0.0,0.0,0.0,0.0,0.0,0.0,0.0,0.0,0.0,0.0,0.0,0.0,0.0,0.0,0.0,0.0,0.0,0.0,0.0,0.0,0.0,0.0,0.0,0.0,0.0,0.0,0.0,0.0,0.0,0.0,0.0,0.0,0.0,0.0,0.0,0.0,0.0,0.0,0.0,0.0,0.0,0.0,0.0,0.0,0.0,0.0,0.0,0.0,0.0,0.0,0.0,0.0,0.0,0.0,0.0,0.0,0.0,0.0,0.0,0.0,0.0,0.0,0.0,0.0,0.0,0.0,0.0,0.0,0.0,0.0,0.0,0.0,0.0,0.0,0.0,0.0,0.0,0.0,0.0,0.0,0.0,0.0,0.0,0.0,0.0,0.0,0.0,0.0,0.0,0.0,0.0,0.0,0.0,0.0,0.0,0.0,0.0,0.0,0.0,0.0,0.0,0.0,0.0,0.0,0.0,0.0,2.6736,2.6746,2.6746,0.0,0.0,0.0,0.0,0.0,0.0,0.0,0.0,0.0,0.0,0.0,0.0,0.0,0.0,0.0,0.0,0.0,0.0,0.0,0.0,0.0,0.0,0.0,0.0,0.0,0.0,0.0,0.0,0.0,0.0,0.0,0.0,0.0,0.0,0.0,0.0,0.0,0.0,0.0,0.0,0.0,0.0,0.0,0.0,0.0,0.0,0.0,0.0,0.0,0.0,0.0,0.0,0.0,0.0,0.0,0.0,0.0,0.0,0.0,0.0,0.0,0.0,0.0,0.0,0.0,0.0,0.0,0.0,0.0,0.0,0.0,0.0,0.0,0.0,0.0,0.0,0.0,0.0,0.0,0.0,0.0,0.0,0.0,0.0,0.0,0.0,0.0,0.0,0.0,0.0,0.0,0.0,0.0,0.0,0.0,0.0,0.0,0.0,0.0,0.0,0.0,0.0,0.0,0.0,0.0,0.0,0.0,0.0,0.0,0.0,2.7934,3.1006,3.1069,0.0,3.1033,0.0,0.0,0.0,0.0,0.0,0.0,0.0,0.0,0.0,0.0,0.0,0.0,0.0,0.0,0.0,0.0,0.0,0.0,0.0,0.0,0.0,0.0,0.0,0.0,0.0,0.0,0.0,0.0,0.0,0.0,0.0,0.0,0.0,0.0,0.0,0.0,0.0,0.0,0.0,0.0,0.0,0.0,0.0,0.0,0.0,0.0,0.0,0.0,0.0,0.0,0.0,0.0,0.0,0.0,0.0,0.0,0.0,0.0,0.0,0.0,0.0,0.0,0.0,0.0,0.0,0.0,0.0,0.0,0.0,0.0,0.0,0.0,0.0,0.0,0.0,0.0,0.0,0.0,0.0,0.0,0.0,0.0,0.0,0.0,0.0,0.0,0.0,0.0,0.0,0.0,0.0,0.0,0.0,0.0,0.0,0.0,0.0,0.0,0.0,0.0,0.0,0.0,0.0,0.0,0.0,0.0,0.0,0.0,0.0,0.0,2.919,3.1621,3.1707,3.1229,0.0,0.0,0.0,0.0,0.0,0.0,0.0,0.0,0.0,0.0,0.0,0.0,0.0,0.0,0.0,0.0,0.0,0.0,0.0,0.0,0.0,0.0,0.0,0.0,0.0,0.0,0.0,0.0,0.0,0.0,0.0,0.0,0.0,0.0,0.0,0.0,0.0,0.0,0.0,0.0,0.0,0.0,0.0,0.0,0.0,0.0,0.0,0.0,0.0,0.0,0.0,0.0,0.0,0.0,0.0,0.0,0.0,0.0,0.0,0.0,0.0,0.0,0.0,0.0,0.0,0.0,0.0,0.0,0.0,0.0,0.0,0.0,0.0,0.0,0.0,0.0,0.0,0.0,0.0,0.0,0.0,0.0,0.0,0.0,0.0,0.0,0.0,0.0,0.0,0.0,0.0,0.0,0.0,0.0,0.0,0.0,0.0,0.0,0.0,0.0,0.0,0.0,0.0,0.0,0.0,0.0,0.0,0.0,0.0,0.0,2.9934,3.1277,3.357,3.2865,3.166,3.021,0.0,0.0,0.0,0.0,0.0,0.0,0.0,0.0,0.0,0.0,0.0,0.0,0.0,0.0,0.0,0.0,0.0,0.0,0.0,0.0,0.0,0.0,0.0,0.0,0.0,0.0,0.0,0.0,0.0,0.0,0.0,0.0,0.0,0.0,0.0,0.0,0.0,0.0,0.0,0.0,0.0,0.0,0.0,0.0,0.0,0.0,0.0,0.0,0.0,0.0,0.0,0.0,0.0,0.0,0.0,0.0,0.0,0.0,0.0,0.0,0.0,0.0,0.0,0.0,0.0,0.0,0.0,0.0,0.0,0.0,0.0,0.0,0.0,0.0,0.0,0.0,0.0,0.0,0.0,0.0,0.0,0.0,0.0,0.0,0.0,0.0,0.0,0.0,0.0,0.0,0.0,0.0,0.0,0.0,0.0,0.0,0.0,0.0,0.0,0.0,0.0,0.0,0.0,0.0,0.0,0.0,0.0,0.0,3.678,3.4222,3.4712,3.8593,3.5778,3.3634,0.0,0.0,0.0,0.0,0.0,0.0,0.0,0.0,0.0,0.0,0.0,0.0,0.0,0.0,0.0,0.0,0.0,0.0,0.0,0.0,0.0,0.0,0.0,0.0,0.0,0.0,0.0,0.0,0.0,0.0,0.0,0.0,0.0,0.0,0.0,0.0,0.0,0.0,0.0,0.0,0.0,0.0,0.0,0.0,0.0,0.0,0.0,0.0,0.0,0.0,0.0,0.0,0.0,0.0,0.0,0.0,0.0,0.0,0.0,0.0,0.0,0.0,0.0,0.0,0.0,0.0,0.0,0.0,0.0,0.0,0.0,0.0,0.0,0.0,0.0,0.0,0.0,0.0,0.0,0.0,0.0,0.0,0.0,0.0,0.0,0.0,0.0,0.0,0.0,0.0,0.0,0.0,0.0,0.0,0.0,0.0,0.0,0.0,0.0,0.0,0.0,0.0,0.0,0.0,0.0,0.0,0.0,0.0,0.0,3.2004,3.3133,3.5455,3.9013,3.5996,3.4045,0.0,0.0,0.0,0.0,0.0,0.0,0.0,0.0,0.0,0.0,0.0,0.0,0.0,0.0,0.0,0.0,0.0,0.0,0.0,0.0,0.0,0.0,0.0,0.0,0.0,0.0,0.0,0.0,0.0,0.0,0.0,0.0,0.0,0.0,0.0,0.0,0.0,0.0,0.0,0.0,0.0,0.0,0.0,0.0,0.0,0.0,0.0,0.0,0.0,0.0,0.0,0.0,0.0,0.0,0.0,0.0,0.0,0.0,0.0,0.0,0.0,0.0,0.0,0.0,0.0,0.0,0.0,0.0,0.0,0.0,0.0,0.0,0.0,0.0,0.0,0.0,0.0,0.0,0.0,0.0,0.0,0.0,0.0,0.0,0.0,0.0,0.0,0.0,0.0,0.0,0.0,0.0,0.0,0.0,0.0,0.0,0.0,0.0,0.0,0.0,0.0,0.0,0.0,0.0,0.0,0.0,0.0,0.0,0.0,3.1837,0.0,3.7762,3.9099,3.6507,3.425,0.0,0.0,0.0,0.0,0.0,0.0,0.0,0.0,0.0,0.0,0.0,0.0,0.0,0.0,0.0,0.0,0.0,0.0,0.0,0.0,0.0,0.0,0.0,0.0,0.0,0.0,0.0,0.0,0.0,0.0,0.0,0.0,0.0,0.0,0.0,0.0,0.0,0.0,0.0,0.0,0.0,0.0,0.0,0.0,0.0,0.0,0.0,0.0,0.0,0.0,0.0,0.0,0.0,0.0,0.0,0.0,0.0,0.0,0.0,0.0,0.0,0.0,0.0,0.0,0.0,0.0,0.0,0.0,0.0,0.0,0.0,0.0,0.0,0.0,0.0,0.0,0.0,0.0,0.0,0.0,0.0,0.0,0.0,0.0,0.0,0.0,0.0,0.0,0.0,0.0,0.0,0.0,0.0,0.0,0.0,0.0,0.0,0.0,0.0,0.0,0.0,0.0,0.0,0.0,0.0,0.0,0.0,0.0,3.1046,3.7456,4.0938,4.1508,3.9392,3.7507,3.4314,0.0,0.0,0.0,0.0,0.0,0.0,0.0,0.0,0.0,0.0,0.0,0.0,0.0,0.0,0.0,0.0,0.0,0.0,0.0,0.0,0.0,0.0,0.0,0.0,0.0,0.0,0.0,0.0,0.0,0.0,0.0,0.0,0.0,0.0,0.0,0.0,0.0,0.0,0.0,0.0,0.0,0.0,0.0,0.0,0.0,0.0,0.0,0.0,0.0,0.0,0.0,0.0,0.0,0.0,0.0,0.0,0.0,0.0,0.0,0.0,0.0,0.0,0.0,0.0,0.0,0.0,0.0,0.0,0.0,0.0,0.0,0.0,0.0,0.0,0.0,0.0,0.0,0.0,0.0,0.0,0.0,0.0,0.0,0.0,0.0,0.0,0.0,0.0,0.0,0.0,0.0,0.0,0.0,0.0,0.0,0.0,0.0,0.0,0.0,0.0,0.0,0.0,0.0,0.0,0.0,0.0,0.0,0.0,0.0,3.3643,3.7448,4.0284,4.1662,3.6858,3.4788,0.0,0.0,0.0,0.0,0.0,0.0,0.0,0.0,0.0,0.0,0.0,0.0,0.0,0.0,0.0,0.0,0.0,0.0,0.0,0.0,0.0,0.0,0.0,0.0,0.0,0.0,0.0,0.0,0.0,0.0,0.0,0.0,0.0,0.0,0.0,0.0,0.0,0.0,0.0,0.0,0.0,0.0,0.0,0.0,0.0,0.0,0.0,0.0,0.0,0.0,0.0,0.0,0.0,0.0,0.0,0.0,0.0,0.0,0.0,0.0,0.0,0.0,0.0,0.0,0.0,0.0,0.0,0.0,0.0,0.0,0.0,0.0,0.0,0.0,0.0,0.0,0.0,0.0,0.0,0.0,0.0,0.0,0.0,0.0,0.0,0.0,0.0,0.0,0.0,0.0,0.0,0.0,0.0,0.0,0.0,0.0,0.0,0.0,0.0,0.0,0.0,0.0,0.0,0.0,0.0,0.0,0.0,0.0,0.0,3.7089,4.0097,4.2217,4.3088,3.845,3.6228,3.6832,0.0,0.0,0.0,0.0,0.0,0.0,0.0,0.0,0.0,0.0,0.0,0.0,0.0,0.0,0.0,0.0,0.0,0.0,0.0,0.0,0.0,0.0,0.0,0.0,0.0,0.0,0.0,0.0,0.0,0.0,0.0,0.0,0.0,0.0,0.0,0.0,0.0,0.0,0.0,0.0,0.0,0.0,0.0,0.0,0.0,0.0,0.0,0.0,0.0,0.0,0.0,0.0,0.0,0.0,0.0,0.0,0.0,0.0,0.0,0.0,0.0,0.0,0.0,0.0,0.0,0.0,0.0,0.0,0.0,0.0,0.0,0.0,0.0,0.0,0.0,0.0,0.0,0.0,0.0,0.0,0.0,0.0,0.0,0.0,0.0,0.0,0.0,0.0,0.0,0.0,0.0,0.0,0.0,0.0,0.0,0.0,0.0,0.0,0.0,0.0,0.0,0.0,0.0,0.0,0.0,0.0,0.0,0.0,4.5996,4.7843,4.7235,4.4072,4.1955,3.8606,0.0,0.0,0.0,0.0,0.0,0.0,0.0,0.0,0.0,0.0,0.0,0.0,0.0,0.0,0.0,0.0,0.0,0.0,0.0,0.0,0.0,0.0,0.0,0.0,0.0,0.0,0.0,0.0,0.0,0.0,0.0,0.0,0.0,0.0,0.0,0.0,0.0,0.0,0.0,0.0,0.0,0.0,0.0,0.0,0.0,0.0,0.0,0.0,0.0,0.0,0.0,0.0,0.0,0.0,0.0,0.0,0.0,0.0,0.0,0.0,0.0,0.0,0.0,0.0,0.0,0.0,0.0,0.0,0.0,0.0,0.0,0.0,0.0,0.0,0.0,0.0,0.0,0.0,0.0,0.0,0.0,0.0,0.0,0.0,0.0,0.0,0.0,0.0,0.0,0.0,0.0,0.0,0.0,0.0,0.0,0.0,0.0,0.0,0.0,0.0,0.0,0.0,0.0,0.0,0.0,0.0,0.0,0.0,0.0,4.8593,5.2822,5.3987,5.1773,4.5404,4.1249,0.0,0.0,0.0,0.0,0.0,0.0,0.0,0.0,0.0,0.0,0.0,0.0,0.0,0.0,0.0,0.0,0.0,0.0,0.0,0.0,0.0,0.0,0.0,0.0,0.0,0.0,0.0,0.0,0.0,0.0,0.0,0.0,0.0,0.0,0.0,0.0,0.0,0.0,0.0,0.0,0.0,0.0,0.0,0.0,0.0,0.0,0.0,0.0,0.0,0.0,0.0,0.0,0.0,0.0,0.0,0.0,0.0,0.0,0.0,0.0,0.0,0.0,0.0,0.0,0.0,0.0,0.0,0.0,0.0,0.0,0.0,0.0,0.0,0.0,0.0,0.0,0.0,0.0,0.0,0.0,0.0,0.0,0.0,0.0,0.0,0.0,0.0,0.0,0.0,0.0,0.0,0.0,0.0,0.0,0.0,0.0,0.0,0.0,0.0,0.0,0.0,0.0,0.0,0.0,0.0,0.0,0.0,0.0,4.7179,5.2887,5.8014,6.0254,5.9395,5.1863,4.5612,0.0,0.0,0.0,0.0,0.0,0.0,0.0,0.0,0.0,0.0,0.0,0.0,0.0,0.0,0.0,0.0,0.0,0.0,0.0,0.0,0.0,0.0,0.0,0.0,0.0,0.0,0.0,0.0,0.0,0.0,0.0,0.0,0.0,0.0,0.0,0.0,0.0,0.0,0.0,0.0,0.0,0.0,0.0,0.0,0.0,0.0,0.0,0.0,0.0,0.0,0.0,0.0,0.0,0.0,0.0,0.0,0.0,0.0,0.0,0.0,0.0,0.0,0.0,0.0,0.0,0.0,0.0,0.0,0.0,0.0,0.0,0.0,0.0,0.0,0.0,0.0,0.0,0.0,0.0,0.0,0.0,0.0,0.0,0.0,0.0,0.0,0.0,0.0,0.0,0.0,0.0,0.0,0.0,0.0,0.0,0.0,0.0,0.0,0.0,0.0,0.0,0.0,0.0,0.0,0.0,0.0,0.0,0.0,5.1183,5.7503,6.2588,6.5333,6.5385,5.8831,5.0542,0.0,0.0,0.0,0.0,0.0,0.0,0.0,0.0,0.0,0.0,0.0,0.0,0.0,0.0,0.0,0.0,0.0,0.0,0.0,0.0,0.0,0.0,0.0,0.0,0.0,0.0,0.0,0.0,0.0,0.0,0.0,0.0,0.0,0.0,0.0,0.0,0.0,0.0,0.0,0.0,0.0,0.0,0.0,0.0,0.0,0.0,0.0,0.0,0.0,0.0,0.0,0.0,0.0,0.0,0.0,0.0,0.0,0.0,0.0,0.0,0.0,0.0,0.0,0.0,0.0,0.0,0.0,0.0,0.0,0.0,0.0,0.0,0.0,0.0,0.0,0.0,0.0,0.0,0.0,0.0,0.0,0.0,0.0,0.0,0.0,0.0,0.0,0.0,0.0,0.0,0.0,0.0,0.0,0.0,0.0,0.0,0.0,0.0,0.0,0.0,0.0,0.0,0.0,0.0,0.0,0.0,0.0,0.0,5.1476,5.8387,6.3521,6.5956,6.558,5.8246,5.1332,0.0,0.0,0.0,0.0,0.0,0.0,0.0,0.0,0.0,0.0,0.0,0.0,0.0,0.0,0.0,0.0,0.0,0.0,0.0,0.0,0.0,0.0,0.0,0.0,0.0,0.0,0.0,0.0,0.0,0.0,0.0,0.0,0.0,0.0,0.0,0.0,0.0,0.0,0.0,0.0,0.0,0.0,0.0,0.0,0.0,0.0,0.0,0.0,2.9535,0.0,0.0,0.0,0.0,0.0,0.0,0.0,0.0,0.0,0.0,0.0,0.0,0.0,0.0,0.0,0.0,0.0,0.0,0.0,0.0,0.0,0.0,0.0,0.0,0.0,0.0,0.0,0.0,0.0,0.0,0.0,0.0,0.0,0.0,0.0,0.0,0.0,0.0,0.0,0.0,0.0,0.0,0.0,0.0,0.0,0.0,0.0,0.0,0.0,0.0,0.0,0.0,0.0,0.0,0.0,0.0,0.0,0.0,0.0,5.3795,6.0436,6.5153,6.7319,6.6595,6.0432,5.3444,0.0,0.0,0.0,0.0,0.0,0.0,0.0,0.0,0.0,0.0,0.0,0.0,0.0,0.0,0.0,0.0,0.0,0.0,0.0,0.0,0.0,0.0,0.0,0.0,0.0,0.0,0.0,0.0,0.0,0.0,0.0,0.0,0.0,0.0,0.0,0.0,0.0,0.0,0.0,0.0,0.0,0.0,0.0,0.0,0.0,0.0,0.0,0.0,0.0,0.0,0.0,0.0,0.0,0.0,0.0,0.0,0.0,0.0,0.0,0.0,0.0,0.0,0.0,0.0,0.0,0.0,0.0,0.0,0.0,0.0,0.0,0.0,0.0,0.0,0.0,0.0,0.0,0.0,0.0,0.0,0.0,0.0,0.0,0.0,0.0,0.0,0.0,0.0,0.0,0.0,0.0,0.0,0.0,0.0,0.0,0.0,0.0,0.0,0.0,0.0,0.0,0.0,0.0,0.0,0.0,0.0,0.0,4.951,5.6265,6.2795,6.6917,6.8655,6.8039,6.3086,5.5747,4.6027,0.0,0.0,0.0,0.0,0.0,0.0,0.0,0.0,0.0,0.0,0.0,0.0,0.0,0.0,0.0,0.0,0.0,0.0,0.0,0.0,0.0,0.0,0.0,0.0,0.0,0.0,0.0,0.0,0.0,0.0,0.0,0.0,0.0,0.0,0.0,0.0,0.0,0.0,2.7014,2.9459,0.0,0.0,0.0,0.0,0.0,0.0,0.0,0.0,3.3586,0.0,0.0,0.0,0.0,0.0,0.0,0.0,0.0,0.0,0.0,0.0,0.0,0.0,0.0,0.0,0.0,0.0,0.0,0.0,0.0,0.0,0.0,0.0,0.0,0.0,0.0,0.0,0.0,0.0,0.0,0.0,0.0,0.0,0.0,0.0,0.0,0.0,0.0,0.0,0.0,0.0,0.0,0.0,0.0,0.0,0.0,0.0,0.0,0.0,0.0,0.0,0.0,0.0,0.0,0.0,0.0,4.6858,5.0538,5.6335,6.4492,6.763,6.8817,6.8,6.3086,5.6567,4.8564,0.0,0.0,0.0,0.0,0.0,0.0,0.0,0.0,0.0,0.0,0.0,0.0,0.0,0.0,0.0,0.0,0.0,0.0,0.0,0.0,0.0,0.0,0.0,0.0,0.0,0.0,0.0,0.0,0.0,0.0,0.0,0.0,0.0,0.0,0.0,0.0,0.0,0.0,0.0,3.3433,3.5611,0.0,0.0,0.0,0.0,0.0,0.0,0.0,0.0,3.2783,0.0,0.0,0.0,0.0,0.0,0.0,0.0,0.0,0.0,0.0,0.0,0.0,0.0,0.0,0.0,0.0,0.0,0.0,0.0,0.0,0.0,0.0,0.0,0.0,0.0,0.0,0.0,0.0,0.0,0.0,0.0,0.0,0.0,0.0,0.0,0.0,0.0,0.0,0.0,0.0,0.0,0.0,0.0,0.0,0.0,0.0,0.0,0.0,0.0,0.0,0.0,0.0,0.0,0.0,0.0,4.7069,5.1846,5.7707,6.4828,6.737,6.7968,6.6712,6.0939,5.4927,0.0,0.0,0.0,0.0,0.0,0.0,0.0,0.0,0.0,0.0,0.0,0.0,0.0,0.0,0.0,0.0,0.0,0.0,0.0,0.0,0.0,0.0,0.0,0.0,0.0,0.0,0.0,0.0,0.0,0.0,0.0,0.0,0.0,0.0,0.0,0.0,0.0,0.0,0.0,0.0,3.6239,3.8014,3.84,0.0,0.0,0.0,0.0,0.0,0.0,3.5776,3.463,0.0,0.0,0.0,0.0,0.0,0.0,0.0,0.0,0.0,0.0,0.0,0.0,0.0,0.0,0.0,0.0,0.0,0.0,0.0,0.0,0.0,0.0,0.0,0.0,0.0,0.0,0.0,0.0,0.0,0.0,0.0,0.0,0.0,0.0,0.0,0.0,0.0,0.0,0.0,0.0,0.0,0.0,0.0,0.0,0.0,0.0,0.0,0.0,0.0,0.0,0.0,0.0,0.0,0.0,0.0,4.6647,5.2708,5.8823,6.4828,6.6953,6.7282,6.578,5.93,5.3678,0.0,0.0,0.0,0.0,0.0,0.0,0.0,0.0,0.0,0.0,0.0,0.0,0.0,0.0,0.0,0.0,0.0,0.0,0.0,0.0,0.0,0.0,0.0,0.0,0.0,0.0,0.0,0.0,0.0,0.0,0.0,0.0,0.0,0.0,0.0,0.0,0.0,0.0,0.0,0.0,0.0,4.0651,4.0806,4.0422,0.0,0.0,0.0,0.0,3.8946,3.9084,0.0,0.0,0.0,0.0,0.0,0.0,0.0,0.0,0.0,0.0,0.0,0.0,0.0,0.0,0.0,0.0,0.0,0.0,0.0,0.0,0.0,0.0,0.0,0.0,0.0,0.0,0.0,0.0,0.0,0.0,0.0,0.0,0.0,0.0,0.0,0.0,0.0,0.0,0.0,0.0,0.0,0.0,0.0,0.0,0.0,0.0,0.0,0.0,0.0,0.0,0.0,0.0,0.0,0.0,0.0,0.0,4.6589,5.2264,5.8363,6.4803,6.7071,6.761,6.66,6.0705,5.5123,0.0,0.0,0.0,0.0,0.0,0.0,0.0,0.0,0.0,0.0,0.0,0.0,0.0,0.0,0.0,0.0,0.0,0.0,0.0,0.0,0.0,0.0,0.0,0.0,0.0,0.0,0.0,0.0,0.0,0.0,0.0,0.0,0.0,0.0,0.0,0.0,0.0,0.0,0.0,0.0,0.0,4.4958,4.2889,4.3101,4.3159,0.0,0.0,4.1513,4.3101,4.5334,0.0,0.0,0.0,0.0,0.0,0.0,0.0,0.0,0.0,0.0,0.0,0.0,0.0,0.0,0.0,0.0,0.0,0.0,0.0,0.0,0.0,0.0,0.0,0.0,0.0,0.0,0.0,0.0,0.0,0.0,0.0,0.0,0.0,0.0,0.0,0.0,0.0,0.0,0.0,0.0,0.0,0.0,0.0,0.0,0.0,0.0,0.0,0.0,0.0,0.0,0.0,0.0,0.0,0.0,0.0,4.0334,4.73,5.2394,5.7753,6.3429,6.5168,6.5312,6.3906,5.7113,5.196,0.0,0.0,0.0,0.0,0.0,0.0,0.0,0.0,0.0,0.0,0.0,0.0,0.0,0.0,0.0,0.0,0.0,0.0,0.0,0.0,0.0,0.0,0.0,0.0,0.0,0.0,0.0,0.0,0.0,0.0,0.0,0.0,0.0,0.0,0.0,0.0,0.0,0.0,0.0,0.0,0.0,0.0,4.5151,4.6206,0.0,0.0,0.0,4.5878,4.7489,0.0,0.0,0.0,0.0,0.0,0.0,0.0,0.0,0.0,0.0,0.0,0.0,0.0,0.0,0.0,0.0,0.0,0.0,0.0,0.0,0.0,0.0,0.0,0.0,0.0,0.0,0.0,0.0,0.0,0.0,0.0,0.0,0.0,0.0,0.0,0.0,0.0,0.0,0.0,0.0,0.0,0.0,0.0,0.0,0.0,0.0,0.0,0.0,0.0,0.0,0.0,0.0,0.0,0.0,0.0,0.0,0.0,4.7971,5.2549,5.7364,6.2381,6.3694,6.3477,6.1642,5.481,0.0,0.0,0.0,0.0,0.0,0.0,0.0,0.0,0.0,0.0,0.0,0.0,0.0,0.0,0.0,0.0,0.0,0.0,0.0,0.0,0.0,0.0,0.0,0.0,0.0,0.0,0.0,2.5573,0.0,0.0,0.0,0.0,0.0,0.0,0.0,0.0,0.0,0.0,0.0,0.0,0.0,0.0,4.6359,4.6993,4.9047,5.0584,0.0,0.0,5.0067,5.1003,5.0919,4.885,0.0,0.0,0.0,0.0,0.0,0.0,0.0,0.0,0.0,0.0,0.0,0.0,0.0,0.0,0.0,0.0,0.0,0.0,0.0,0.0,0.0,0.0,0.0,0.0,0.0,0.0,0.0,0.0,0.0,0.0,0.0,0.0,0.0,0.0,0.0,0.0,0.0,0.0,0.0,0.0,0.0,0.0,0.0,0.0,0.0,0.0,0.0,0.0,0.0,0.0,0.0,0.0,0.0,0.0,0.0,4.8075,5.2615,5.7448,6.2581,6.3761,6.3477,6.1681,5.6528,5.1765,0.0,0.0,0.0,0.0,0.0,0.0,0.0,0.0,0.0,0.0,0.0,0.0,0.0,0.0,0.0,0.0,0.0,0.0,0.0,0.0,0.0,0.0,0.0,0.0,0.0,0.0,0.0,0.0,0.0,0.0,0.0,0.0,0.0,0.0,0.0,0.0,0.0,0.0,0.0,0.0,0.0,4.7876,4.7991,5.147,5.4062,0.0,0.0,5.3689,5.3042,5.6961,5.6823,4.6926,0.0,0.0,0.0,0.0,0.0,0.0,0.0,0.0,0.0,0.0,0.0,0.0,0.0,0.0,0.0,0.0,0.0,0.0,0.0,0.0,0.0,0.0,0.0,0.0,0.0,0.0,0.0,0.0,0.0,0.0,0.0,0.0,0.0,0.0,0.0,0.0,0.0,0.0,0.0,0.0,0.0,0.0,0.0,0.0,0.0,0.0,0.0,0.0,0.0,0.0,0.0,0.0,0.0,4.2178,4.8129,5.2071,5.6669,6.1763,6.2473,6.1876,6.0159,5.563,5.0945,0.0,0.0,0.0,0.0,0.0,0.0,0.0,0.0,0.0,0.0,0.0,0.0,0.0,0.0,0.0,0.0,0.0,0.0,0.0,0.0,0.0,0.0,0.0,0.0,0.0,0.0,0.0,0.0,2.6895,2.7493,2.9229,0.0,0.0,0.0,0.0,0.0,0.0,0.0,0.0,0.0,0.0,4.8414,5.1587,5.4297,0.0,0.0,5.7235,5.7178,5.7907,5.7149,5.458,4.8941,4.5893,0.0,0.0,0.0,0.0,0.0,0.0,0.0,0.0,0.0,0.0,0.0,0.0,0.0,0.0,0.0,0.0,0.0,0.0,0.0,0.0,0.0,0.0,0.0,0.0,0.0,0.0,0.0,0.0,0.0,0.0,0.0,0.0,0.0,0.0,0.0,0.0,0.0,0.0,0.0,0.0,0.0,0.0,0.0,0.0,0.0,0.0,0.0,0.0,0.0,0.0,0.0,0.0,4.2502,4.823,5.1808,5.6242,6.1456,6.1387,6.0588,5.9065,5.4693,5.0126,0.0,0.0,0.0,0.0,0.0,0.0,0.0,0.0,0.0,0.0,0.0,0.0,0.0,0.0,0.0,0.0,0.0,0.0,0.0,0.0,0.0,0.0,0.0,0.0,0.0,0.0,0.0,0.0,2.8119,2.8768,3.0225,0.0,0.0,0.0,0.0,0.0,0.0,0.0,0.0,0.0,0.0,4.9602,5.3994,5.6483,5.8336,5.9589,5.9099,5.8878,5.9847,5.7068,5.3468,4.9511,0.0,0.0,0.0,0.0,0.0,0.0,0.0,0.0,0.0,0.0,0.0,0.0,0.0,0.0,0.0,0.0,0.0,0.0,0.0,0.0,0.0,0.0,0.0,0.0,0.0,0.0,0.0,3.6867,0.0,0.0,3.5422,0.0,0.0,0.0,0.0,0.0,0.0,0.0,0.0,0.0,0.0,0.0,0.0,0.0,0.0,0.0,0.0,0.0,0.0,0.0,0.0,0.0,0.0,4.3182,4.8458,5.1996,5.6354,6.1481,6.0861,6.0002,5.9026,5.4147,4.9813,4.6261,0.0,0.0,0.0,0.0,0.0,0.0,0.0,0.0,0.0,0.0,0.0,0.0,0.0,0.0,0.0,0.0,0.0,0.0,0.0,0.0,0.0,0.0,0.0,0.0,0.0,0.0,3.1238,3.0047,2.9467,0.0,0.0,0.0,0.0,0.0,0.0,0.0,0.0,0.0,0.0,4.7052,5.1702,5.4518,5.7768,5.9852,5.9968,5.9269,5.8428,5.769,5.7437,5.5171,0.0,0.0,0.0,0.0,0.0,0.0,0.0,0.0,0.0,0.0,0.0,0.0,0.0,0.0,0.0,0.0,0.0,0.0,0.0,0.0,0.0,0.0,0.0,0.0,0.0,0.0,0.0,3.9101,3.8786,0.0,0.0,0.0,0.0,0.0,0.0,0.0,0.0,0.0,0.0,0.0,4.0992,4.1783,0.0,0.0,0.0,0.0,0.0,0.0,0.0,0.0,0.0,0.0,0.0,0.0,4.3465,4.9137,5.2269,5.6361,6.1481,6.0822,6.0002,5.9104,5.5201,5.0165,4.3915,0.0,0.0,0.0,0.0,0.0,0.0,0.0,0.0,0.0,0.0,0.0,0.0,0.0,0.0,0.0,0.0,0.0,0.0,0.0,0.0,0.0,0.0,0.0,0.0,0.0,3.1148,0.0,0.0,0.0,0.0,0.0,0.0,0.0,0.0,0.0,0.0,0.0,4.0716,4.4766,4.8508,5.1973,5.5255,5.7638,5.9154,0.0,0.0,0.0,0.0,0.0,0.0,0.0,0.0,0.0,0.0,0.0,0.0,0.0,0.0,4.7933,4.3475,4.2168,4.1745,4.1745,0.0,0.0,0.0,0.0,0.0,0.0,0.0,0.0,0.0,0.0,0.0,0.0,0.0,0.0,4.098,0.0,4.0237,0.0,0.0,0.0,0.0,0.0,0.0,0.0,0.0,4.2124,4.3739,4.4008,4.5124,4.5047,0.0,4.2585,4.0469,0.0,0.0,0.0,0.0,0.0,0.0,0.0,0.0,4.3702,4.8788,5.1881,5.5834,6.0466,5.9963,5.9104,5.8207,5.4303,4.9267,4.3056,4.0101,3.7688,0.0,0.0,0.0,0.0,0.0,0.0,0.0,0.0,0.0,0.0,0.0,0.0,0.0,0.0,0.0,0.0,0.0,0.0,0.0,0.0,0.0,0.0,0.0,3.2609,0.0,0.0,0.0,0.0,0.0,0.0,0.0,0.0,0.0,3.8316,4.0716,4.3959,4.8308,5.0584,5.3028,5.6241,0.0,0.0,0.0,0.0,0.0,0.0,0.0,5.4372,5.3208,5.2021,5.1142,5.0763,5.246,5.3557,5.2471,0.0,0.0,4.7027,4.5701,4.5278,4.5278,4.5701,4.624,4.6778,4.7337,4.7972,0.0,0.0,0.0,0.0,0.0,0.0,0.0,0.0,4.0756,4.2201,0.0,4.1579,0.0,0.0,0.0,0.0,0.0,4.0771,0.0,0.0,4.5103,4.6604,4.6026,4.7604,4.7489,4.595,4.6621,4.524,4.1983,3.7035,0.0,0.0,0.0,0.0,0.0,0.0,4.3925,4.7561,5.1045,5.481,5.8948,5.8285,5.7426,5.645,5.1609,4.7354,4.3954,4.2138,4.0073,3.7572,3.8197,0.0,0.0,0.0,0.0,0.0,0.0,0.0,0.0,0.0,0.0,0.0,0.0,0.0,0.0,0.0,0.0,0.0,0.0,0.0,0.0,3.4301,0.0,0.0,0.0,0.0,0.0,0.0,0.0,0.0,0.0,0.0,4.187,4.4298,4.7572,5.1897,0.0,0.0,0.0,0.0,5.8168,5.9026,5.9183,5.9222,5.9143,5.9026,5.7894,5.4732,0.0,0.0,5.3156,5.4058,5.4719,5.2969,5.3391,5.3288,5.2262,5.0548,4.9471,4.9433,4.9471,4.9548,4.9586,4.9894,5.0164,5.0321,0.0,0.0,0.0,0.0,4.6261,4.8017,5.0243,4.9384,4.8525,4.7627,4.6015,0.0,0.0,0.0,0.0,0.0,0.0,4.3659,4.5293,4.8346,5.0278,5.1206,5.2375,5.238,5.1269,4.9731,4.783,4.5592,4.1838,3.9518,3.8655,0.0,0.0,0.0,0.0,4.5468,4.9932,5.2445,5.5396,5.9026,5.8246,5.6801,5.4771,5.2078,4.9029,4.5672,4.4487,4.2693,4.0179,3.971,0.0,0.0,0.0,0.0,0.0,0.0,0.0,0.0,0.0,0.0,0.0,0.0,0.0,0.0,0.0,0.0,0.0,0.0,0.0,3.601,3.6162,3.6135,0.0,0.0,0.0,0.0,0.0,0.0,0.0,0.0,0.0,4.7107,4.8669,5.077,0.0,0.0,5.6815,5.7695,5.8324,5.9026,5.9885,6.0549,0.0,6.0119,5.8987,5.805,5.7699,5.8548,5.9201,5.9066,5.9365,5.9241,5.8121,5.8064,5.78,5.6691,5.4169,5.2299,5.2164,5.2587,5.3203,5.378,5.4357,5.5049,5.7738,5.1492,5.0008,4.9852,5.0633,5.0789,5.2078,5.3951,5.3093,5.2195,5.1297,4.9774,4.7615,4.5055,4.369,0.0,0.0,0.0,4.6535,4.8735,5.1294,5.3039,5.4086,5.5644,5.5605,5.4089,5.2547,5.0975,4.9284,4.698,4.4908,4.3025,0.0,0.0,4.181,4.3997,4.6943,5.066,5.2923,5.5357,5.8011,5.6918,5.5552,5.4029,5.2312,5.0122,4.7467,4.6514,4.4646,4.175,4.1155,4.0213,0.0,0.0,0.0,0.0,0.0,0.0,0.0,0.0,0.0,0.0,0.0,3.4312,3.382,0.0,0.0,0.0,3.593,3.6935,3.7375,3.7506,0.0,0.0,0.0,0.0,0.0,0.0,0.0,4.0935,4.4074,4.7504,5.0948,5.2775,5.4476,5.6363,5.7244,5.7974,5.8709,0.0,5.9026,6.0198,6.0861,6.1252,6.1369,6.0276,5.9534,6.0041,6.0549,6.1056,6.1603,6.1648,6.1393,6.0949,6.0692,6.0397,5.9813,5.7838,5.6058,5.5399,5.5895,5.6626,5.7126,5.7896,5.8665,6.4609,6.1993,5.7074,5.5318,5.563,5.5005,5.4732,5.4654,5.3873,5.4303,5.5396,5.2975,5.1804,5.1414,4.833,0.0,4.8068,4.884,5.0079,5.1675,5.4047,5.5163,5.5345,5.7534,5.7391,5.5124,5.5058,5.4217,5.2684,5.1803,5.0602,4.8925,4.4241,4.2559,4.4079,4.6385,4.8521,5.0395,5.2858,5.4927,5.6528,5.4888,5.3951,5.3873,5.2195,5.0477,4.8755,4.7913,4.5933,4.2617,4.2335,4.1189,3.8879,0.0,0.0,0.0,0.0,0.0,0.0,0.0,0.0,0.0,0.0,0.0,0.0,0.0,0.0,0.0,3.6482,0.0,3.8397,3.8583,0.0,0.0,0.0,3.9228,4.0018,4.0904,4.2041,4.3739,0.0,0.0,5.3585,5.6352,5.8231,5.8944,5.8487,5.8714,6.0393,5.9339,5.8792,6.0627,6.0744,6.133,6.2735,6.2267,6.1603,6.1564,6.172,6.1681,6.1681,6.1715,6.172,6.1637,6.1595,6.1451,6.149,6.1044,6.0686,5.8739,5.904,5.9579,5.9562,6.0102,6.0624,6.9098,6.8279,6.5077,6.1993,5.93,6.0393,6.0861,6.0861,6.0627,5.969,5.8128,5.684,5.5201,5.3327,5.2546,5.262,5.3431,5.354,5.4476,5.6047,5.6718,5.7342,5.7965,5.7985,5.7701,5.7115,5.6491,5.5613,5.4492,5.3721,5.2746,5.153,4.982,4.8454,4.76,4.8806,5.0659,5.3053,5.4342,5.5513,5.6528,5.4888,5.3678,5.3014,5.1297,4.9302,4.7038,4.6703,4.5309,4.2578,4.1754,4.0848,3.9663,3.9546,0.0,0.0,0.0,0.0,0.0,0.0,0.0,0.0,0.0,3.7153,3.6402,0.0,3.7112,0.0,3.748,3.8429,3.9312,4.0062,0.0,0.0,4.2091,4.3611,4.4455,4.5265,4.648,4.8298,5.0933,5.3195,5.4797,5.7773,5.9841,6.0026,6.0461,6.1174,6.2189,6.2071,6.2149,6.3047,6.3243,6.3516,6.3711,6.3243,6.2462,6.1798,6.172,6.172,6.172,6.172,6.172,6.172,6.1671,6.1602,6.1509,6.1471,6.125,6.0662,6.0693,6.0809,6.0809,6.0948,6.1103,7.2182,7.1714,7.0309,6.7888,6.496,6.4804,6.4921,6.5194,6.4492,6.3125,6.1291,5.93,5.7582,5.6216,5.5474,5.563,5.6372,5.6347,5.7031,5.8272,5.8708,5.8942,5.902,5.9363,5.9143,5.8363,5.7933,5.7216,5.6296,5.5538,5.4679,5.3754,5.3352,5.2655,5.1698,5.1757,5.2741,5.4537,5.5435,5.6098,5.6528,5.4888,5.3756,5.3249,5.1219,4.8912,4.6413,4.5922,4.4679,4.2532,4.1947,4.1474,4.103,4.06,4.0171,0.0,0.0,0.0,0.0,0.0,0.0,0.0,0.0,0.0,0.0,0.0,3.8233,3.8693,3.9247,4.0076,4.1345,4.2307,4.2818,4.2793,4.4743,4.6382,4.724,4.8386,4.9991,5.2151,5.3972,5.5684,5.7387,5.9222,6.0549,6.0939,6.1408,6.1876,6.2306,6.2423,6.2735,6.3555,6.3399,6.3125,6.3164,6.3086,6.2696,6.1915,6.172,6.172,6.172,6.172,6.172,6.172,6.172,6.1671,6.1595,6.1588,6.1534,6.1461,6.1432,6.1362,6.1214,6.1186,6.1186,7.4251,7.3627,7.351,7.2534,7.0855,6.8591,6.7888,6.8161,6.6717,6.5546,6.4414,6.1291,5.9807,5.9495,5.8089,5.7738,5.8285,5.8324,5.8714,5.9456,6.0237,6.0159,5.9495,6.0861,6.0744,5.93,5.9143,5.8714,5.7972,5.727,5.6489,5.5669,5.563,5.5552,5.5435,5.4732,5.4693,5.5435,5.6294,5.6762,5.6723,5.5044,5.4068,5.3717,5.1102,4.8404,4.5906,4.5063,4.3854,4.2204,4.2173,4.2251,4.224,4.142,4.0991,0.0,3.9741,0.0,0.0,0.0,0.0,0.0,0.0,0.0,0.0,3.8324,3.9267,4.1149,4.1362,4.2008,4.372,4.4738,4.5402,4.5519,4.7159,4.8564,4.9423,5.0906,5.2858,5.5357,5.6372,5.7855,5.9924,6.0471,6.09,6.1525,6.1681,6.172,6.1759,6.1876,6.2306,6.3008,6.2423,6.2149,6.1954,6.2384,6.254,6.1876,6.172,6.172,6.172,6.172,6.172,6.172,6.172,6.1715,6.172,6.1715,6.1715,6.1671,6.1671,6.1602,6.1362,6.1304,6.124,7.5462,7.5266,7.4564,7.3705,7.2768,7.23,7.0972,6.9137,6.8825,6.781,6.6249,6.496,6.3594,6.2267,6.1915,6.1486,6.0978,6.0939,6.1056,6.1213,6.1369,6.1369,6.1174,6.0822,6.0471,6.0119,5.9417,5.9026,5.887,5.8714,5.8168,5.7348,5.7309,5.6996,5.6372,0.0,0.0,0.0,5.7153,5.7582,5.7504,5.5903,5.4381,5.2897,4.9072,0.0,4.329,4.2954,4.2104,4.0506,4.1004,0.0,0.0,0.0,0.0,0.0,0.0,0.0,0.0,0.0,0.0,0.0,4.1636,4.0882,3.9471,4.0018,4.1169,4.2909,4.3149,4.3599,4.466,4.6183,4.7393,4.8096,5.0243,5.2078,5.2936,5.3912,5.5279,5.7113,5.8089,5.9065,6.0198,6.0978,6.1486,6.1681,6.172,6.172,6.172,6.2267,6.3047,6.3789,6.3164,6.2462,6.1798,6.1876,6.1993,6.172,6.172,6.172,6.172,6.172,6.172,6.172,6.172,6.172,6.172,6.172,6.172,6.172,6.172,6.1676,6.1609,6.1609,6.1609,7.6828,0.0,7.5969,7.5305,0.0,7.4525,7.3315,7.1285,7.0387,6.9059,6.7381,6.6561,6.5507,6.4258,6.3399,6.2735,6.2345,6.1876,6.172,6.172,6.172,6.172,6.1681,6.1252,6.1017,6.1017,6.0159,5.9729,5.9729,5.93,5.8636,5.7816,5.7816,5.7387,5.6645,5.6606,5.6606,5.6606,5.6996,5.7231,5.7153,5.5552,5.4029,5.2663,4.9345,0.0,0.0,0.0,0.0,0.0,0.0,0.0,0.0,4.1967,0.0,4.2318,4.1967,4.1927,4.2318,4.2006,4.2077,4.2915,4.2993,4.2616,4.1653,4.1993,4.2844,4.4158,4.4727,4.5519,4.6768,4.8447,4.9813,5.0711,5.2702,5.4186,5.4693,5.5786,5.7035,5.8246,5.9183,6.008,6.0939,6.1369,6.1681,6.172,6.172,6.172,6.1759,6.2071,6.254,6.2969,6.3125,6.2696,6.1915,6.172,6.172,6.172,6.172,6.172,6.172,6.172,6.172,6.172,6.172,6.172,6.172,6.172,6.172,6.172,6.172,6.172,6.172,6.172,6.172,7.7882,7.7101,7.7101,7.6594,7.5813,7.5813,7.4837,7.3197,0.0,0.0,0.0,6.7654,6.6717,6.5702,6.414,6.3282,6.2969,6.2267,6.1837,6.172,6.172,6.172,6.172,6.172,6.172,6.1681,6.0978,6.0627,6.0588,5.9885,5.9104,5.8324,5.8128,5.7543,5.6684,5.6606,5.6606,5.6606,5.6762,5.6879,5.6996,5.5357,5.4029,5.3171,5.0321,4.7666,4.5327,4.3698,4.2848,4.2851,4.2185,4.2449,4.3801,4.3762,4.3684,4.3684,4.3021,4.2942,4.3645,4.3021,4.2982,4.3879,4.4231,4.422,4.3902,4.4013,4.4465,4.5359,4.6222,4.7432,4.9111,5.0672,5.2038,5.3053,5.4576,5.5513,5.563,5.684,5.805,5.9026,5.9846,6.0744,6.1525,6.1681,6.172,6.172,6.172,6.172,6.172,6.1915,6.2032,6.1954,6.2501,6.2696,6.1954,6.172,6.172,6.172,6.172,6.172,6.172,6.172,6.172,6.172,6.172,6.172,6.172,6.172,6.172,6.172,6.172,6.172,6.172,6.172,6.172,7.7882,7.7101,7.7101,7.6594,7.5813,7.5813,7.4837,7.3236,7.2221,7.1245,7.027,6.9411,6.8161,6.66,6.5663,6.4414,6.3008,6.2891,6.2423,6.172,6.172,6.172,6.172,6.172,6.172,6.1681,6.1564,6.1525,6.1486,6.1369,6.09,6.0041,5.9261,5.8128,5.6723,5.6606,5.6606,5.6606,5.727,5.8011,5.8675,5.7113,5.5825,5.481,5.0945,4.7978,4.6183,4.5184,4.4646,4.4648,4.4528,4.456,4.4781,4.4153,4.3684,4.3684,4.3567,4.3567,4.3723,4.3567,4.3879,4.4777,4.6183,4.6413,4.5004,4.5473,4.6296,4.7159,4.7939,4.915,5.0828,5.1921,5.3171,5.4693,5.5786,5.6411,5.6411,5.7192,5.8089,5.8948,5.9885,6.0705,6.1447,6.1681,6.172,6.172,6.172,6.172,6.1798,6.2345,6.2423,6.1993,6.2462,6.2579,6.1915,6.172,6.172,6.172,6.172,6.172,6.172,6.172,6.172,6.172,6.172,6.172,6.172,6.172,6.172,6.172,6.172,6.172,6.172,6.172,6.172,7.8585,7.7765,7.7296,7.6867,7.6477,7.6008,7.511,7.39,7.308,7.1948,7.066,6.9801,6.8708,6.742,6.617,6.4921,6.3672,6.3204,6.254,6.1759,6.172,6.172,6.172,6.172,6.172,6.172,6.172,6.172,6.172,6.172,6.1252,6.0393,5.9534,5.8714,5.8011,5.7972,5.7972,5.7933,5.7426,5.7348,5.7699,5.6528,5.5474,5.4615,5.2117,5.036,4.9114,4.7801,4.7106,4.7109,4.621,4.5932,4.6381,4.6027,4.5831,4.5831,4.6222,4.6066,4.5168,4.5558,4.5987,4.6417,4.7549,4.7939,4.7159,4.7432,4.7822,4.8252,4.8993,5.0204,5.1921,5.2897,5.4108,5.5825,5.6372,5.6606,5.6684,5.7309,5.7933,5.8441,5.9573,6.0549,6.0939,6.1408,6.1681,6.172,6.172,6.172,6.172,6.2032,6.2189,6.1837,6.2071,6.211,6.1759,6.172,6.172,6.172,6.172,6.172,6.172,6.172,6.172,6.172,6.172,6.172,6.172,6.172,6.172,6.172,6.172,6.172,6.172,6.172,6.172,7.9366,7.835,7.7687,7.7296,7.7023,7.6164,7.5305,7.4447,7.3627,7.2417,7.0972,6.9879,6.902,6.8239,6.6639,6.5429,6.457,6.3906,6.3047,6.2071,6.1993,6.1993,6.1954,6.1798,6.1798,6.1954,6.1798,6.172,6.172,6.172,6.1252,6.0432,5.9729,5.93,5.9104,5.9104,5.9104,5.9026,5.7816,5.7153,5.7113,5.6294,5.5474,5.4615,5.3756,5.2897,5.1964,5.0532,4.9841,4.9922,4.8242,4.7576,4.8382,4.8102,4.79,4.7939,4.8486,4.8252,4.7042,4.7471,4.7861,4.79,4.8798,4.9384,4.9423,4.9774,4.9774,4.954,5.0008,5.118,5.2936,5.3639,5.4693,5.6333,5.6606,5.6606,5.6684,5.7309,5.7816,5.7972,5.9339,6.0393,6.051,6.0978,6.133,6.1369,6.1564,6.172,6.172,6.172,6.172,6.172,6.172,6.172,6.172,6.172,6.172,6.172,6.172,6.172,6.172,6.172,6.172,6.172,6.172,6.172,6.172,6.172,6.172,6.172,6.172,6.172,6.172,6.172,6.172,7.9912,7.8507,7.8311,7.7804,7.7023,7.6203,7.5345,7.4447,7.3627,7.2768,7.1714,7.0152,6.9372,6.9059,6.742,6.6209,6.5468,6.539,6.4453,6.3008,6.2891,6.2891,6.2813,6.211,6.211,6.2696,6.211,6.172,6.1759,6.172,6.1252,6.051,6.0315,5.9924,5.9222,5.9143,5.9143,5.9104,5.8948,5.887,5.8831,5.8011,5.7192,5.6372,5.5513,5.4654,5.3834,5.2836,5.2731,5.3281,5.1133,5.0195,5.0781,4.9637,4.8798,4.8837,4.8837,4.872,4.8603,4.8642,4.8759,4.8798,5.0282,5.118,5.1258,5.2585,5.278,5.1648,5.1258,5.239,5.4654,5.4459,5.481,5.6333,5.6606,5.6606,5.6684,5.7309,5.7816,5.7816,5.9222,6.0393,6.0315,6.051,6.0588,6.0666,6.1291,6.172,6.172,6.172,6.172,6.172,6.172,6.172,6.172,6.172,6.172,6.172,6.172,6.172,6.172,6.172,6.172,6.172,6.172,6.172,6.172,6.172,6.172,6.172,6.172,6.172,6.172,6.172,6.172,8.0263,7.9131,7.8624,7.7882,7.7101,7.6711,7.5774,7.4486,7.4173,7.3275,7.1948,7.0699,6.9879,6.9294,6.7576,6.6366,6.5624,6.5624,6.4921,6.3828,6.375,6.3789,6.3672,6.2852,6.293,6.3594,6.2384,6.1954,6.2306,6.1954,6.1525,6.1213,6.1174,6.0978,6.0666,6.0627,6.0666,6.0627,6.0627,6.0393,5.9846,5.9026,5.8441,5.8089,5.7699,5.7153,5.6337,5.5453,5.4917,5.4687,5.3281,5.2578,5.2926,5.2294,5.1698,5.1141,5.0126,4.9813,5.0321,5.0321,5.0789,5.1804,5.2507,5.3132,5.3639,5.3912,5.3873,5.3717,5.3249,5.3639,5.5044,5.4966,5.5279,5.6333,5.6606,5.6606,5.6606,5.6879,5.7231,5.7738,5.8402,5.9104,5.9573,6.008,6.0354,6.051,6.1134,6.1681,6.172,6.172,6.172,6.172,6.172,6.172,6.172,6.172,6.172,6.172,6.172,6.172,6.172,6.172,6.172,6.172,6.172,6.172,6.172,6.172,6.172,6.172,6.172,6.172,6.172,6.172,6.172,8.0693,7.96,7.8507,7.7687,7.7101,7.7101,7.6242,7.4915,7.4603,7.3666,7.23,7.1206,7.0348,6.9567,6.7927,6.6834,6.6327,6.6014,6.5468,6.4726,6.4648,6.4648,6.457,6.375,6.3828,6.4258,6.2891,6.2267,6.2579,6.2032,6.172,6.172,6.172,6.172,6.172,6.172,6.172,6.1681,6.172,6.1408,6.0744,6.0159,5.9612,5.9183,5.9104,5.8792,5.8246,5.764,5.687,5.6055,5.5194,5.4605,5.4362,5.413,5.3734,5.3053,5.1882,5.1531,5.239,5.2273,5.2858,5.442,5.4498,5.4732,5.5357,5.5083,5.5005,5.5435,5.5083,5.5005,5.5513,5.5435,5.5669,5.645,5.6606,5.6606,5.6606,5.6606,5.6918,5.766,5.8128,5.848,5.9378,6.0237,6.0744,6.0549,6.1134,6.172,6.172,6.172,6.172,6.172,6.172,6.172,6.172,6.172,6.172,6.172,6.172,6.172,6.172,6.172,6.172,6.172,6.172,6.172,6.172,6.172,6.172,6.172,6.172,6.172,6.172,6.172,6.1837,8.1239,7.9522,7.7882,7.7179,7.7101,7.7101,7.6555,7.5579,7.4876,7.4017,7.308,7.1519,7.0699,7.0582,6.8903,6.8044,6.7849,6.7146,6.6405,6.5663,6.5585,6.5585,6.5507,6.4648,6.4687,6.5351,6.375,6.2618,6.1954,6.1759,6.172,6.172,6.172,6.172,6.172,6.172,6.172,6.172,6.172,6.1642,6.1603,6.1564,6.0705,5.9417,5.9143,5.9183,5.9026,5.9006,5.859,5.7773,5.6903,5.6103,5.5279,5.4476,5.4086,5.3916,5.3834,5.4147,5.4732,5.4225,5.4576,5.602,5.5669,5.563,5.6411,5.6333,5.6294,5.6489,5.6333,5.6372,5.6372,5.5825,5.5747,5.6489,5.6606,5.6606,5.6606,5.6606,5.6957,5.7777,5.848,5.9104,6.008,6.1095,6.0939,6.0666,6.1095,6.1681,6.172,6.172,6.172,6.172,6.172,6.172,6.172,6.172,6.172,6.172,6.172,6.172,6.172,6.172,6.172,6.172,6.172,6.172,6.172,6.172,6.172,6.172,6.172,6.172,6.172,6.172,6.1837,8.0459,7.878,7.7609,7.7101,7.7101,7.7101,7.6594,7.5813,7.5462,7.4876,7.3978,7.2846,7.2378,7.23,7.0543,6.945,6.8942,6.8591,6.8005,6.7264,6.7185,6.6912,6.6288,6.5546,6.5585,6.6014,6.4648,6.3672,6.336,6.2813,6.254,6.2423,6.1954,6.172,6.172,6.172,6.172,6.172,6.172,6.172,6.172,6.172,6.1369,6.0822,6.0744,6.051,5.992,5.9944,5.9292,5.7969,5.7603,5.7035,5.6255,5.5829,5.5404,5.4888,5.4849,5.4966,5.5201,5.5005,5.5552,5.7074,5.6606,5.6489,5.7074,5.6918,5.6606,5.6606,5.6606,5.6606,5.6567,5.6294,5.6255,5.6528,5.6606,5.6645,5.6606,5.6645,5.7113,5.8324,5.8948,5.9026,5.9143,5.9534,5.9885,5.9768,6.0783,6.1564,6.172,6.172,6.172,6.172,6.172,6.172,6.172,6.172,6.172,6.172,6.172,6.172,6.172,6.172,6.172,6.172,6.172,6.172,6.172,6.172,6.172,6.172,6.172,6.172,6.172,6.172,6.1837,7.9912,7.8741,7.757,7.7101,7.7101,7.7101,7.675,7.6203,7.593,7.5462,7.4798,7.3783,7.3432,7.3354,7.187,7.1011,7.0543,6.984,6.9059,6.8513,6.8239,6.781,6.7146,6.6366,6.6249,6.6522,6.539,6.457,6.4258,6.3711,6.3438,6.336,6.254,6.211,6.2071,6.1837,6.172,6.172,6.172,6.172,6.172,6.172,6.172,6.172,6.172,6.1447,6.0861,6.0803,6.019,5.8945,5.8699,5.8176,5.7192,5.727,5.7035,5.6255,5.6411,5.6645,5.684,5.6684,5.727,5.8753,5.7777,5.7426,5.8402,5.7621,5.7074,5.6996,5.727,5.7348,5.7113,5.7231,5.7309,5.7074,5.6996,5.7113,5.7348,5.7426,5.8089,5.9222,5.9846,5.9651,5.9261,5.969,6.0002,5.9924,6.1056,6.1642,6.172,6.172,6.172,6.172,6.172,6.172,6.172,6.172,6.172,6.172,6.172,6.172,6.172,6.172,6.172,6.172,6.172,6.172,6.172,6.172,6.172,6.172,6.172,6.172,6.172,6.172,6.2071,7.9678,7.9248,7.7804,7.7101,7.7101,7.7101,7.7101,7.6867,7.6203,7.5891,7.5618,7.4173,7.3939,7.4056,7.2768,7.2378,7.2456,7.0699,6.9606,6.9372,6.8669,6.8279,6.8044,6.7342,6.6912,6.6873,6.6014,6.5194,6.4531,6.4375,6.4297,6.414,6.3438,6.293,6.2969,6.2189,6.1759,6.1759,6.1759,6.1759,6.172,6.1837,6.1915,6.1837,6.1876,6.1915,6.1798,6.1662,6.1166,6.039,6.0229,5.9553,5.825,5.8519,5.8597,5.7972,5.848,5.9339,5.9885,5.9261,5.9378,6.0393,5.9143,5.8441,5.9378,5.8636,5.7816,5.7894,5.8402,5.8675,5.805,5.8402,5.8597,5.7972,5.7816,5.8128,5.8714,5.9065,5.9417,6.0198,6.0822,6.1564,6.1564,6.1213,6.1134,6.1213,6.1525,6.172,6.172,6.172,6.172,6.172,6.172,6.172,6.172,6.172,6.172,6.172,6.172,6.172,6.172,6.172,6.172,6.172,6.172,6.172,6.172,6.172,6.172,6.172,6.172,6.172,6.172,6.1876,6.2618,7.9014,7.7921,7.7335,7.7101,7.7101,7.7101,7.7101,7.7062,7.6789,7.6672,7.6477,7.5501,7.5188,7.4954,7.3666,7.3041,7.3158,7.1792,7.0894,7.0348,6.9996,6.9528,6.902,6.8708,6.8279,6.7654,6.6834,6.6288,6.5936,6.5429,6.5194,6.5038,6.4336,6.3594,6.3086,6.2696,6.2345,6.1837,6.2306,6.2345,6.1915,6.2891,6.3204,6.2735,6.3164,6.3477,6.3438,6.2326,6.1323,6.0508,6.0387,5.9865,5.9031,5.8944,5.8948,5.8792,5.8909,5.9183,5.9417,5.9339,5.9378,5.9729,5.9104,5.8987,5.9378,5.9065,5.8675,5.8714,5.8948,5.8948,5.8831,5.8909,5.9026,5.8753,5.8714,5.8792,5.9222,5.9651,6.008,6.0315,6.0666,6.0783,6.0861,6.0861,6.0978,6.1017,6.1369,6.172,6.172,6.172,6.172,6.172,6.172,6.172,6.172,6.172,6.172,6.172,6.172,6.172,6.172,6.172,6.172,6.172,6.172,6.172,6.172,6.172,6.172,6.172,6.172,6.172,6.1759,6.2228,6.2891,7.8858,7.7609,7.7218,7.7101,7.7101,7.7101,7.7101,7.7101,7.7101,7.7101,7.6867,7.5813,7.5501,7.5384,7.4056,7.351,7.3627,7.2885,7.2182,7.1558,7.0894,7.0387,6.984,6.9528,6.8942,6.8161,6.7537,6.7107,6.6756,6.6327,6.6053,6.5897,6.5194,6.4531,6.3945,6.3633,6.3164,6.2813,6.3204,6.3204,6.3008,6.375,6.4062,6.3633,6.4023,6.4297,6.4219,6.2904,6.2061,6.1835,6.1561,6.0808,5.9768,5.9881,5.9924,5.969,5.9885,6.008,6.008,6.0198,6.008,6.0041,5.9768,5.9807,5.9924,5.9846,5.9573,5.9612,5.9924,5.9924,5.969,5.9924,6.0041,6.0041,5.9768,5.9768,6.0002,6.051,6.0822,6.0939,6.0978,6.09,6.09,6.09,6.09,6.0978,6.133,6.172,6.172,6.172,6.172,6.172,6.172,6.172,6.172,6.172,6.172,6.172,6.172,6.172,6.172,6.172,6.172,6.172,6.172,6.172,6.172,6.172,6.172,6.172,6.172,6.172,6.1837,6.2423,6.3086,7.9209,7.8311,7.7492,7.7101,7.7101,7.7101,7.7101,7.7101,7.7101,7.7101,7.675,7.5657,7.5266,7.5462,7.4408,7.4056,7.433,7.3744,7.3354,7.2885,7.1948,7.1128,7.0738,7.0152,6.9411,6.8591,6.8396,6.7888,6.7264,6.699,6.6873,6.6795,6.6092,6.5585,6.5273,6.4726,6.4297,6.4101,6.4258,6.4297,6.4179,6.4492,6.4492,6.4414,6.4531,6.4648,6.457,6.3915,6.3578,6.3866,6.3047,6.2026,6.0948,6.1252,6.1174,6.0666,6.1291,6.1525,6.1681,6.1447,6.1447,6.1369,6.0861,6.0783,6.1252,6.0822,6.0471,6.051,6.1056,6.1213,6.0744,6.1017,6.1447,6.1525,6.0861,6.0822,6.1525,6.1603,6.1525,6.1603,6.1681,6.1681,6.1564,6.1603,6.1603,6.1603,6.1642,6.1681,6.172,6.172,6.172,6.172,6.172,6.172,6.172,6.172,6.172,6.172,6.172,6.172,6.172,6.172,6.172,6.172,6.172,6.172,6.172,6.172,6.172,6.172,6.172,6.172,6.2071,6.2618,6.336,7.9209,7.8311,7.7453,7.7101,7.7101,7.7101,7.7101,7.7101,7.7101,7.7101,7.6945,7.6633,7.6399,7.6594,7.5618,7.5266,7.5149,7.4564,7.4173,7.4134,7.3783,7.2729,7.187,7.1402,7.0816,7.0035,6.984,6.9567,6.8708,6.8044,6.7771,6.7732,6.6951,6.6209,6.5624,6.5468,6.4882,6.4492,6.4999,6.496,6.4648,6.5585,6.5819,6.5351,6.5819,6.6053,6.6136,6.5993,6.4563,6.2578,6.2849,6.2532,6.1584,6.169,6.1993,6.2228,6.1954,6.2032,6.2423,6.2071,6.1759,6.172,6.1447,6.1447,6.1642,6.1525,6.1369,6.1408,6.1603,6.1603,6.1447,6.1564,6.172,6.1681,6.1447,6.1408,6.1603,6.172,6.172,6.172,6.172,6.172,6.172,6.172,6.172,6.172,6.172,6.172,6.172,6.172,6.172,6.172,6.172,6.172,6.172,6.172,6.172,6.172,6.172,6.172,6.172,6.172,6.172,6.172,6.172,6.172,6.172,6.172,6.172,6.172,6.172,6.1759,6.2228,6.2774,6.3633,7.917,7.835,7.7453,7.7101,7.7101,7.7101,7.7101,7.7101,7.7101,7.7101,7.7023,7.6672,7.6555,7.6477,7.6008,7.5813,7.5735,7.5266,7.5071,7.4954,7.4603,7.3705,7.269,7.2221,7.1558,7.0777,7.0738,7.0152,6.9411,6.8864,6.8669,6.8591,6.8161,6.7654,6.7381,6.7185,6.6756,6.617,6.6405,6.6366,6.6053,6.6834,6.7303,6.7107,6.7342,6.7146,6.6488,6.6614,6.5654,6.3983,6.3827,6.3705,6.295,6.3174,6.3399,6.3594,6.336,6.3477,6.3282,6.2735,6.2306,6.2189,6.1993,6.1954,6.2071,6.1993,6.1759,6.2189,6.1954,6.1759,6.172,6.172,6.1876,6.2149,6.1915,6.172,6.172,6.172,6.172,6.172,6.172,6.172,6.172,6.172,6.172,6.172,6.172,6.172,6.172,6.172,6.172,6.172,6.172,6.172,6.172,6.172,6.172,6.172,6.172,6.172,6.172,6.172,6.172,6.172,6.172,6.172,6.172,6.172,6.172,6.172,6.172,6.1837,6.2228,6.3086,6.3945,7.9326,7.8468,7.7609,7.7179,7.7101,7.7101,7.7101,7.7101,7.7101,7.7101,7.6945,7.6281,7.6203,7.593,7.6164,7.5969,7.6008,7.5969,7.5969,7.5696,7.5188,7.429,7.3744,7.3158,7.2378,7.1636,7.1206,7.0894,7.0387,6.9918,6.9645,6.9489,6.9372,6.9333,6.8942,6.9137,6.8942,6.82,6.8005,6.8044,6.7927,6.8161,6.8513,6.9098,6.8747,6.781,6.6951,6.6839,6.6813,6.621,6.582,6.4992,6.4423,6.5043,6.5234,6.4765,6.4999,6.5038,6.457,6.375,6.3125,6.3047,6.2462,6.2267,6.2852,6.2618,6.2501,6.3086,6.2345,6.2032,6.1954,6.1915,6.2189,6.2657,6.2306,6.2071,6.1837,6.1759,6.172,6.172,6.172,6.172,6.172,6.172,6.172,6.172,6.172,6.172,6.172,6.172,6.172,6.172,6.172,6.172,6.172,6.172,6.172,6.172,6.172,6.172,6.172,6.172,6.172,6.172,6.172,6.172,6.172,6.172,6.172,6.172,6.172,6.1798,6.2032,6.3282,6.4297,8.0185,7.9366,7.8468,7.7726,7.714,7.7101,7.7101,7.7101,7.7101,7.7101,7.7023,7.6867,7.6789,7.6789,7.675,7.6828,7.675,7.675,7.6828,7.6711,7.593,7.5501,7.5227,7.4915,7.4447,7.3861,7.433,7.3822,7.2651,7.1675,7.1089,7.0543,7.0113,6.945,6.9567,6.9645,6.9372,6.9137,6.9137,6.9098,6.9098,6.9137,6.9528,7.023,7.0152,6.9606,6.8864,6.8747,6.9069,6.8839,6.7242,6.5762,6.5134,6.5516,6.6014,6.617,6.5858,6.5897,6.5897,6.4921,6.4023,6.3984,6.375,6.3828,6.3945,6.3789,6.375,6.3867,6.3243,6.2774,6.2735,6.2735,6.293,6.3164,6.3399,6.336,6.2813,6.2149,6.1837,6.1759,6.172,6.172,6.172,6.172,6.172,6.172,6.172,6.172,6.172,6.172,6.172,6.172,6.172,6.172,6.172,6.172,6.172,6.172,6.172,6.172,6.172,6.172,6.172,6.172,6.172,6.172,6.172,6.172,6.172,6.172,6.1798,6.2071,6.2579,6.3711,6.457,8.0732,8.0224,7.9366,7.8507,7.7765,7.7726,7.7453,7.714,7.7101,7.7101,7.7101,7.7101,7.7101,7.7101,7.7101,7.7062,7.7101,7.7101,7.7062,7.6984,7.6594,7.6438,7.6399,7.6281,7.5813,7.4798,7.4876,7.472,7.433,7.3666,7.3197,7.2963,7.1831,7.1441,7.1128,7.0777,7.0426,7.0074,6.9996,6.9996,6.9996,6.9996,7.0152,7.0738,7.1011,7.0894,7.0035,7.0426,7.0816,7.0743,6.9577,6.8215,6.7629,6.8049,6.8396,6.7927,6.7693,6.7264,6.7107,6.5936,6.4921,6.4882,6.457,6.4609,6.4609,6.457,6.4531,6.4609,6.4179,6.3594,6.3594,6.3633,6.3711,6.414,6.4258,6.4258,6.4023,6.3125,6.2306,6.2228,6.1954,6.1798,6.172,6.172,6.172,6.172,6.172,6.172,6.172,6.172,6.172,6.172,6.172,6.172,6.172,6.172,6.172,6.172,6.172,6.172,6.172,6.172,6.172,6.172,6.172,6.172,6.172,6.172,6.1798,6.1837,6.2032,6.2462,6.3164,6.4179,6.4882,8.1122,8.0927,8.0068,7.9287,7.8624,7.8429,7.8077,7.7609,7.7335,7.7531,7.7453,7.7375,7.7531,7.7531,7.7609,7.7531,7.7492,7.7101,7.714,7.7375,7.7101,7.6984,7.6945,7.6828,7.6399,7.4993,7.5423,7.5657,7.5696,7.5462,7.5345,7.5579,7.4408,7.3432,7.3236,7.2612,7.1714,7.1011,7.0894,7.0894,7.0894,7.0894,7.1011,7.1441,7.2339,7.2378,7.187,7.2026,7.25,7.2583,7.2592,7.2197,7.1875,7.1675,7.1558,6.9879,6.9723,6.9215,6.82,6.6951,6.6014,6.5819,6.5194,6.5116,6.5468,6.5312,6.5312,6.5273,6.5038,6.4492,6.4492,6.4492,6.4843,6.5234,6.4921,6.5038,6.5155,6.4219,6.3555,6.2813,6.2423,6.2149,6.1837,6.172,6.172,6.172,6.172,6.172,6.172,6.172,6.172,6.172,6.172,6.172,6.172,6.254,6.2423,6.1954,6.1915,6.1954,6.1954,6.2071,6.211,6.1759,6.172,6.1798,6.1993,6.2149,6.2189,6.211,6.2579,6.3321,6.4023,6.4726,6.5234,8.1669,8.0927,8.0068,7.96,7.9405,7.8741,7.878,7.9092,7.8429,7.8624,7.9053,7.8507,7.8585,7.9014,7.9248,7.9248,7.878,7.8038,7.7609,7.7843,7.7531,7.7218,7.7101,7.7062,7.6828,7.6984,7.7101,7.7257,7.714,7.7414,7.7023,7.6711,7.5774,7.4993,7.4212,7.351,7.269,7.2065,7.1948,7.1948,7.2026,7.2065,7.23,7.2924,7.4173,7.4486,7.4095,7.4056,7.4418,7.5138,7.5165,7.5116,7.4681,7.3861,7.2807,7.1831,7.1441,7.0816,6.9567,6.8357,6.7381,6.6795,6.6405,6.6327,6.6522,6.6444,6.6405,6.6288,6.5975,6.5429,6.539,6.5351,6.5429,6.5702,6.5975,6.6053,6.5702,6.5234,6.4492,6.3555,6.3047,6.2618,6.2423,6.2149,6.2032,6.1954,6.1798,6.1759,6.172,6.172,6.172,6.172,6.172,6.172,6.172,6.2891,6.3438,6.2579,6.2384,6.2501,6.254,6.2618,6.254,6.2423,6.2267,6.2306,6.2501,6.2735,6.3008,6.3204,6.375,6.4297,6.4804,6.5312,6.5819,8.2059,8.163,8.12,8.0771,8.0341,7.9951,7.9717,7.9639,7.9248,7.9287,7.9483,7.9287,7.9287,7.9639,7.9717,7.9717,7.9444,7.8975,7.8468,7.835,7.796,7.7492,7.7179,7.7101,7.7101,7.7296,7.7882,7.8194,7.7765,7.7609,7.7843,7.7531,7.6516,7.5579,7.5071,7.4369,7.3744,7.3315,7.3275,7.3471,7.3861,7.39,7.4212,7.4759,7.5735,7.6399,7.6711,7.7062,7.738,7.7781,7.7849,7.7609,7.7062,7.632,7.511,7.3666,7.2924,7.2417,7.1324,7.027,6.9098,6.8279,6.781,6.7498,6.7498,6.7459,6.7498,6.7381,6.7224,6.6678,6.6288,6.6249,6.6209,6.6288,6.66,6.6561,6.6327,6.6209,6.5429,6.4414,6.3984,6.3633,6.3282,6.2969,6.254,6.2228,6.1993,6.1915,6.1915,6.1954,6.2071,6.2071,6.2149,6.2345,6.2462,6.3399,6.4101,6.336,6.3086,6.3204,6.3243,6.3438,6.3477,6.3399,6.3243,6.3282,6.3321,6.3672,6.3984,6.4297,6.4687,6.5077,6.5468,6.5897,6.6327,8.2293,8.2293,8.2098,8.1747,8.1278,8.1044,8.0693,8.0263,8.0029,8.0107,8.0185,8.0068,8.0068,8.0185,8.0107,8.0068,8.0146,7.9951,7.9366,7.9053,7.8507,7.796,7.7531,7.714,7.7101,7.7218,7.7648,7.8233,7.8233,7.8116,7.8194,7.8116,7.7023,7.6203,7.5969,7.5188,7.4837,7.4525,7.4525,7.4915,7.5384,7.5696,7.5813,7.5969,7.6789,7.7648,7.8077,7.8819,7.9209,7.9405,7.9444,7.9287,7.878,7.8663,7.7609,7.5579,7.4408,7.3783,7.2924,7.2143,7.0738,6.9645,6.902,6.8669,6.8357,6.8357,6.8357,6.8357,6.8318,6.8083,6.7537,6.7185,6.7068,6.699,6.6912,6.6795,6.6717,6.66,6.6405,6.5663,6.5116,6.457,6.4101,6.375,6.3321,6.3243,6.3008,6.2891,6.2852,6.2735,6.2774,6.2696,6.2774,6.3047,6.3438,6.4023,6.4375,6.3984,6.4023,6.4258,6.4297,6.4336,6.4336,6.4414,6.4804,6.4843,6.4765,6.4648,6.4921,6.5194,6.5546,6.5819,6.6131,6.6288,6.6561,8.2293,8.2215,8.1474,8.1513,8.1903,8.1278,8.1396,8.1747,8.1044,8.1317,8.1591,8.1239,8.1239,8.1552,8.1083,8.1317,8.1317,8.0615,8.0146,8.0146,7.9131,7.8429,7.8077,7.7414,7.7296,7.7375,7.7453,7.7726,7.8233,7.8819,7.9131,7.8975,7.8194,7.7687,7.6711,7.6008,7.5266,7.4681,7.4603,7.4759,7.5032,7.5657,7.593,7.636,7.7335,7.8311,7.8702,7.9444,7.9912,7.9834,7.9795,7.9678,7.9561,7.9561,7.9053,7.7804,7.6438,7.4876,7.3822,7.3197,7.2378,7.1206,7.0465,6.9996,6.9528,6.9372,6.9372,6.9255,6.9255,6.9098,6.8708,6.8318,6.8044,6.7771,6.7498,6.7185,6.7029,6.7146,6.6912,6.6717,6.6131,6.5351,6.4726,6.4414,6.414,6.4101,6.4062,6.3906,6.3711,6.3516,6.3438,6.3399,6.3516,6.3789,6.414,6.4765,6.496,6.4648,6.496,6.5273,6.5234,6.5234,6.5351,6.5507,6.5975,6.617,6.5897,6.5819,6.5897,6.6014,6.6209,6.6405,6.6678,6.6834,6.699,8.1122,8.1591,8.1708,8.1356,8.0888,8.0927,8.12,8.1435,8.12,8.12,8.1591,8.1747,8.1981,8.2137,8.1864,8.1942,8.2059,8.1435,8.1044,8.081,7.9756,7.8897,7.839,7.8038,7.7843,7.796,7.8272,7.8468,7.8624,7.8272,7.8233,7.8272,7.7921,7.7453,7.7296,7.6789,7.636,7.6242,7.6438,7.6711,7.6789,7.7023,7.7257,7.7257,7.8468,7.8975,7.9366,8.0498,8.081,8.0732,8.081,8.0888,8.0576,8.0381,8.0029,7.917,7.8507,7.7218,7.5774,7.5032,7.4017,7.2924,7.2026,7.1011,7.0465,7.0543,7.0582,7.0152,7.0152,6.9996,6.9606,6.9059,6.8942,6.8669,6.8396,6.8239,6.7966,6.7615,6.7537,6.7342,6.7107,6.6327,6.5624,6.5273,6.5038,6.496,6.4687,6.4375,6.4219,6.4023,6.4023,6.4101,6.4297,6.4531,6.4921,6.539,6.5741,6.5702,6.5975,6.617,6.6092,6.6092,6.6366,6.66,6.6951,6.7029,6.6912,6.6756,6.6678,6.6717,6.6795,6.7029,6.7264,6.7498,6.7888,7.9951,8.042,8.1278,8.0888,7.9795,8.0381,8.081,8.1005,8.0732,8.0927,8.1396,8.1981,8.2293,8.2293,8.2254,8.2254,8.2293,8.2293,8.1942,8.12,8.0459,7.9717,7.9209,7.8858,7.8468,7.8702,7.878,7.9014,7.8702,7.8272,7.7999,7.7453,7.8077,7.7921,7.7765,7.757,7.7335,7.7375,7.7843,7.8116,7.8194,7.8233,7.8311,7.8585,7.917,7.9717,7.9951,8.1317,8.1786,8.1239,8.1708,8.1786,8.1396,8.1278,8.0888,8.0224,7.9756,7.9014,7.7648,7.6672,7.5891,7.4759,7.3666,7.2495,7.1987,7.2182,7.2182,7.148,7.1089,7.0816,7.0426,7.0152,6.9918,6.984,6.9606,6.9528,6.9333,6.8786,6.8396,6.8239,6.7927,6.742,6.6756,6.6249,6.5975,6.5819,6.5429,6.496,6.4843,6.4804,6.496,6.5155,6.5273,6.5507,6.5741,6.6092,6.6405,6.66,6.6873,6.7068,6.6951,6.7264,6.7654,6.7888,6.8005,6.8122,6.8122,6.7771,6.7459,6.7771,6.7966,6.7732,6.7849,6.8161,6.8708,7.9248,7.8663,7.9561,7.9834,7.9678,7.9756,8.0263,8.081,8.0146,8.0732,8.1864,8.2176,8.2098,8.2293,8.2293,8.2293,8.2293,8.2293,8.2176,8.1864,8.1356,8.0732,8.0146,7.9444,7.8975,7.9405,7.9561,7.9522,7.9483,7.9678,7.9014,7.8507,7.8858,7.9287,7.917,7.8546,7.8468,7.8429,7.8624,7.8624,7.8624,7.8585,7.8507,7.8663,7.9209,7.9717,7.9795,8.1396,8.1903,8.1122,8.1825,8.2293,8.202,8.1981,8.1552,8.1122,8.0927,8.0068,7.8858,7.7999,7.7218,7.6008,7.4837,7.3978,7.3393,7.3275,7.3158,7.2807,7.2182,7.23,7.2104,7.1831,7.1245,7.1128,7.0855,7.0348,7.0074,6.9606,6.9255,6.9137,6.8747,6.82,6.7927,6.7459,6.6639,6.6405,6.6327,6.5858,6.6014,6.6053,6.6209,6.6366,6.6444,6.6561,6.6639,6.6795,6.6756,6.7029,6.7381,6.7654,6.7771,6.8239,6.863,6.8864,6.8942,6.9137,6.9372,6.9215,6.9176,6.9215,6.9137,6.8708,6.8786,6.9137,6.9723,7.7921,7.7687,7.8546,7.8897,7.8936,7.9483,7.9873,8.0107,7.9873,8.0341,8.1474,8.1005,8.1317,8.2059,8.2293,8.2293,8.2293,8.2293,8.2293,8.202,8.1513,8.1083,8.0615,8.0459,8.0185,8.0459,8.0537,8.0498,8.0498,8.0888,8.0693,8.0302,7.9951,7.9678,7.9483,7.9483,7.9522,7.9678,7.9522,7.9405,7.9834,7.9405,7.9209,7.9248,8.0029,8.0146,8.0068,8.1435,8.1513,8.1474,8.1903,8.2176,8.2293,8.2293,8.2098,8.1786,8.1708,8.1044,7.9912,7.8936,7.7609,7.6242,7.5423,7.4954,7.433,7.39,7.3705,7.3354,7.308,7.3197,7.3627,7.3041,7.2456,7.2534,7.2182,7.1519,7.1011,7.066,7.027,7.0152,6.9567,6.8942,6.8786,6.8669,6.7771,6.699,6.6912,6.6873,6.7029,6.7107,6.7224,6.7146,6.7146,6.742,6.7498,6.7303,6.7029,6.7498,6.7966,6.8279,6.8591,6.8825,6.9215,6.9528,6.9879,7.0074,7.0348,7.0738,7.0621,7.0074,6.9762,6.9528,6.9762,7.0152,7.0621,7.7257,7.7531,7.8155,7.8233,7.8155,7.9209,7.9561,7.9326,7.9287,7.9795,8.0615,8.0459,8.1083,8.2059,8.2293,8.2293,8.2293,8.2293,8.2293,8.2098,8.1747,8.1396,8.1278,8.1122,8.0966,8.1396,8.1513,8.1474,8.1435,8.202,8.1786,8.1278,8.081,8.0654,8.0537,8.0263,8.042,8.0654,8.0576,8.0302,8.081,8.042,8.0107,8.0107,8.0654,8.0693,8.0654,8.1474,8.1747,8.1552,8.1747,8.2215,8.2293,8.2293,8.2293,8.2293,8.2215,8.1903,8.0849,7.9366,7.7921,7.6945,7.636,7.5618,7.4915,7.472,7.4642,7.429,7.3978,7.4017,7.472,7.4095,7.3861,7.3939,7.3588,7.3002,7.2534,7.2104,7.1597,7.1206,7.0621,7.0152,6.9567,6.9411,6.8864,6.8161,6.8122,6.8044,6.8044,6.8083,6.8005,6.7849,6.7615,6.7966,6.8279,6.7927,6.7732,6.8474,6.8864,6.9098,6.9372,6.9645,7.0074,7.0582,7.0894,7.105,7.1206,7.1402,7.105,7.0543,7.0426,7.0504,7.0738,7.1089,7.1285,7.757,7.835,7.8429,7.796,7.757,7.9014,7.9326,7.8897,7.8702,7.9092,8.0029,8.12,8.1981,8.2293,8.2293,8.2293,8.2293,8.2293,8.2293,8.2215,8.2137,8.2137,8.1903,8.163,8.1513,8.1903,8.1825,8.1786,8.2137,8.2215,8.2176,8.2176,8.1864,8.1864,8.2059,8.1356,8.1044,8.1005,8.1005,8.1044,8.1083,8.1044,8.1005,8.1044,8.1122,8.1122,8.1317,8.1747,8.1903,8.1552,8.1903,8.2254,8.2293,8.2293,8.2293,8.2293,8.2293,8.1903,8.1044,7.9366,7.8585,7.8194,7.7609,7.7062,7.6789,7.6438,7.5852,7.5579,7.5071,7.5071,7.5149,7.511,7.511,7.4993,7.4642,7.4212,7.3705,7.3119,7.2495,7.2026,7.187,7.1558,7.0738,7.0113,6.9762,6.9411,6.9372,6.9255,6.9059,6.8864,6.8669,6.8552,6.8279,6.8708,6.8981,6.8474,6.8435,6.9215,6.9723,6.984,7.0309,7.0777,7.1206,7.1675,7.1636,7.1519,7.1714,7.1948,7.1714,7.1597,7.1558,7.1636,7.187,7.1909,7.1948,7.7609,7.8468,7.9014,7.8741,7.8272,7.9834,8.0381,8.0068,7.9561,7.9444,7.9873,8.0966,8.1825,8.2137,8.2293,8.2293,8.2293,8.2293,8.2293,8.2293,8.2293,8.2293,8.2137,8.202,8.1981,8.2137,8.1942,8.1903,8.2254,8.2293,8.2293,8.2293,8.2293,8.2293,8.2254,8.1942,8.1864,8.1864,8.1864,8.1864,8.1825,8.1825,8.1825,8.1825,8.1786,8.1786,8.1786,8.2215,8.2059,8.1786,8.2254,8.2293,8.2293,8.2293,8.2293,8.2293,8.2293,8.2215,8.1669,8.0771,7.9912,7.9405,7.8897,7.8429,7.7999,7.835,7.7765,7.6945,7.6399,7.6399,7.6438,7.5852,7.5657,7.5618,7.5305,7.4876,7.4369,7.3705,7.308,7.2729,7.2534,7.2221,7.1597,7.105,7.066,7.0348,7.023,6.9801,6.9528,6.9333,6.9176,6.9176,6.9137,6.9567,6.9684,6.9294,6.9411,7.0113,7.0387,7.0426,7.0972,7.1558,7.1753,7.1831,7.1909,7.1987,7.2339,7.2612,7.2807,7.2768,7.2612,7.23,7.2182,7.2221,7.226,7.7609,7.8429,7.9014,7.9287,7.9522,8.0849,8.1317,8.0966,8.0381,8.0146,8.0341,8.1083,8.1747,8.2215,8.2293,8.2293,8.2293,8.2293,8.2293,8.2293,8.2293,8.2293,8.2293,8.2293,8.2215,8.2293,8.2293,8.2293,8.2293,8.2293,8.2293,8.2293,8.2293,8.2293,8.2293,8.2254,8.2254,8.2215,8.2176,8.2215,8.2215,8.2254,8.2254,8.2254,8.2254,8.2254,8.2293,8.2293,8.2293,8.2293,8.2293,8.2293,8.2293,8.2293,8.2293,8.2293,8.2293,8.2293,8.2059,8.1825,8.1083,8.0732,8.0185,7.9483,7.9014,7.9209,7.8936,7.8311,7.7804,7.757,7.7414,7.675,7.6594,7.6555,7.6399,7.6008,7.5266,7.4603,7.4212,7.3822,7.3549,7.308,7.2456,7.2065,7.1636,7.1363,7.105,7.0582,7.0191,7.0113,7.0074,7.0074,7.0074,7.0426,7.0504,7.027,7.0504,7.105,7.1089,7.105,7.1285,7.1792,7.1909,7.2104,7.2378,7.269,7.3041,7.3315,7.3588,7.3588,7.3432,7.3041,7.2573,7.2573,7.2729,7.7609,7.835,7.839,7.9366,8.081,8.1513,8.1552,8.0966,8.1005,8.0966,8.0927,8.1708,8.2215,8.2254,8.2293,8.2293,8.2293,8.2293,8.2293,8.2293,8.2293,8.2293,8.2293,8.2293,8.2293,8.2293,8.2293,8.2293,8.2293,8.2293,8.2293,8.2293,8.2293,8.2293,8.2293,8.2293,8.2293,8.2293,8.2293,8.2293,8.2293,8.2293,8.2293,8.2293,8.2293,8.2293,8.2293,8.2293,8.2293,8.2293,8.2293,8.2293,8.2293,8.2293,8.2293,8.2293,8.2293,8.2293,8.2293,8.2137,8.2137,8.1669,8.0771,8.0068,7.9951,8.0146,7.9951,7.9561,7.9053,7.8702,7.835,7.8155,7.7999,7.7921,7.7882,7.7257,7.6399,7.5852,7.554,7.5227,7.5032,7.4525,7.3471,7.2924,7.2612,7.2495,7.2221,7.1948,7.1558,7.1363,7.1324,7.1324,7.1324,7.1324,7.1324,7.1324,7.148,7.2026,7.1753,7.1675,7.187,7.2065,7.23,7.2612,7.3002,7.3354,7.3666,7.4056,7.4486,7.4447,7.4447,7.4017,7.3627,7.3393,7.3471,7.7609,7.839,7.839,7.8702,7.9248,8.0107,8.0302,8.0224,8.1278,8.1317,8.0146,8.1669,8.2293,8.2293,8.2293,8.2293,8.2293,8.2293,8.2293,8.2293,8.2293,8.2293,8.2293,8.2293,8.2293,8.2293,8.2293,8.2293,8.2293,8.2293,8.2293,8.2293,8.2293,8.2293,8.2293,8.2293,8.2293,8.2293,8.2293,8.2293,8.2293,8.2293,8.2293,8.2293,8.2293,8.2293,8.2293,8.2293,8.2293,8.2293,8.2293,8.2293,8.2293,8.2293,8.2293,8.2293,8.2293,8.2293,8.2293,8.2293,8.2293,8.2293,8.1669,8.1708,8.1552,8.1317,8.1122,8.0654,8.0185,7.9756,7.9444,7.9209,7.9014,7.8897,7.8741,7.8233,7.7375,7.6672,7.636,7.593,7.5774,7.5227,7.4251,7.3861,7.3588,7.3549,7.3393,7.308,7.2729,7.2456,7.226,7.2221,7.2534,7.2495,7.2612,7.2651,7.2729,7.2846,7.2612,7.2378,7.2378,7.2573,7.2807,7.3236,7.3783,7.4095,7.429,7.4759,7.5384,7.5696,7.5696,7.5188,7.472,7.4447,7.433,7.7414,7.7843,7.7882,7.8077,7.8507,7.9326,7.9522,7.9639,8.1396,8.1474,8.0459,8.1669,8.2293,8.2293,8.2293,8.2293,8.2293,8.2293,8.2293,8.2293,8.2293,8.2293,8.2293,8.2293,8.2293,8.2293,8.2293,8.2293,8.2293,8.2293,8.2293,8.2293,8.2293,8.2293,8.2293,8.2293,8.2293,8.2293,8.2293,8.2293,8.2293,8.2293,8.2293,8.2293,8.2293,8.2293,8.2293,8.2293,8.2293,8.2293,8.2293,8.2293,8.2293,8.2293,8.2606,8.2606,8.245,8.2371,8.2293,8.2293,8.2293,8.2293,8.2293,8.2254,8.2215,8.202,8.1825,8.1513,8.1122,8.0771,8.0459,8.0185,7.9912,7.9678,7.9444,7.917,7.8311,7.7453,7.6906,7.6399,7.6008,7.5579,7.511,7.4798,7.4447,7.4212,7.4056,7.39,7.351,7.308,7.2846,7.2729,7.3275,7.3666,7.3783,7.3783,7.3744,7.3705,7.3588,7.3354,7.3119,7.3315,7.3822,7.4251,7.472,7.5032,7.5345,7.5813,7.636,7.6555,7.6594,7.6203,7.5735,7.5345,7.5384,7.7101,7.714,7.7101,7.757,7.835,7.917,7.9092,7.8663,8.1005,8.1669,8.1083,8.1747,8.2176,8.2254,8.2293,8.2293,8.2293,8.2293,8.2293,8.2293,8.2293,8.2293,8.2293,8.2293,8.2293,8.2293,8.2293,8.2293,8.2293,8.2293,8.2293,8.2293,8.2293,8.2293,8.2293,8.2293,8.2293,8.2293,8.2293,8.2293,8.2293,8.2293,8.2293,8.2293,8.2293,8.2293,8.2293,8.2293,8.2293,8.2293,8.2293,8.2293,8.2489,8.2528,8.2918,8.3113,8.2918,8.2684,8.2528,8.245,8.2332,8.2293,8.2293,8.2293,8.2293,8.2293,8.2098,8.202,8.163,8.1435,8.1161,8.1083,8.0927,8.0654,8.0341,7.999,7.9366,7.8624,7.8116,7.7609,7.7179,7.6711,7.636,7.6047,7.5579,7.5071,7.4681,7.4642,7.4447,7.3978,7.3666,7.351,7.4056,7.4603,7.4603,7.4603,7.4603,7.4564,7.4447,7.4212,7.3861,7.4251,7.4876,7.5345,7.5774,7.6203,7.6594,7.6789,7.6828,7.6867,7.6945,7.7023,7.6711,7.6242,7.6125,7.7101,7.7101,7.7101,7.7257,7.7492,7.835,7.8233,7.7648,8.0185,8.081,8.0302,8.0966,8.1747,8.2254,8.2293,8.2293,8.2293,8.2293,8.2293,8.2293,8.2293,8.2293,8.2293,8.2293,8.2293,8.2293,8.2293,8.2293,8.2293,8.2293,8.2293,8.2293,8.2293,8.2293,8.2293,8.2293,8.2293,8.2293,8.2293,8.2293,8.2293,8.2293,8.2293,8.2293,8.2293,8.2293,8.2293,8.2293,8.2293,8.2293,8.2293,8.2645,8.3191,8.3191,8.366,8.4128,8.3621,8.3191,8.2918,8.2645,8.2332,8.2293,8.2293,8.2293,8.2293,8.2293,8.2293,8.2215,8.2137,8.1981,8.1903,8.1864,8.1825,8.1513,8.1239,8.0771,8.0341,7.9834,7.9326,7.8858,7.839,7.8038,7.7648,7.7218,7.6711,7.6203,7.5696,7.5501,7.5579,7.5266,7.4837,7.472,7.5071,7.5423,7.5462,7.5462,7.5501,7.5305,7.511,7.4876,7.4642,7.5149,7.5735,7.636,7.6867,7.7179,7.7296,7.7101,7.714,7.7414,7.7296,7.7375,7.7296,7.6906,7.6828,7.6516,7.6555,7.6945,7.7101,7.7179,7.7648,7.7531,7.7453,7.8663,7.9444,7.9912,8.0966,8.1864,8.2293,8.2293,8.2293,8.2293,8.2293,8.2293,8.2293,8.2293,8.2293,8.2293,8.2293,8.2293,8.2293,8.2293,8.2293,8.2293,8.2293,8.2293,8.2293,8.2293,8.2293,8.2293,8.2293,8.2293,8.2293,8.2293,8.2293,8.2293,8.2293,8.2293,8.2293,8.2293,8.2293,8.2293,8.2293,8.2293,8.2293,8.2293,8.2762,8.323,8.3426,8.3933,8.4245,8.4011,8.3504,8.3308,8.2879,8.2371,8.2293,8.2293,8.2293,8.2293,8.2293,8.2293,8.2254,8.2254,8.2137,8.2137,8.2137,8.2137,8.1942,8.1747,8.1435,8.0966,8.0459,7.9912,7.9366,7.9248,7.9444,7.9053,7.8663,7.8233,7.8077,7.7492,7.6906,7.6867,7.6633,7.6203,7.5969,7.636,7.6399,7.636,7.636,7.636,7.6125,7.5774,7.593,7.5969,7.6203,7.6594,7.7257,7.7765,7.7999,7.7999,7.7921,7.8194,7.8624,7.8194,7.7765,7.7648,7.7648,7.7687,7.5696,7.5891,7.675,7.7101,7.7101,7.7101,7.7101,7.714,7.7296,7.8272,7.9756,8.1356,8.2098,8.2293,8.2293,8.2293,8.2293,8.2293,8.2293,8.2293,8.2293,8.2293,8.2293,8.2293,8.2293,8.2293,8.2293,8.2293,8.2293,8.2293,8.2293,8.2293,8.2293,8.2293,8.2293,8.2293,8.2293,8.2293,8.2293,8.2293,8.2293,8.2293,8.2293,8.2293,8.2293,8.2293,8.2293,8.2293,8.2293,8.2293,8.2371,8.2996,8.3543,8.3894,8.4597,8.4909,8.4441,8.4011,8.3582,8.2879,8.2489,8.2293,8.2293,8.2293,8.2293,8.2293,8.2293,8.2293,8.2293,8.2293,8.2293,8.2293,8.2293,8.2293,8.2137,8.202,8.1552,8.1161,8.0654,8.0068,8.0224,8.0498,8.0263,7.9912,7.9639,7.9522,7.9287,7.8858,7.8429,7.8077,7.7687,7.7531,7.7726,7.7648,7.7218,7.7062,7.6984,7.6789,7.6516,7.6945,7.7218,7.7257,7.757,7.8272,7.8702,7.8858,7.9053,7.9131,7.9444,7.96,7.8741,7.8116,7.8429,7.8468,7.8546,7.5149,7.5852,7.675,7.7101,7.7062,7.7101,7.7101,7.7218,7.7843,7.878,7.9678,8.0693,8.1552,8.2293,8.2293,8.2293,8.2293,8.2293,8.2293,8.2293,8.2293,8.2293,8.2293,8.2293,8.2293,8.2293,8.2293,8.2293,8.2293,8.2293,8.2293,8.2293,8.2293,8.2293,8.2293,8.2293,8.2293,8.2293,8.2293,8.2293,8.2293,8.2293,8.2293,8.2293,8.2293,8.2293,8.2293,8.2293,8.2293,8.2293,8.2371,8.3074,8.366,8.4245,8.4909,8.5221,8.4753,8.4362,8.3816,8.2918,8.245,8.2293,8.2293,8.2293,8.2293,8.2293,8.2293,8.2293,8.2293,8.2293,8.2293,8.2293,8.2293,8.2293,8.2215,8.2215,8.1981,8.1903,8.1708,8.1317,8.1122,8.1122,8.0888,8.0498,8.0029,7.9951,7.9834,7.9483,7.9405,7.9248,7.9053,7.8975,7.8936,7.8155,7.7414,7.7492,7.7414,7.7257,7.7296,7.7726,7.8038,7.8116,7.8546,7.9209,7.9444,7.9561,7.9795,8.0263,8.0068,7.999,7.8975,7.8468,7.8936,7.9248,7.9366]},{"header":{"parameterUnit":"m.s-1","parameterCategory":1,"la1":31.0,"la2":29.5877,"lo1":-88.7671,"lo2":-86.6584,"dy":0.0162,"dx":0.0185,"nx":115,"ny":88,"refTime":"2023-11-21T06:00:00:Z","depth":0,"parameterNumber":3,"parameterNumberName":"V-component_of_WINDS"},"data":[0.0,0.0,0.0,0.0,0.0,0.0,0.0,0.0,0.0,0.0,0.0,0.0,0.0,0.0,0.0,0.0,0.0,0.0,0.0,0.0,0.0,0.0,0.0,0.0,0.0,0.0,0.0,0.0,0.0,0.0,0.0,0.0,0.0,0.0,0.0,0.0,0.0,0.0,0.0,0.0,0.0,0.0,0.0,0.0,0.0,0.0,0.0,0.0,0.0,0.0,0.0,0.0,0.0,0.0,0.0,0.0,0.0,0.0,0.0,0.0,0.0,0.0,0.0,0.0,0.0,0.0,0.0,0.0,0.0,0.0,0.0,0.0,0.0,0.0,0.0,0.0,0.0,0.0,0.0,0.0,0.0,0.0,0.0,0.0,0.0,0.0,0.0,0.0,0.0,0.0,0.0,0.0,0.0,0.0,0.0,0.0,0.0,0.0,0.0,0.0,0.0,0.0,0.0,0.0,0.0,0.0,0.0,0.0,0.0,0.0,0.0,0.0,0.0,0.0,0.0,0.0,0.0,0.0,0.0,0.0,0.0,0.0,0.0,0.0,0.0,0.0,0.0,0.0,0.0,0.0,0.0,0.0,0.0,0.0,0.0,0.0,0.0,0.0,0.0,0.0,0.0,0.0,0.0,0.0,0.0,0.0,0.0,0.0,0.0,0.0,0.0,0.0,0.0,0.0,0.0,0.0,0.0,0.0,0.0,0.0,0.0,0.0,0.0,0.0,0.0,0.0,0.0,0.0,0.0,0.0,0.0,0.0,0.0,0.0,0.0,0.0,0.0,0.0,0.0,0.0,0.0,0.0,0.0,0.0,0.0,0.0,0.0,0.0,0.0,0.0,0.0,0.0,0.0,0.0,0.0,0.0,0.0,0.0,0.0,0.0,0.0,0.0,0.0,0.0,0.0,0.0,0.0,0.0,0.0,0.0,0.0,0.0,0.0,0.0,0.0,0.0,0.0,0.0,0.0,0.0,0.0,0.0,0.0,0.0,0.0,0.0,0.0,0.0,0.0,0.0,0.0,0.0,0.0,0.0,0.0,0.0,0.0,0.0,0.0,0.0,0.0,0.0,0.0,0.0,0.0,0.0,0.0,0.0,0.0,0.0,0.0,0.0,0.0,0.0,0.0,0.0,0.0,0.0,0.0,0.0,0.0,0.0,0.0,0.0,0.0,0.0,0.0,0.0,0.0,0.0,0.0,0.0,0.0,0.0,0.0,0.0,0.0,0.0,0.0,0.0,0.0,0.0,0.0,0.0,0.0,0.0,0.0,0.0,0.0,0.0,0.0,0.0,0.0,0.0,0.0,0.0,0.0,0.0,0.0,0.0,0.0,0.0,0.0,0.0,0.0,0.0,0.0,0.0,0.0,0.0,0.0,0.0,0.0,0.0,0.0,0.0,0.0,0.0,0.0,0.0,0.0,0.0,0.0,0.0,0.0,0.0,0.0,0.0,0.0,0.0,0.0,0.0,0.0,0.0,0.0,0.0,0.0,0.0,0.0,0.0,0.0,0.0,0.0,0.0,0.0,0.0,0.0,0.0,0.0,0.0,0.0,0.0,0.0,0.0,0.0,0.0,0.0,0.0,0.0,0.0,0.0,0.0,0.0,0.0,0.0,0.0,0.0,0.0,0.0,0.0,0.0,0.0,0.0,0.0,0.0,0.0,0.0,0.0,0.0,0.0,0.0,0.0,0.0,0.0,0.0,0.0,0.0,0.0,0.0,0.0,0.0,0.0,0.0,0.0,0.0,0.0,0.0,0.0,0.0,0.0,0.0,0.0,0.0,0.0,0.0,0.0,0.0,0.0,0.0,0.0,0.0,0.0,0.0,0.0,0.0,0.0,0.0,0.0,0.0,0.0,0.0,0.0,0.0,0.0,0.0,0.0,0.0,0.0,0.0,0.0,0.0,0.0,0.0,0.0,0.0,0.0,0.0,0.0,0.0,0.0,0.0,0.0,0.0,0.0,0.0,0.0,0.0,0.0,0.0,0.0,0.0,0.0,0.0,0.0,0.0,0.0,0.0,0.0,0.0,0.0,0.0,0.0,0.0,0.0,0.0,0.0,0.0,0.0,0.0,0.0,0.0,0.0,0.0,0.0,0.0,0.0,0.0,0.0,0.0,0.0,0.0,0.0,0.0,0.0,0.0,0.0,0.0,0.0,0.0,0.0,0.0,0.0,0.0,0.0,0.0,0.0,0.0,0.0,0.0,0.0,0.0,0.0,0.0,0.0,0.0,0.0,0.0,0.0,0.0,0.0,0.0,0.0,0.0,0.0,0.0,0.0,0.0,0.0,0.0,0.0,0.0,0.0,0.0,0.0,0.0,0.0,0.0,0.0,0.0,0.0,0.0,0.0,0.0,0.0,0.0,0.0,0.0,0.0,0.0,0.0,0.0,0.0,0.0,0.0,0.0,0.0,0.0,0.0,0.0,0.0,0.0,0.0,0.0,0.0,0.0,0.0,0.0,0.0,0.0,0.0,0.0,0.0,0.0,0.0,0.0,0.0,0.0,0.0,0.0,0.0,0.0,0.0,0.0,0.0,0.0,0.0,0.0,0.0,0.0,0.0,0.0,0.0,0.0,0.0,0.0,0.0,0.0,0.0,0.0,0.0,0.0,0.0,0.0,0.0,0.0,0.0,0.0,0.0,0.0,0.0,0.0,0.0,0.0,0.0,0.0,0.0,0.0,0.0,0.0,0.0,0.0,0.0,0.0,0.0,0.0,0.0,0.0,0.0,0.0,0.0,0.0,0.0,0.0,0.0,0.0,0.0,0.0,0.0,0.0,0.0,0.0,0.0,0.0,0.0,0.0,0.0,0.0,0.0,0.0,0.0,0.0,0.0,0.0,0.0,0.0,0.0,0.0,0.0,0.0,0.0,0.0,0.0,0.0,0.0,0.0,0.0,0.0,0.0,0.0,0.0,0.0,0.0,0.0,0.0,0.0,0.0,0.0,0.0,0.0,0.0,0.0,0.0,0.0,0.0,0.0,0.0,0.0,0.0,0.0,0.0,0.0,0.0,0.0,0.0,0.0,0.0,0.0,0.0,0.0,0.0,0.0,0.0,0.0,0.0,0.0,0.0,0.0,0.0,0.0,0.0,0.0,0.0,0.0,0.0,0.0,0.0,0.0,0.0,0.0,0.0,0.0,0.0,0.0,0.0,0.0,0.0,0.0,0.0,0.0,0.0,0.0,0.0,0.0,0.0,0.0,0.0,0.0,0.0,0.0,0.0,0.0,0.0,0.0,0.0,0.0,0.0,0.0,0.0,0.0,0.0,0.0,0.0,0.0,0.0,0.0,0.0,0.0,0.0,0.0,0.0,0.0,0.0,0.0,0.0,0.0,0.0,0.0,0.0,0.0,0.0,0.0,0.0,0.0,0.0,0.0,0.0,0.0,0.0,0.0,0.0,0.0,0.0,0.0,0.0,0.0,0.0,0.0,0.0,0.0,0.0,0.0,0.0,0.0,0.0,0.0,0.0,0.0,0.0,0.0,0.0,0.0,0.0,0.0,0.0,0.0,0.0,0.0,0.0,0.0,0.0,0.0,0.0,0.0,0.0,0.0,0.0,0.0,0.0,0.0,0.0,0.0,0.0,0.0,0.0,0.0,0.0,0.0,0.0,0.0,0.0,0.0,0.0,0.0,0.0,0.0,0.0,0.0,0.0,0.0,0.0,0.0,0.0,0.0,0.0,0.0,0.0,0.0,0.0,0.0,0.0,0.0,0.0,0.0,0.0,0.0,0.0,0.0,0.0,0.0,0.0,0.0,0.0,0.0,0.0,0.0,0.0,0.0,0.0,0.0,0.0,0.0,0.0,0.0,0.0,0.0,0.0,0.0,0.0,0.0,0.0,0.0,0.0,0.0,0.0,0.0,0.0,0.0,0.0,0.0,0.0,0.0,0.0,0.0,0.0,0.0,0.0,0.0,0.0,0.0,0.0,0.0,0.0,0.0,0.0,0.0,0.0,0.0,0.0,0.0,0.0,0.0,0.0,0.0,0.0,0.0,0.0,0.0,0.0,0.0,0.0,0.0,0.0,0.0,0.0,0.0,0.0,0.0,0.0,0.0,0.0,0.0,0.0,0.0,0.0,0.0,0.0,0.0,0.0,0.0,0.0,0.0,0.0,0.0,0.0,0.0,0.0,0.0,0.0,0.0,0.0,0.0,0.0,0.0,0.0,0.0,0.0,0.0,0.0,0.0,0.0,0.0,0.0,0.0,0.0,0.0,0.0,0.0,0.0,0.0,0.0,0.0,0.0,0.0,0.0,0.0,0.0,-0.4484,0.0,0.0,0.0,0.0,0.0,0.0,0.0,0.0,0.0,0.0,0.0,0.0,0.0,0.0,0.0,0.0,0.0,0.0,0.0,0.0,0.0,0.0,0.0,0.0,0.0,0.0,0.0,0.0,0.0,0.0,0.0,0.0,0.0,0.0,0.0,0.0,0.0,0.0,0.0,0.0,0.0,0.0,0.0,0.0,0.0,0.0,0.0,0.0,0.0,0.0,0.0,0.0,0.0,0.0,0.0,0.0,0.0,0.0,0.0,0.0,0.0,0.0,0.0,0.0,0.0,0.0,0.0,0.0,0.0,0.0,0.0,0.0,0.0,0.0,0.0,0.0,0.0,0.0,0.0,0.0,0.0,0.0,0.0,0.0,0.0,0.0,0.0,0.0,0.0,0.0,0.0,0.0,0.0,0.0,0.0,0.0,0.0,0.0,0.0,0.0,0.0,0.0,0.0,0.0,0.0,0.0,0.0,0.0,0.0,0.0,-0.4959,-0.4629,-0.4691,-0.4691,-0.4629,0.0,0.0,0.0,0.0,0.0,0.0,0.0,0.0,0.0,0.0,0.0,0.0,0.0,0.0,0.0,0.0,0.0,0.0,0.0,0.0,0.0,0.0,0.0,0.0,0.0,0.0,0.0,0.0,0.0,0.0,0.0,0.0,0.0,0.0,0.0,0.0,0.0,0.0,0.0,0.0,0.0,0.0,0.0,0.0,0.0,0.0,0.0,0.0,0.0,0.0,0.0,0.0,0.0,0.0,0.0,0.0,0.0,0.0,0.0,0.0,0.0,0.0,0.0,0.0,0.0,0.0,0.0,0.0,0.0,0.0,0.0,0.0,0.0,0.0,0.0,0.0,0.0,0.0,0.0,0.0,0.0,0.0,0.0,0.0,0.0,0.0,0.0,0.0,0.0,0.0,0.0,0.0,0.0,0.0,0.0,0.0,0.0,0.0,0.0,0.0,0.0,0.0,0.0,0.0,0.0,0.0,0.0,0.0,0.0,0.0,0.0,0.0,-0.4714,-0.4656,-0.4656,0.0,0.0,0.0,0.0,0.0,0.0,0.0,0.0,0.0,0.0,0.0,0.0,0.0,0.0,0.0,0.0,0.0,0.0,0.0,0.0,0.0,0.0,0.0,0.0,0.0,0.0,0.0,0.0,0.0,0.0,0.0,0.0,0.0,0.0,0.0,0.0,0.0,0.0,0.0,0.0,0.0,0.0,0.0,0.0,0.0,0.0,0.0,0.0,0.0,0.0,0.0,0.0,0.0,0.0,0.0,0.0,0.0,0.0,0.0,0.0,0.0,0.0,0.0,0.0,0.0,0.0,0.0,0.0,0.0,0.0,0.0,0.0,0.0,0.0,0.0,0.0,0.0,0.0,0.0,0.0,0.0,0.0,0.0,0.0,0.0,0.0,0.0,0.0,0.0,0.0,0.0,0.0,0.0,0.0,0.0,0.0,0.0,0.0,0.0,0.0,0.0,0.0,0.0,0.0,0.0,0.0,0.0,0.0,0.0,0.0,-0.5114,-0.5467,-0.4851,0.0,-0.4569,0.0,0.0,0.0,0.0,0.0,0.0,0.0,0.0,0.0,0.0,0.0,0.0,0.0,0.0,0.0,0.0,0.0,0.0,0.0,0.0,0.0,0.0,0.0,0.0,0.0,0.0,0.0,0.0,0.0,0.0,0.0,0.0,0.0,0.0,0.0,0.0,0.0,0.0,0.0,0.0,0.0,0.0,0.0,0.0,0.0,0.0,0.0,0.0,0.0,0.0,0.0,0.0,0.0,0.0,0.0,0.0,0.0,0.0,0.0,0.0,0.0,0.0,0.0,0.0,0.0,0.0,0.0,0.0,0.0,0.0,0.0,0.0,0.0,0.0,0.0,0.0,0.0,0.0,0.0,0.0,0.0,0.0,0.0,0.0,0.0,0.0,0.0,0.0,0.0,0.0,0.0,0.0,0.0,0.0,0.0,0.0,0.0,0.0,0.0,0.0,0.0,0.0,0.0,0.0,0.0,0.0,0.0,0.0,0.0,0.0,-0.541,-0.5576,-0.5306,-0.5086,0.0,0.0,0.0,0.0,0.0,0.0,0.0,0.0,0.0,0.0,0.0,0.0,0.0,0.0,0.0,0.0,0.0,0.0,0.0,0.0,0.0,0.0,0.0,0.0,0.0,0.0,0.0,0.0,0.0,0.0,0.0,0.0,0.0,0.0,0.0,0.0,0.0,0.0,0.0,0.0,0.0,0.0,0.0,0.0,0.0,0.0,0.0,0.0,0.0,0.0,0.0,0.0,0.0,0.0,0.0,0.0,0.0,0.0,0.0,0.0,0.0,0.0,0.0,0.0,0.0,0.0,0.0,0.0,0.0,0.0,0.0,0.0,0.0,0.0,0.0,0.0,0.0,0.0,0.0,0.0,0.0,0.0,0.0,0.0,0.0,0.0,0.0,0.0,0.0,0.0,0.0,0.0,0.0,0.0,0.0,0.0,0.0,0.0,0.0,0.0,0.0,0.0,0.0,0.0,0.0,0.0,0.0,0.0,0.0,0.0,-0.5683,-0.5726,-0.5768,-0.5721,-0.5583,-0.5259,0.0,0.0,0.0,0.0,0.0,0.0,0.0,0.0,0.0,0.0,0.0,0.0,0.0,0.0,0.0,0.0,0.0,0.0,0.0,0.0,0.0,0.0,0.0,0.0,0.0,0.0,0.0,0.0,0.0,0.0,0.0,0.0,0.0,0.0,0.0,0.0,0.0,0.0,0.0,0.0,0.0,0.0,0.0,0.0,0.0,0.0,0.0,0.0,0.0,0.0,0.0,0.0,0.0,0.0,0.0,0.0,0.0,0.0,0.0,0.0,0.0,0.0,0.0,0.0,0.0,0.0,0.0,0.0,0.0,0.0,0.0,0.0,0.0,0.0,0.0,0.0,0.0,0.0,0.0,0.0,0.0,0.0,0.0,0.0,0.0,0.0,0.0,0.0,0.0,0.0,0.0,0.0,0.0,0.0,0.0,0.0,0.0,0.0,0.0,0.0,0.0,0.0,0.0,0.0,0.0,0.0,0.0,0.0,-0.69,-0.6343,-0.6043,-0.6285,-0.6067,-0.5628,0.0,0.0,0.0,0.0,0.0,0.0,0.0,0.0,0.0,0.0,0.0,0.0,0.0,0.0,0.0,0.0,0.0,0.0,0.0,0.0,0.0,0.0,0.0,0.0,0.0,0.0,0.0,0.0,0.0,0.0,0.0,0.0,0.0,0.0,0.0,0.0,0.0,0.0,0.0,0.0,0.0,0.0,0.0,0.0,0.0,0.0,0.0,0.0,0.0,0.0,0.0,0.0,0.0,0.0,0.0,0.0,0.0,0.0,0.0,0.0,0.0,0.0,0.0,0.0,0.0,0.0,0.0,0.0,0.0,0.0,0.0,0.0,0.0,0.0,0.0,0.0,0.0,0.0,0.0,0.0,0.0,0.0,0.0,0.0,0.0,0.0,0.0,0.0,0.0,0.0,0.0,0.0,0.0,0.0,0.0,0.0,0.0,0.0,0.0,0.0,0.0,0.0,0.0,0.0,0.0,0.0,0.0,0.0,0.0,-0.6293,-0.6216,-0.6331,-0.6616,-0.6185,-0.5774,0.0,0.0,0.0,0.0,0.0,0.0,0.0,0.0,0.0,0.0,0.0,0.0,0.0,0.0,0.0,0.0,0.0,0.0,0.0,0.0,0.0,0.0,0.0,0.0,0.0,0.0,0.0,0.0,0.0,0.0,0.0,0.0,0.0,0.0,0.0,0.0,0.0,0.0,0.0,0.0,0.0,0.0,0.0,0.0,0.0,0.0,0.0,0.0,0.0,0.0,0.0,0.0,0.0,0.0,0.0,0.0,0.0,0.0,0.0,0.0,0.0,0.0,0.0,0.0,0.0,0.0,0.0,0.0,0.0,0.0,0.0,0.0,0.0,0.0,0.0,0.0,0.0,0.0,0.0,0.0,0.0,0.0,0.0,0.0,0.0,0.0,0.0,0.0,0.0,0.0,0.0,0.0,0.0,0.0,0.0,0.0,0.0,0.0,0.0,0.0,0.0,0.0,0.0,0.0,0.0,0.0,0.0,0.0,0.0,-0.6333,0.0,-0.6743,-0.6806,-0.6437,-0.5962,0.0,0.0,0.0,0.0,0.0,0.0,0.0,0.0,0.0,0.0,0.0,0.0,0.0,0.0,0.0,0.0,0.0,0.0,0.0,0.0,0.0,0.0,0.0,0.0,0.0,0.0,0.0,0.0,0.0,0.0,0.0,0.0,0.0,0.0,0.0,0.0,0.0,0.0,0.0,0.0,0.0,0.0,0.0,0.0,0.0,0.0,0.0,0.0,0.0,0.0,0.0,0.0,0.0,0.0,0.0,0.0,0.0,0.0,0.0,0.0,0.0,0.0,0.0,0.0,0.0,0.0,0.0,0.0,0.0,0.0,0.0,0.0,0.0,0.0,0.0,0.0,0.0,0.0,0.0,0.0,0.0,0.0,0.0,0.0,0.0,0.0,0.0,0.0,0.0,0.0,0.0,0.0,0.0,0.0,0.0,0.0,0.0,0.0,0.0,0.0,0.0,0.0,0.0,0.0,0.0,0.0,0.0,0.0,-0.6105,-0.7111,-0.7403,-0.7319,-0.6946,-0.6614,-0.6051,0.0,0.0,0.0,0.0,0.0,0.0,0.0,0.0,0.0,0.0,0.0,0.0,0.0,0.0,0.0,0.0,0.0,0.0,0.0,0.0,0.0,0.0,0.0,0.0,0.0,0.0,0.0,0.0,0.0,0.0,0.0,0.0,0.0,0.0,0.0,0.0,0.0,0.0,0.0,0.0,0.0,0.0,0.0,0.0,0.0,0.0,0.0,0.0,0.0,0.0,0.0,0.0,0.0,0.0,0.0,0.0,0.0,0.0,0.0,0.0,0.0,0.0,0.0,0.0,0.0,0.0,0.0,0.0,0.0,0.0,0.0,0.0,0.0,0.0,0.0,0.0,0.0,0.0,0.0,0.0,0.0,0.0,0.0,0.0,0.0,0.0,0.0,0.0,0.0,0.0,0.0,0.0,0.0,0.0,0.0,0.0,0.0,0.0,0.0,0.0,0.0,0.0,0.0,0.0,0.0,0.0,0.0,0.0,0.0,-0.6463,-0.6941,-0.7285,-0.7346,-0.6003,-0.5588,0.0,0.0,0.0,0.0,0.0,0.0,0.0,0.0,0.0,0.0,0.0,0.0,0.0,0.0,0.0,0.0,0.0,0.0,0.0,0.0,0.0,0.0,0.0,0.0,0.0,0.0,0.0,0.0,0.0,0.0,0.0,0.0,0.0,0.0,0.0,0.0,0.0,0.0,0.0,0.0,0.0,0.0,0.0,0.0,0.0,0.0,0.0,0.0,0.0,0.0,0.0,0.0,0.0,0.0,0.0,0.0,0.0,0.0,0.0,0.0,0.0,0.0,0.0,0.0,0.0,0.0,0.0,0.0,0.0,0.0,0.0,0.0,0.0,0.0,0.0,0.0,0.0,0.0,0.0,0.0,0.0,0.0,0.0,0.0,0.0,0.0,0.0,0.0,0.0,0.0,0.0,0.0,0.0,0.0,0.0,0.0,0.0,0.0,0.0,0.0,0.0,0.0,0.0,0.0,0.0,0.0,0.0,0.0,0.0,-0.604,-0.653,-0.6875,-0.7114,-0.5404,-0.493,-0.5916,0.0,0.0,0.0,0.0,0.0,0.0,0.0,0.0,0.0,0.0,0.0,0.0,0.0,0.0,0.0,0.0,0.0,0.0,0.0,0.0,0.0,0.0,0.0,0.0,0.0,0.0,0.0,0.0,0.0,0.0,0.0,0.0,0.0,0.0,0.0,0.0,0.0,0.0,0.0,0.0,0.0,0.0,0.0,0.0,0.0,0.0,0.0,0.0,0.0,0.0,0.0,0.0,0.0,0.0,0.0,0.0,0.0,0.0,0.0,0.0,0.0,0.0,0.0,0.0,0.0,0.0,0.0,0.0,0.0,0.0,0.0,0.0,0.0,0.0,0.0,0.0,0.0,0.0,0.0,0.0,0.0,0.0,0.0,0.0,0.0,0.0,0.0,0.0,0.0,0.0,0.0,0.0,0.0,0.0,0.0,0.0,0.0,0.0,0.0,0.0,0.0,0.0,0.0,0.0,0.0,0.0,0.0,0.0,-0.5851,-0.6192,-0.6323,-0.6096,-0.478,-0.4143,0.0,0.0,0.0,0.0,0.0,0.0,0.0,0.0,0.0,0.0,0.0,0.0,0.0,0.0,0.0,0.0,0.0,0.0,0.0,0.0,0.0,0.0,0.0,0.0,0.0,0.0,0.0,0.0,0.0,0.0,0.0,0.0,0.0,0.0,0.0,0.0,0.0,0.0,0.0,0.0,0.0,0.0,0.0,0.0,0.0,0.0,0.0,0.0,0.0,0.0,0.0,0.0,0.0,0.0,0.0,0.0,0.0,0.0,0.0,0.0,0.0,0.0,0.0,0.0,0.0,0.0,0.0,0.0,0.0,0.0,0.0,0.0,0.0,0.0,0.0,0.0,0.0,0.0,0.0,0.0,0.0,0.0,0.0,0.0,0.0,0.0,0.0,0.0,0.0,0.0,0.0,0.0,0.0,0.0,0.0,0.0,0.0,0.0,0.0,0.0,0.0,0.0,0.0,0.0,0.0,0.0,0.0,0.0,0.0,-0.6182,-0.6018,-0.5793,-0.5556,-0.4072,-0.3609,0.0,0.0,0.0,0.0,0.0,0.0,0.0,0.0,0.0,0.0,0.0,0.0,0.0,0.0,0.0,0.0,0.0,0.0,0.0,0.0,0.0,0.0,0.0,0.0,0.0,0.0,0.0,0.0,0.0,0.0,0.0,0.0,0.0,0.0,0.0,0.0,0.0,0.0,0.0,0.0,0.0,0.0,0.0,0.0,0.0,0.0,0.0,0.0,0.0,0.0,0.0,0.0,0.0,0.0,0.0,0.0,0.0,0.0,0.0,0.0,0.0,0.0,0.0,0.0,0.0,0.0,0.0,0.0,0.0,0.0,0.0,0.0,0.0,0.0,0.0,0.0,0.0,0.0,0.0,0.0,0.0,0.0,0.0,0.0,0.0,0.0,0.0,0.0,0.0,0.0,0.0,0.0,0.0,0.0,0.0,0.0,0.0,0.0,0.0,0.0,0.0,0.0,0.0,0.0,0.0,0.0,0.0,0.0,-0.7261,-0.5792,-0.597,-0.5537,-0.4023,-0.3059,-0.289,0.0,0.0,0.0,0.0,0.0,0.0,0.0,0.0,0.0,0.0,0.0,0.0,0.0,0.0,0.0,0.0,0.0,0.0,0.0,0.0,0.0,0.0,0.0,0.0,0.0,0.0,0.0,0.0,0.0,0.0,0.0,0.0,0.0,0.0,0.0,0.0,0.0,0.0,0.0,0.0,0.0,0.0,0.0,0.0,0.0,0.0,0.0,0.0,0.0,0.0,0.0,0.0,0.0,0.0,0.0,0.0,0.0,0.0,0.0,0.0,0.0,0.0,0.0,0.0,0.0,0.0,0.0,0.0,0.0,0.0,0.0,0.0,0.0,0.0,0.0,0.0,0.0,0.0,0.0,0.0,0.0,0.0,0.0,0.0,0.0,0.0,0.0,0.0,0.0,0.0,0.0,0.0,0.0,0.0,0.0,0.0,0.0,0.0,0.0,0.0,0.0,0.0,0.0,0.0,0.0,0.0,0.0,0.0,-0.7421,-0.5157,-0.6164,-0.5285,-0.2426,-0.2054,-0.2096,0.0,0.0,0.0,0.0,0.0,0.0,0.0,0.0,0.0,0.0,0.0,0.0,0.0,0.0,0.0,0.0,0.0,0.0,0.0,0.0,0.0,0.0,0.0,0.0,0.0,0.0,0.0,0.0,0.0,0.0,0.0,0.0,0.0,0.0,0.0,0.0,0.0,0.0,0.0,0.0,0.0,0.0,0.0,0.0,0.0,0.0,0.0,0.0,0.0,0.0,0.0,0.0,0.0,0.0,0.0,0.0,0.0,0.0,0.0,0.0,0.0,0.0,0.0,0.0,0.0,0.0,0.0,0.0,0.0,0.0,0.0,0.0,0.0,0.0,0.0,0.0,0.0,0.0,0.0,0.0,0.0,0.0,0.0,0.0,0.0,0.0,0.0,0.0,0.0,0.0,0.0,0.0,0.0,0.0,0.0,0.0,0.0,0.0,0.0,0.0,0.0,0.0,0.0,0.0,0.0,0.0,0.0,0.0,-0.7578,-0.5365,-0.6256,-0.5336,-0.2433,-0.2034,-0.1905,0.0,0.0,0.0,0.0,0.0,0.0,0.0,0.0,0.0,0.0,0.0,0.0,0.0,0.0,0.0,0.0,0.0,0.0,0.0,0.0,0.0,0.0,0.0,0.0,0.0,0.0,0.0,0.0,0.0,0.0,0.0,0.0,0.0,0.0,0.0,0.0,0.0,0.0,0.0,0.0,0.0,0.0,0.0,0.0,0.0,0.0,0.0,0.0,-0.6278,0.0,0.0,0.0,0.0,0.0,0.0,0.0,0.0,0.0,0.0,0.0,0.0,0.0,0.0,0.0,0.0,0.0,0.0,0.0,0.0,0.0,0.0,0.0,0.0,0.0,0.0,0.0,0.0,0.0,0.0,0.0,0.0,0.0,0.0,0.0,0.0,0.0,0.0,0.0,0.0,0.0,0.0,0.0,0.0,0.0,0.0,0.0,0.0,0.0,0.0,0.0,0.0,0.0,0.0,0.0,0.0,0.0,0.0,0.0,-0.792,-0.5686,-0.6417,-0.5446,-0.2471,-0.211,-0.1866,0.0,0.0,0.0,0.0,0.0,0.0,0.0,0.0,0.0,0.0,0.0,0.0,0.0,0.0,0.0,0.0,0.0,0.0,0.0,0.0,0.0,0.0,0.0,0.0,0.0,0.0,0.0,0.0,0.0,0.0,0.0,0.0,0.0,0.0,0.0,0.0,0.0,0.0,0.0,0.0,0.0,0.0,0.0,0.0,0.0,0.0,0.0,0.0,0.0,0.0,0.0,0.0,0.0,0.0,0.0,0.0,0.0,0.0,0.0,0.0,0.0,0.0,0.0,0.0,0.0,0.0,0.0,0.0,0.0,0.0,0.0,0.0,0.0,0.0,0.0,0.0,0.0,0.0,0.0,0.0,0.0,0.0,0.0,0.0,0.0,0.0,0.0,0.0,0.0,0.0,0.0,0.0,0.0,0.0,0.0,0.0,0.0,0.0,0.0,0.0,0.0,0.0,0.0,0.0,0.0,0.0,0.0,-0.873,-0.8033,-0.6047,-0.6443,-0.5403,-0.2525,-0.2203,-0.1947,-0.1607,0.0,0.0,0.0,0.0,0.0,0.0,0.0,0.0,0.0,0.0,0.0,0.0,0.0,0.0,0.0,0.0,0.0,0.0,0.0,0.0,0.0,0.0,0.0,0.0,0.0,0.0,0.0,0.0,0.0,0.0,0.0,0.0,0.0,0.0,0.0,0.0,0.0,0.0,-0.5742,-0.6262,0.0,0.0,0.0,0.0,0.0,0.0,0.0,0.0,-0.7139,0.0,0.0,0.0,0.0,0.0,0.0,0.0,0.0,0.0,0.0,0.0,0.0,0.0,0.0,0.0,0.0,0.0,0.0,0.0,0.0,0.0,0.0,0.0,0.0,0.0,0.0,0.0,0.0,0.0,0.0,0.0,0.0,0.0,0.0,0.0,0.0,0.0,0.0,0.0,0.0,0.0,0.0,0.0,0.0,0.0,0.0,0.0,0.0,0.0,0.0,0.0,0.0,0.0,0.0,0.0,0.0,-0.8896,-0.7778,-0.6917,-0.6352,-0.5471,-0.4209,-0.2523,-0.2203,-0.1975,-0.1696,0.0,0.0,0.0,0.0,0.0,0.0,0.0,0.0,0.0,0.0,0.0,0.0,0.0,0.0,0.0,0.0,0.0,0.0,0.0,0.0,0.0,0.0,0.0,0.0,0.0,0.0,0.0,0.0,0.0,0.0,0.0,0.0,0.0,0.0,0.0,0.0,0.0,0.0,0.0,-0.7106,-0.7569,0.0,0.0,0.0,0.0,0.0,0.0,0.0,0.0,-0.6968,0.0,0.0,0.0,0.0,0.0,0.0,0.0,0.0,0.0,0.0,0.0,0.0,0.0,0.0,0.0,0.0,0.0,0.0,0.0,0.0,0.0,0.0,0.0,0.0,0.0,0.0,0.0,0.0,0.0,0.0,0.0,0.0,0.0,0.0,0.0,0.0,0.0,0.0,0.0,0.0,0.0,0.0,0.0,0.0,0.0,0.0,0.0,0.0,0.0,0.0,0.0,0.0,0.0,0.0,0.0,-0.883,-0.7748,-0.6958,-0.6528,-0.5302,-0.4008,-0.2475,-0.2128,-0.1918,0.0,0.0,0.0,0.0,0.0,0.0,0.0,0.0,0.0,0.0,0.0,0.0,0.0,0.0,0.0,0.0,0.0,0.0,0.0,0.0,0.0,0.0,0.0,0.0,0.0,0.0,0.0,0.0,0.0,0.0,0.0,0.0,0.0,0.0,0.0,0.0,0.0,0.0,0.0,0.0,-0.762,-0.7907,-0.8162,0.0,0.0,0.0,0.0,0.0,0.0,-0.6954,-0.6497,0.0,0.0,0.0,0.0,0.0,0.0,0.0,0.0,0.0,0.0,0.0,0.0,0.0,0.0,0.0,0.0,0.0,0.0,0.0,0.0,0.0,0.0,0.0,0.0,0.0,0.0,0.0,0.0,0.0,0.0,0.0,0.0,0.0,0.0,0.0,0.0,0.0,0.0,0.0,0.0,0.0,0.0,0.0,0.0,0.0,0.0,0.0,0.0,0.0,0.0,0.0,0.0,0.0,0.0,0.0,-0.8751,-0.7525,-0.6832,-0.6528,-0.5122,-0.3673,-0.2297,-0.2071,-0.1874,0.0,0.0,0.0,0.0,0.0,0.0,0.0,0.0,0.0,0.0,0.0,0.0,0.0,0.0,0.0,0.0,0.0,0.0,0.0,0.0,0.0,0.0,0.0,0.0,0.0,0.0,0.0,0.0,0.0,0.0,0.0,0.0,0.0,0.0,0.0,0.0,0.0,0.0,0.0,0.0,0.0,-0.8271,-0.8488,-0.8224,0.0,0.0,0.0,0.0,-0.7835,-0.6892,0.0,0.0,0.0,0.0,0.0,0.0,0.0,0.0,0.0,0.0,0.0,0.0,0.0,0.0,0.0,0.0,0.0,0.0,0.0,0.0,0.0,0.0,0.0,0.0,0.0,0.0,0.0,0.0,0.0,0.0,0.0,0.0,0.0,0.0,0.0,0.0,0.0,0.0,0.0,0.0,0.0,0.0,0.0,0.0,0.0,0.0,0.0,0.0,0.0,0.0,0.0,0.0,0.0,0.0,0.0,0.0,-0.8635,-0.6417,-0.562,-0.6383,-0.3955,-0.2509,-0.2326,-0.212,-0.1925,0.0,0.0,0.0,0.0,0.0,0.0,0.0,0.0,0.0,0.0,0.0,0.0,0.0,0.0,0.0,0.0,0.0,0.0,0.0,0.0,0.0,0.0,0.0,0.0,0.0,0.0,0.0,0.0,0.0,0.0,0.0,0.0,0.0,0.0,0.0,0.0,0.0,0.0,0.0,0.0,0.0,-0.9045,-0.8434,-0.8573,-0.8683,0.0,0.0,-0.854,-0.8769,-0.7892,0.0,0.0,0.0,0.0,0.0,0.0,0.0,0.0,0.0,0.0,0.0,0.0,0.0,0.0,0.0,0.0,0.0,0.0,0.0,0.0,0.0,0.0,0.0,0.0,0.0,0.0,0.0,0.0,0.0,0.0,0.0,0.0,0.0,0.0,0.0,0.0,0.0,0.0,0.0,0.0,0.0,0.0,0.0,0.0,0.0,0.0,0.0,0.0,0.0,0.0,0.0,0.0,0.0,0.0,0.0,-0.7658,-0.8873,-0.6317,-0.5434,-0.6387,-0.3701,-0.2281,-0.2232,-0.1994,-0.1814,0.0,0.0,0.0,0.0,0.0,0.0,0.0,0.0,0.0,0.0,0.0,0.0,0.0,0.0,0.0,0.0,0.0,0.0,0.0,0.0,0.0,0.0,0.0,0.0,0.0,0.0,0.0,0.0,0.0,0.0,0.0,0.0,0.0,0.0,0.0,0.0,0.0,0.0,0.0,0.0,0.0,0.0,-0.8674,-0.8772,0.0,0.0,0.0,-0.8399,-0.9338,0.0,0.0,0.0,0.0,0.0,0.0,0.0,0.0,0.0,0.0,0.0,0.0,0.0,0.0,0.0,0.0,0.0,0.0,0.0,0.0,0.0,0.0,0.0,0.0,0.0,0.0,0.0,0.0,0.0,0.0,0.0,0.0,0.0,0.0,0.0,0.0,0.0,0.0,0.0,0.0,0.0,0.0,0.0,0.0,0.0,0.0,0.0,0.0,0.0,0.0,0.0,0.0,0.0,0.0,0.0,0.0,0.0,-0.8459,-0.6336,-0.5397,-0.5869,-0.3477,-0.2217,-0.2153,-0.1914,0.0,0.0,0.0,0.0,0.0,0.0,0.0,0.0,0.0,0.0,0.0,0.0,0.0,0.0,0.0,0.0,0.0,0.0,0.0,0.0,0.0,0.0,0.0,0.0,0.0,0.0,0.0,-0.5378,0.0,0.0,0.0,0.0,0.0,0.0,0.0,0.0,0.0,0.0,0.0,0.0,0.0,0.0,-0.8802,-0.8816,-0.909,-0.9375,0.0,0.0,-0.8716,-0.9683,-0.761,-0.6323,0.0,0.0,0.0,0.0,0.0,0.0,0.0,0.0,0.0,0.0,0.0,0.0,0.0,0.0,0.0,0.0,0.0,0.0,0.0,0.0,0.0,0.0,0.0,0.0,0.0,0.0,0.0,0.0,0.0,0.0,0.0,0.0,0.0,0.0,0.0,0.0,0.0,0.0,0.0,0.0,0.0,0.0,0.0,0.0,0.0,0.0,0.0,0.0,0.0,0.0,0.0,0.0,0.0,0.0,0.0,-0.7078,-0.5762,-0.49,-0.4376,-0.2923,-0.2217,-0.2154,-0.1974,-0.1808,0.0,0.0,0.0,0.0,0.0,0.0,0.0,0.0,0.0,0.0,0.0,0.0,0.0,0.0,0.0,0.0,0.0,0.0,0.0,0.0,0.0,0.0,0.0,0.0,0.0,0.0,0.0,0.0,0.0,0.0,0.0,0.0,0.0,0.0,0.0,0.0,0.0,0.0,0.0,0.0,0.0,-0.8981,-0.857,-0.9307,-0.9898,0.0,0.0,-1.0193,-0.9831,-0.8132,-0.7103,-0.7853,0.0,0.0,0.0,0.0,0.0,0.0,0.0,0.0,0.0,0.0,0.0,0.0,0.0,0.0,0.0,0.0,0.0,0.0,0.0,0.0,0.0,0.0,0.0,0.0,0.0,0.0,0.0,0.0,0.0,0.0,0.0,0.0,0.0,0.0,0.0,0.0,0.0,0.0,0.0,0.0,0.0,0.0,0.0,0.0,0.0,0.0,0.0,0.0,0.0,0.0,0.0,0.0,0.0,-0.7342,-0.6978,-0.5703,-0.4833,-0.4319,-0.2864,-0.2161,-0.2101,-0.1943,-0.1779,0.0,0.0,0.0,0.0,0.0,0.0,0.0,0.0,0.0,0.0,0.0,0.0,0.0,0.0,0.0,0.0,0.0,0.0,0.0,0.0,0.0,0.0,0.0,0.0,0.0,0.0,0.0,0.0,-0.535,-0.5344,-0.5417,0.0,0.0,0.0,0.0,0.0,0.0,0.0,0.0,0.0,0.0,-0.8864,-0.9096,-0.9696,0.0,0.0,-0.9193,-0.8801,-0.8138,-0.7017,-0.646,-0.7096,-0.6042,0.0,0.0,0.0,0.0,0.0,0.0,0.0,0.0,0.0,0.0,0.0,0.0,0.0,0.0,0.0,0.0,0.0,0.0,0.0,0.0,0.0,0.0,0.0,0.0,0.0,0.0,0.0,0.0,0.0,0.0,0.0,0.0,0.0,0.0,0.0,0.0,0.0,0.0,0.0,0.0,0.0,0.0,0.0,0.0,0.0,0.0,0.0,0.0,0.0,0.0,0.0,0.0,-0.6827,-0.6243,-0.5217,-0.4303,-0.3624,-0.268,-0.2116,-0.2063,-0.191,-0.175,0.0,0.0,0.0,0.0,0.0,0.0,0.0,0.0,0.0,0.0,0.0,0.0,0.0,0.0,0.0,0.0,0.0,0.0,0.0,0.0,0.0,0.0,0.0,0.0,0.0,0.0,0.0,0.0,-0.5402,-0.5332,-0.5397,0.0,0.0,0.0,0.0,0.0,0.0,0.0,0.0,0.0,0.0,-0.8189,-0.8431,-0.8694,-0.8718,-0.8242,-0.7781,-0.736,-0.6819,-0.5998,-0.5502,-0.6079,0.0,0.0,0.0,0.0,0.0,0.0,0.0,0.0,0.0,0.0,0.0,0.0,0.0,0.0,0.0,0.0,0.0,0.0,0.0,0.0,0.0,0.0,0.0,0.0,0.0,0.0,0.0,-0.3875,0.0,0.0,-0.5057,0.0,0.0,0.0,0.0,0.0,0.0,0.0,0.0,0.0,0.0,0.0,0.0,0.0,0.0,0.0,0.0,0.0,0.0,0.0,0.0,0.0,0.0,-0.5685,-0.4559,-0.3978,-0.32,-0.2281,-0.2125,-0.2095,-0.2061,-0.1891,-0.174,-0.1615,0.0,0.0,0.0,0.0,0.0,0.0,0.0,0.0,0.0,0.0,0.0,0.0,0.0,0.0,0.0,0.0,0.0,0.0,0.0,0.0,0.0,0.0,0.0,0.0,0.0,0.0,-0.6143,-0.5501,-0.5196,0.0,0.0,0.0,0.0,0.0,0.0,0.0,0.0,0.0,0.0,-0.6508,-0.6807,-0.5971,-0.6072,-0.6423,-0.6435,-0.636,-0.6141,-0.6063,-0.5025,-0.4463,0.0,0.0,0.0,0.0,0.0,0.0,0.0,0.0,0.0,0.0,0.0,0.0,0.0,0.0,0.0,0.0,0.0,0.0,0.0,0.0,0.0,0.0,0.0,0.0,0.0,0.0,0.0,-0.2477,-0.3053,0.0,0.0,0.0,0.0,0.0,0.0,0.0,0.0,0.0,0.0,0.0,-0.732,-0.7556,0.0,0.0,0.0,0.0,0.0,0.0,0.0,0.0,0.0,0.0,0.0,0.0,-0.5626,-0.484,-0.3999,-0.3077,-0.2281,-0.2124,-0.2095,-0.2064,-0.1928,-0.1752,-0.1629,0.0,0.0,0.0,0.0,0.0,0.0,0.0,0.0,0.0,0.0,0.0,0.0,0.0,0.0,0.0,0.0,0.0,0.0,0.0,0.0,0.0,0.0,0.0,0.0,0.0,-0.6196,0.0,0.0,0.0,0.0,0.0,0.0,0.0,0.0,0.0,0.0,0.0,-0.7088,-0.6491,-0.6817,-0.6842,-0.6051,-0.6185,-0.5956,0.0,0.0,0.0,0.0,0.0,0.0,0.0,0.0,0.0,0.0,0.0,0.0,0.0,0.0,-0.8668,-0.7861,-0.7625,-0.7549,-0.7549,0.0,0.0,0.0,0.0,0.0,0.0,0.0,0.0,0.0,0.0,0.0,0.0,0.0,0.0,-0.17,0.0,-0.2461,0.0,0.0,0.0,0.0,0.0,0.0,0.0,0.0,-0.7428,-0.7712,-0.776,-0.7957,-0.7943,0.0,-0.7509,-0.7136,0.0,0.0,0.0,0.0,0.0,0.0,0.0,0.0,-0.4979,-0.4376,-0.34,-0.2682,-0.2244,-0.2094,-0.2064,-0.2033,-0.1896,-0.172,-0.1598,-0.1138,-0.074,0.0,0.0,0.0,0.0,0.0,0.0,0.0,0.0,0.0,0.0,0.0,0.0,0.0,0.0,0.0,0.0,0.0,0.0,0.0,0.0,0.0,0.0,0.0,-0.5823,0.0,0.0,0.0,0.0,0.0,0.0,0.0,0.0,0.0,-0.7188,-0.7088,-0.6864,-0.6253,-0.5987,-0.5573,-0.4797,0.0,0.0,0.0,0.0,0.0,0.0,0.0,-0.2968,-0.2789,-0.3638,-0.4362,-0.4664,-0.5745,-0.6457,-0.6327,0.0,0.0,-0.8186,-0.8058,-0.7984,-0.7984,-0.8058,-0.8153,-0.8248,-0.8453,-0.8675,0.0,0.0,0.0,0.0,0.0,0.0,0.0,0.0,-0.1423,-0.1474,0.0,-0.227,0.0,0.0,0.0,0.0,0.0,-0.573,0.0,0.0,-0.7851,-0.8113,-0.8012,-0.8287,-0.8267,-0.7999,-0.8011,-0.7267,-0.5807,-0.537,0.0,0.0,0.0,0.0,0.0,0.0,-0.394,-0.3013,-0.2229,-0.1914,-0.2059,-0.2035,-0.2005,-0.1971,-0.1802,-0.1654,-0.1631,-0.0919,-0.0612,-0.0656,-0.0667,0.0,0.0,0.0,0.0,0.0,0.0,0.0,0.0,0.0,0.0,0.0,0.0,0.0,0.0,0.0,0.0,0.0,0.0,0.0,0.0,-0.5663,0.0,0.0,0.0,0.0,0.0,0.0,0.0,0.0,0.0,0.0,-0.7289,-0.6719,-0.5841,-0.5111,0.0,0.0,0.0,0.0,-0.2031,-0.2061,-0.2067,-0.2068,-0.2065,-0.2061,-0.2022,-0.1911,0.0,0.0,-0.4651,-0.5086,-0.5148,-0.4984,-0.6201,-0.7608,-0.8863,-0.8913,-0.8723,-0.8716,-0.8723,-0.8737,-0.8743,-0.8798,-0.8845,-0.1757,0.0,0.0,0.0,0.0,-0.1615,-0.1677,-0.1755,-0.1725,-0.1695,-0.1663,-0.1908,0.0,0.0,0.0,0.0,0.0,0.0,-0.6233,-0.6668,-0.7118,-0.7402,-0.7539,-0.6779,-0.6431,-0.6182,-0.5886,-0.5661,-0.5295,-0.4029,-0.4066,-0.5347,0.0,0.0,0.0,0.0,-0.3279,-0.3273,-0.2404,-0.1934,-0.2061,-0.2034,-0.1984,-0.1913,-0.1819,-0.1819,-0.1695,-0.0679,-0.0466,-0.114,-0.1127,0.0,0.0,0.0,0.0,0.0,0.0,0.0,0.0,0.0,0.0,0.0,0.0,0.0,0.0,0.0,0.0,0.0,0.0,0.0,-0.5865,-0.4841,-0.4437,0.0,0.0,0.0,0.0,0.0,0.0,0.0,0.0,0.0,-0.5784,-0.5545,-0.5,0.0,0.0,-0.3351,-0.2141,-0.2037,-0.2061,-0.2091,-0.2114,0.0,-0.2099,-0.206,-0.2027,-0.2015,-0.23,-0.2585,-0.2966,-0.3891,-0.4532,-0.4319,-0.5463,-0.6841,-0.8094,-0.8822,-0.9104,-0.9198,-0.9273,-0.9381,-0.9483,-0.9585,-0.9707,-0.2016,-0.1798,-0.1746,-0.1741,-0.1768,-0.1774,-0.1819,-0.1884,-0.1854,-0.1823,-0.1791,-0.1738,-0.1975,-0.2361,-0.229,0.0,0.0,0.0,-0.5302,-0.5984,-0.6298,-0.6512,-0.6641,-0.6094,-0.5722,-0.5566,-0.5291,-0.4908,-0.4529,-0.3491,-0.3436,-0.4332,0.0,0.0,-0.4671,-0.3559,-0.2871,-0.2877,-0.2195,-0.1933,-0.2026,-0.1988,-0.194,-0.1887,-0.1827,-0.186,-0.1761,-0.0913,-0.0487,-0.082,-0.1168,-0.1316,0.0,0.0,0.0,0.0,0.0,0.0,0.0,0.0,0.0,0.0,0.0,-0.6903,-0.6574,0.0,0.0,0.0,-0.6335,-0.5767,-0.4589,-0.3777,0.0,0.0,0.0,0.0,0.0,0.0,0.0,-0.4032,-0.4438,-0.4679,-0.4345,-0.4038,-0.3809,-0.3694,-0.3376,-0.2911,-0.2178,0.0,-0.2061,-0.2102,-0.2125,-0.2139,-0.2143,-0.2105,-0.2079,-0.2097,-0.2114,-0.2132,-0.2151,-0.2961,-0.3352,-0.3594,-0.451,-0.5683,-0.6419,-0.7486,-0.8628,-0.9519,-0.9856,-0.9985,-1.0073,-1.0209,-1.0344,-0.2256,-0.2165,-0.1993,-0.1932,-0.1943,-0.1921,-0.1911,-0.1909,-0.1881,-0.1896,-0.1934,-0.185,-0.1809,-0.1795,-0.1688,0.0,-0.3045,-0.3201,-0.3941,-0.4976,-0.5204,-0.5433,-0.5573,-0.5667,-0.5526,-0.5429,-0.5301,-0.4624,-0.3684,-0.3395,-0.3206,-0.31,-0.29,-0.2883,-0.2986,-0.304,-0.2649,-0.187,-0.1846,-0.1918,-0.1974,-0.1917,-0.1884,-0.1881,-0.1823,-0.1763,-0.1809,-0.1255,-0.0601,-0.0093,-0.0831,-0.1348,-0.1443,0.0,0.0,0.0,0.0,0.0,0.0,0.0,0.0,0.0,0.0,0.0,0.0,0.0,0.0,0.0,-0.5371,0.0,-0.3022,-0.2613,0.0,0.0,0.0,-0.2915,-0.3765,-0.3939,-0.3956,-0.3827,0.0,0.0,-0.3043,-0.246,-0.2415,-0.3734,-0.2809,-0.205,-0.2109,-0.2072,-0.2053,-0.2117,-0.2121,-0.2142,-0.2191,-0.2174,-0.2151,-0.215,-0.2155,-0.2154,-0.2154,-0.229,-0.2155,-0.2287,-0.3228,-0.4297,-0.43,-0.5475,-0.7048,-0.9435,-1.0012,-1.0104,-0.9967,-1.0058,-1.0009,-0.2413,-0.2384,-0.2273,-0.2165,-0.2071,-0.2109,-0.2125,-0.2125,-0.2117,-0.2084,-0.203,-0.1985,-0.1928,-0.1862,-0.1835,-0.1952,-0.2216,-0.3157,-0.3809,-0.4288,-0.4215,-0.4261,-0.4308,-0.342,-0.2898,-0.2868,-0.2837,-0.3158,-0.3572,-0.2698,-0.2649,-0.3377,-0.2502,-0.2433,-0.3016,-0.2451,-0.2101,-0.1853,-0.1898,-0.1939,-0.1974,-0.1917,-0.1874,-0.1851,-0.1791,-0.1829,-0.1745,-0.1223,-0.0593,-0.0093,-0.0547,-0.098,-0.1385,-0.1381,0.0,0.0,0.0,0.0,0.0,0.0,0.0,0.0,0.0,-0.6134,-0.6583,0.0,-0.6377,0.0,-0.4022,-0.3109,-0.2835,-0.21,0.0,0.0,-0.2851,-0.2954,-0.3206,-0.3861,-0.3862,-0.2426,-0.2892,-0.3021,-0.2273,-0.2144,-0.222,-0.249,-0.2376,-0.2136,-0.2172,-0.2168,-0.217,-0.2202,-0.2208,-0.2218,-0.2225,-0.2208,-0.2181,-0.2158,-0.2155,-0.2155,-0.2155,-0.2155,-0.2155,-0.2155,-0.2423,-0.3094,-0.4031,-0.4568,-0.5359,-0.6912,-0.7318,-0.7332,-0.7332,-0.7484,-0.7503,-0.2521,-0.2504,-0.2455,-0.2371,-0.2268,-0.2263,-0.2267,-0.2277,-0.2252,-0.2204,-0.214,-0.2071,-0.2011,-0.1963,-0.1937,-0.1943,-0.1969,-0.2583,-0.2989,-0.3181,-0.3077,-0.3089,-0.3093,-0.2462,-0.2065,-0.2038,-0.2023,-0.2373,-0.2827,-0.2303,-0.2268,-0.2817,-0.2213,-0.2069,-0.2483,-0.2034,-0.1842,-0.1904,-0.1936,-0.1959,-0.1974,-0.1917,-0.1877,-0.1859,-0.1789,-0.1815,-0.1722,-0.1203,-0.0877,-0.0742,-0.0732,-0.0905,-0.1433,-0.1418,-0.1403,0.0,0.0,0.0,0.0,0.0,0.0,0.0,0.0,0.0,0.0,0.0,-0.5544,-0.4067,-0.3175,-0.2539,-0.2257,-0.1755,-0.1682,-0.2243,-0.2345,-0.2431,-0.2476,-0.2959,-0.2948,-0.1935,-0.2356,-0.2553,-0.2004,-0.2068,-0.2114,-0.2128,-0.2144,-0.2161,-0.2176,-0.218,-0.2191,-0.2219,-0.2214,-0.2204,-0.2206,-0.2203,-0.2189,-0.2162,-0.2155,-0.2155,-0.2155,-0.2155,-0.2155,-0.2155,-0.2155,-0.2423,-0.3228,-0.3362,-0.3629,-0.4163,-0.4565,-0.4964,-0.6164,-0.6431,-0.6431,-0.2593,-0.2571,-0.2567,-0.2533,-0.2474,-0.2395,-0.2371,-0.238,-0.233,-0.2289,-0.2249,-0.214,-0.2089,-0.2078,-0.2029,-0.2016,-0.2035,-0.2037,-0.205,-0.2076,-0.2104,-0.2101,-0.2078,-0.2125,-0.2121,-0.2071,-0.2065,-0.205,-0.2024,-0.2,-0.1973,-0.1944,-0.1943,-0.194,-0.1936,-0.1911,-0.191,-0.1936,-0.1966,-0.1982,-0.1981,-0.1922,-0.1888,-0.1876,-0.1785,-0.1796,-0.1703,-0.118,-0.1053,-0.1382,-0.1104,-0.1106,-0.1475,-0.1446,-0.1431,0.0,-0.1388,0.0,0.0,0.0,0.0,0.0,0.0,0.0,0.0,-0.5728,-0.4561,-0.2877,-0.262,-0.2293,-0.1622,-0.1562,-0.1585,-0.159,-0.1647,-0.1696,-0.1726,-0.1778,-0.1846,-0.1933,-0.1969,-0.202,-0.2093,-0.2112,-0.2127,-0.2148,-0.2154,-0.2155,-0.2157,-0.2161,-0.2176,-0.22,-0.218,-0.217,-0.2163,-0.2178,-0.2184,-0.2161,-0.2155,-0.2155,-0.2155,-0.2155,-0.2155,-0.2155,-0.2155,-0.229,-0.2155,-0.229,-0.229,-0.2423,-0.2423,-0.3094,-0.4964,-0.5633,-0.5897,-0.2635,-0.2628,-0.2604,-0.2574,-0.2541,-0.2525,-0.2478,-0.2414,-0.2403,-0.2368,-0.2313,-0.2268,-0.2221,-0.2174,-0.2162,-0.2147,-0.2129,-0.2128,-0.2132,-0.2138,-0.2143,-0.2143,-0.2136,-0.2124,-0.2112,-0.2099,-0.2075,-0.2061,-0.2056,-0.205,-0.2031,-0.2003,-0.2001,-0.199,-0.1969,0.0,0.0,0.0,-0.1996,-0.2011,-0.2008,-0.1952,-0.1899,-0.1847,-0.1714,0.0,-0.1606,-0.1125,-0.0643,-0.0353,-0.0984,0.0,0.0,0.0,0.0,0.0,0.0,0.0,0.0,0.0,0.0,0.0,-0.3185,-0.3757,-0.4497,-0.3765,-0.315,-0.2906,-0.2167,-0.1713,-0.156,-0.1613,-0.1655,-0.168,-0.1755,-0.1819,-0.1849,-0.1883,-0.193,-0.1994,-0.2029,-0.2063,-0.2102,-0.2129,-0.2147,-0.2154,-0.2155,-0.2155,-0.2155,-0.2174,-0.2202,-0.2228,-0.2206,-0.2181,-0.2158,-0.2161,-0.2165,-0.2155,-0.2155,-0.2155,-0.2155,-0.2155,-0.2155,-0.2155,-0.2155,-0.2155,-0.2155,-0.2155,-0.2155,-0.2155,-0.2155,-0.2289,-0.2959,-0.2959,-0.2959,-0.2683,0.0,-0.2653,-0.263,0.0,-0.2602,-0.256,-0.2489,-0.2458,-0.2412,-0.2353,-0.2324,-0.2288,-0.2244,-0.2214,-0.2191,-0.2177,-0.2161,-0.2155,-0.2155,-0.2155,-0.2155,-0.2154,-0.2139,-0.2131,-0.2131,-0.2101,-0.2086,-0.2086,-0.2071,-0.2048,-0.2019,-0.2019,-0.2004,-0.1978,-0.1977,-0.1977,-0.1977,-0.199,-0.1999,-0.1996,-0.194,-0.1887,-0.1839,-0.1723,0.0,0.0,0.0,0.0,0.0,0.0,0.0,0.0,-0.1466,0.0,-0.1478,-0.1466,-0.1464,-0.1478,-0.1467,-0.1653,-0.2155,-0.2159,-0.2606,-0.3461,-0.3121,-0.2714,-0.2314,-0.1855,-0.159,-0.1633,-0.1692,-0.174,-0.1771,-0.184,-0.1892,-0.191,-0.1948,-0.1992,-0.2034,-0.2067,-0.2098,-0.2128,-0.2143,-0.2154,-0.2155,-0.2155,-0.2155,-0.2157,-0.2168,-0.2184,-0.2199,-0.2204,-0.2189,-0.2162,-0.2155,-0.2155,-0.2155,-0.2155,-0.2155,-0.2155,-0.2155,-0.2155,-0.2155,-0.2155,-0.2155,-0.2155,-0.2155,-0.2155,-0.2155,-0.2155,-0.2155,-0.2155,-0.2155,-0.2155,-0.272,-0.2692,-0.2692,-0.2675,-0.2647,-0.2647,-0.2613,-0.2556,0.0,0.0,0.0,-0.2363,-0.233,-0.2294,-0.224,-0.221,-0.2199,-0.2174,-0.2159,-0.2155,-0.2155,-0.2155,-0.2155,-0.2155,-0.2155,-0.2154,-0.2129,-0.2117,-0.2116,-0.2091,-0.2064,-0.2037,-0.203,-0.2009,-0.1979,-0.1977,-0.1977,-0.1977,-0.1982,-0.1986,-0.199,-0.1933,-0.1887,-0.1857,-0.1757,-0.1665,-0.1484,-0.1049,-0.0561,-0.0,-0.046,-0.1019,-0.153,-0.1528,-0.1525,-0.1525,-0.1502,-0.15,-0.1524,-0.1502,-0.1501,-0.1532,-0.1545,-0.1834,-0.2685,-0.2788,-0.2428,-0.1683,-0.1614,-0.1656,-0.1715,-0.177,-0.1817,-0.1853,-0.1906,-0.1939,-0.1943,-0.1985,-0.2027,-0.2061,-0.209,-0.2121,-0.2148,-0.2154,-0.2155,-0.2155,-0.2155,-0.2155,-0.2155,-0.2162,-0.2166,-0.2163,-0.2183,-0.2189,-0.2163,-0.2155,-0.2155,-0.2155,-0.2155,-0.2155,-0.2155,-0.2155,-0.2155,-0.2155,-0.2155,-0.2155,-0.2155,-0.2155,-0.2155,-0.2155,-0.2155,-0.2155,-0.2155,-0.2155,-0.2155,-0.272,-0.2692,-0.2692,-0.2675,-0.2647,-0.2647,-0.2613,-0.2557,-0.2522,-0.2488,-0.2454,-0.2424,-0.238,-0.2326,-0.2293,-0.2249,-0.22,-0.2196,-0.218,-0.2155,-0.2155,-0.2155,-0.2155,-0.2155,-0.2155,-0.2154,-0.215,-0.2148,-0.2147,-0.2143,-0.2127,-0.2097,-0.2069,-0.203,-0.1981,-0.1977,-0.1977,-0.1977,-0.2,-0.2026,-0.2049,-0.1994,-0.1949,-0.1914,-0.1779,-0.1675,-0.1613,-0.0986,-0.0487,-0.0,-0.0486,-0.0972,-0.1466,-0.1542,-0.1525,-0.1525,-0.1521,-0.1521,-0.1527,-0.1521,-0.1532,-0.1564,-0.1613,-0.1722,-0.1768,-0.1787,-0.1718,-0.1647,-0.1674,-0.1716,-0.1775,-0.1813,-0.1857,-0.191,-0.1948,-0.197,-0.197,-0.1997,-0.2029,-0.2059,-0.2091,-0.212,-0.2146,-0.2154,-0.2155,-0.2155,-0.2155,-0.2155,-0.2158,-0.2177,-0.218,-0.2165,-0.2181,-0.2185,-0.2162,-0.2155,-0.2155,-0.2155,-0.2155,-0.2155,-0.2155,-0.2155,-0.2155,-0.2155,-0.2155,-0.2155,-0.2155,-0.2155,-0.2155,-0.2155,-0.2155,-0.2155,-0.2155,-0.2155,-0.2155,-0.2744,-0.2716,-0.2699,-0.2684,-0.2671,-0.2654,-0.2623,-0.2581,-0.2552,-0.2512,-0.2467,-0.2438,-0.2399,-0.2354,-0.2311,-0.2267,-0.2223,-0.2207,-0.2184,-0.2157,-0.2155,-0.2155,-0.2155,-0.2155,-0.2155,-0.2155,-0.2155,-0.2155,-0.2155,-0.2155,-0.2139,-0.2109,-0.2079,-0.205,-0.2026,-0.2024,-0.2024,-0.2023,-0.2005,-0.2003,-0.2015,-0.1974,-0.1937,-0.1907,-0.182,-0.1759,-0.1608,-0.1043,-0.0514,-0.0,-0.0202,-0.0702,-0.1518,-0.1607,-0.16,-0.16,-0.1614,-0.1609,-0.1577,-0.1591,-0.1606,-0.1621,-0.166,-0.1674,-0.1647,-0.1656,-0.167,-0.1685,-0.1711,-0.1753,-0.1813,-0.1847,-0.1889,-0.1949,-0.1969,-0.1977,-0.1979,-0.2001,-0.2023,-0.2041,-0.208,-0.2114,-0.2128,-0.2144,-0.2154,-0.2155,-0.2155,-0.2155,-0.2155,-0.2166,-0.2172,-0.2159,-0.2168,-0.2169,-0.2157,-0.2155,-0.2155,-0.2155,-0.2155,-0.2155,-0.2155,-0.2155,-0.2155,-0.2155,-0.2155,-0.2155,-0.2155,-0.2155,-0.2155,-0.2155,-0.2155,-0.2155,-0.2155,-0.2155,-0.2155,-0.2772,-0.2736,-0.2713,-0.2699,-0.269,-0.266,-0.263,-0.26,-0.2571,-0.2529,-0.2478,-0.244,-0.241,-0.2383,-0.2327,-0.2285,-0.2255,-0.2232,-0.2202,-0.2168,-0.2165,-0.2165,-0.2163,-0.2158,-0.2158,-0.2163,-0.2158,-0.2155,-0.2155,-0.2155,-0.2139,-0.211,-0.2086,-0.2071,-0.2064,-0.2064,-0.2064,-0.2061,-0.2019,-0.1996,-0.1994,-0.1966,-0.1937,-0.1907,-0.1877,-0.1847,-0.1701,-0.1213,-0.0544,0.0,0.0,-0.0415,-0.1267,-0.147,-0.1673,-0.1674,-0.1693,-0.1685,-0.1643,-0.1658,-0.1671,-0.1673,-0.1704,-0.1725,-0.1726,-0.1738,-0.1738,-0.173,-0.1746,-0.1787,-0.1849,-0.1873,-0.191,-0.1967,-0.1977,-0.1977,-0.1979,-0.2001,-0.2019,-0.2024,-0.2072,-0.2109,-0.2113,-0.2129,-0.2142,-0.2143,-0.215,-0.2155,-0.2155,-0.2155,-0.2155,-0.2155,-0.2155,-0.2155,-0.2155,-0.2155,-0.2155,-0.2155,-0.2155,-0.2155,-0.2155,-0.2155,-0.2155,-0.2155,-0.2155,-0.2155,-0.2155,-0.2155,-0.2155,-0.2155,-0.2155,-0.2155,-0.2155,-0.2155,-0.2155,-0.2791,-0.2742,-0.2735,-0.2717,-0.269,-0.2661,-0.2631,-0.26,-0.2571,-0.2541,-0.2504,-0.245,-0.2423,-0.2412,-0.2354,-0.2312,-0.2286,-0.2283,-0.2251,-0.22,-0.2196,-0.2196,-0.2193,-0.2169,-0.2169,-0.2189,-0.2169,-0.2155,-0.2157,-0.2155,-0.2139,-0.2113,-0.2106,-0.2093,-0.2068,-0.2065,-0.2065,-0.2064,-0.2059,-0.2056,-0.2054,-0.2026,-0.1997,-0.1969,-0.1939,-0.1909,-0.188,-0.1268,-0.0575,0.0,0.0,-0.0,-0.0222,-0.1083,-0.1704,-0.1705,-0.1705,-0.1701,-0.1697,-0.1699,-0.1703,-0.1704,-0.1756,-0.1787,-0.179,-0.1836,-0.1843,-0.1804,-0.179,-0.1829,-0.1909,-0.1902,-0.1914,-0.1967,-0.1977,-0.1977,-0.1979,-0.2001,-0.2019,-0.2019,-0.2068,-0.2109,-0.2106,-0.2113,-0.2116,-0.2119,-0.214,-0.2155,-0.2155,-0.2155,-0.2155,-0.2155,-0.2155,-0.2155,-0.2155,-0.2155,-0.2155,-0.2155,-0.2155,-0.2155,-0.2155,-0.2155,-0.2155,-0.2155,-0.2155,-0.2155,-0.2155,-0.2155,-0.2155,-0.2155,-0.2155,-0.2155,-0.2155,-0.2155,-0.2155,-0.2803,-0.2763,-0.2746,-0.272,-0.2692,-0.2679,-0.2646,-0.2601,-0.259,-0.2559,-0.2512,-0.2469,-0.244,-0.242,-0.236,-0.2318,-0.2292,-0.2292,-0.2267,-0.2229,-0.2226,-0.2228,-0.2223,-0.2195,-0.2198,-0.2221,-0.2178,-0.2163,-0.2176,-0.2163,-0.2148,-0.2138,-0.2136,-0.2129,-0.2119,-0.2117,-0.2119,-0.2117,-0.2117,-0.2109,-0.209,-0.2061,-0.2041,-0.2029,-0.2015,-0.1996,-0.1844,-0.1331,-0.0719,0.0,0.0,-0.0229,-0.0577,-0.1027,-0.1467,-0.1786,-0.175,-0.174,-0.1757,-0.1757,-0.1774,-0.1809,-0.1834,-0.1855,-0.1873,-0.1883,-0.1881,-0.1876,-0.1859,-0.1873,-0.1922,-0.1919,-0.193,-0.1967,-0.1977,-0.1977,-0.1977,-0.1986,-0.1999,-0.2016,-0.2039,-0.2064,-0.208,-0.2098,-0.2108,-0.2113,-0.2135,-0.2154,-0.2155,-0.2155,-0.2155,-0.2155,-0.2155,-0.2155,-0.2155,-0.2155,-0.2155,-0.2155,-0.2155,-0.2155,-0.2155,-0.2155,-0.2155,-0.2155,-0.2155,-0.2155,-0.2155,-0.2155,-0.2155,-0.2155,-0.2155,-0.2155,-0.2155,-0.2155,-0.2155,-0.2818,-0.278,-0.2742,-0.2713,-0.2692,-0.2692,-0.2662,-0.2616,-0.2605,-0.2572,-0.2525,-0.2487,-0.2457,-0.2429,-0.2372,-0.2334,-0.2316,-0.2305,-0.2286,-0.226,-0.2258,-0.2258,-0.2255,-0.2226,-0.2229,-0.2244,-0.2196,-0.2174,-0.2185,-0.2166,-0.2155,-0.2155,-0.2155,-0.2155,-0.2155,-0.2155,-0.2155,-0.2154,-0.2155,-0.2144,-0.2121,-0.2101,-0.2082,-0.2067,-0.2064,-0.2053,-0.2034,-0.1384,-0.0744,-0.0,-0.0361,-0.0715,-0.1186,-0.1063,-0.129,-0.1853,-0.1812,-0.18,-0.1829,-0.1825,-0.1846,-0.19,-0.1903,-0.1911,-0.1933,-0.1924,-0.1921,-0.1936,-0.1924,-0.1921,-0.1939,-0.1936,-0.1944,-0.1971,-0.1977,-0.1977,-0.1977,-0.1977,-0.1988,-0.2014,-0.203,-0.2042,-0.2074,-0.2104,-0.2121,-0.2114,-0.2135,-0.2155,-0.2155,-0.2155,-0.2155,-0.2155,-0.2155,-0.2155,-0.2155,-0.2155,-0.2155,-0.2155,-0.2155,-0.2155,-0.2155,-0.2155,-0.2155,-0.2155,-0.2155,-0.2155,-0.2155,-0.2155,-0.2155,-0.2155,-0.2155,-0.2155,-0.2155,-0.2155,-0.2159,-0.2837,-0.2777,-0.272,-0.2695,-0.2692,-0.2692,-0.2673,-0.2639,-0.2615,-0.2585,-0.2552,-0.2497,-0.2469,-0.2465,-0.2406,-0.2376,-0.2369,-0.2345,-0.2319,-0.2293,-0.229,-0.229,-0.2288,-0.2258,-0.2259,-0.2282,-0.2226,-0.2187,-0.2163,-0.2157,-0.2155,-0.2155,-0.2155,-0.2155,-0.2155,-0.2155,-0.2155,-0.2155,-0.2155,-0.2153,-0.2151,-0.215,-0.212,-0.2075,-0.2065,-0.2067,-0.2061,-0.1416,-0.0639,-0.0,-0.1117,-0.1837,-0.193,-0.1308,-0.1298,-0.1765,-0.188,-0.1891,-0.1911,-0.1894,-0.1906,-0.1956,-0.1944,-0.1943,-0.197,-0.1967,-0.1966,-0.1973,-0.1967,-0.1969,-0.1969,-0.1949,-0.1947,-0.1973,-0.1977,-0.1977,-0.1977,-0.1977,-0.1989,-0.2018,-0.2042,-0.2064,-0.2098,-0.2133,-0.2128,-0.2119,-0.2133,-0.2154,-0.2155,-0.2155,-0.2155,-0.2155,-0.2155,-0.2155,-0.2155,-0.2155,-0.2155,-0.2155,-0.2155,-0.2155,-0.2155,-0.2155,-0.2155,-0.2155,-0.2155,-0.2155,-0.2155,-0.2155,-0.2155,-0.2155,-0.2155,-0.2155,-0.2155,-0.2155,-0.2159,-0.281,-0.2751,-0.271,-0.2692,-0.2692,-0.2692,-0.2675,-0.2647,-0.2635,-0.2615,-0.2583,-0.2544,-0.2527,-0.2525,-0.2463,-0.2425,-0.2408,-0.2395,-0.2375,-0.2349,-0.2346,-0.2337,-0.2315,-0.2289,-0.229,-0.2305,-0.2258,-0.2223,-0.2213,-0.2193,-0.2184,-0.218,-0.2163,-0.2155,-0.2155,-0.2155,-0.2155,-0.2155,-0.2155,-0.2155,-0.2155,-0.2155,-0.2143,-0.2124,-0.2121,-0.2113,-0.2223,-0.1439,-0.0776,-0.0,-0.1257,-0.1992,-0.1964,-0.1828,-0.1693,-0.1917,-0.1915,-0.1919,-0.1928,-0.1921,-0.194,-0.1993,-0.1977,-0.1973,-0.1993,-0.1988,-0.1977,-0.1977,-0.1977,-0.1977,-0.1975,-0.1966,-0.1964,-0.1974,-0.1977,-0.1978,-0.1977,-0.1978,-0.1994,-0.2037,-0.2059,-0.2061,-0.2065,-0.2079,-0.2091,-0.2087,-0.2123,-0.215,-0.2155,-0.2155,-0.2155,-0.2155,-0.2155,-0.2155,-0.2155,-0.2155,-0.2155,-0.2155,-0.2155,-0.2155,-0.2155,-0.2155,-0.2155,-0.2155,-0.2155,-0.2155,-0.2155,-0.2155,-0.2155,-0.2155,-0.2155,-0.2155,-0.2155,-0.2155,-0.2159,-0.2791,-0.275,-0.2709,-0.2692,-0.2692,-0.2692,-0.268,-0.2661,-0.2652,-0.2635,-0.2612,-0.2577,-0.2564,-0.2562,-0.251,-0.248,-0.2463,-0.2439,-0.2412,-0.2393,-0.2383,-0.2368,-0.2345,-0.2318,-0.2313,-0.2323,-0.2283,-0.2255,-0.2244,-0.2225,-0.2215,-0.2213,-0.2184,-0.2169,-0.2168,-0.2159,-0.2155,-0.2155,-0.2155,-0.2155,-0.2155,-0.2155,-0.2155,-0.2155,-0.2155,-0.2146,-0.2125,-0.1459,-0.0788,-0.0257,-0.1153,-0.1777,-0.1997,-0.2,-0.1992,-0.1964,-0.197,-0.1978,-0.1985,-0.1979,-0.2,-0.2052,-0.2018,-0.2005,-0.2039,-0.2012,-0.1993,-0.199,-0.2,-0.2003,-0.1994,-0.1999,-0.2001,-0.1993,-0.199,-0.1994,-0.2003,-0.2005,-0.2029,-0.2068,-0.209,-0.2083,-0.2069,-0.2084,-0.2095,-0.2093,-0.2132,-0.2153,-0.2155,-0.2155,-0.2155,-0.2155,-0.2155,-0.2155,-0.2155,-0.2155,-0.2155,-0.2155,-0.2155,-0.2155,-0.2155,-0.2155,-0.2155,-0.2155,-0.2155,-0.2155,-0.2155,-0.2155,-0.2155,-0.2155,-0.2155,-0.2155,-0.2155,-0.2155,-0.2168,-0.2782,-0.2767,-0.2717,-0.2692,-0.2692,-0.2692,-0.2692,-0.2684,-0.2661,-0.265,-0.2641,-0.259,-0.2582,-0.2586,-0.2541,-0.2527,-0.253,-0.2469,-0.2431,-0.2423,-0.2398,-0.2384,-0.2376,-0.2352,-0.2337,-0.2335,-0.2305,-0.2277,-0.2253,-0.2248,-0.2245,-0.224,-0.2215,-0.2198,-0.2199,-0.2172,-0.2157,-0.2157,-0.2157,-0.2157,-0.2155,-0.2159,-0.2162,-0.2159,-0.2161,-0.2162,-0.2158,-0.148,-0.0801,-0.0132,-0.0788,-0.1429,-0.1907,-0.2044,-0.2046,-0.2024,-0.2042,-0.2072,-0.2091,-0.2069,-0.2074,-0.2109,-0.2065,-0.2041,-0.2074,-0.2048,-0.2019,-0.2022,-0.2039,-0.2049,-0.2027,-0.2039,-0.2046,-0.2024,-0.2019,-0.203,-0.205,-0.2063,-0.2075,-0.2102,-0.2124,-0.215,-0.215,-0.2138,-0.2135,-0.2138,-0.2148,-0.2155,-0.2155,-0.2155,-0.2155,-0.2155,-0.2155,-0.2155,-0.2155,-0.2155,-0.2155,-0.2155,-0.2155,-0.2155,-0.2155,-0.2155,-0.2155,-0.2155,-0.2155,-0.2155,-0.2155,-0.2155,-0.2155,-0.2155,-0.2155,-0.2155,-0.2155,-0.2161,-0.2187,-0.2759,-0.2721,-0.2701,-0.2692,-0.2692,-0.2692,-0.2692,-0.2691,-0.2682,-0.2677,-0.2671,-0.2637,-0.2626,-0.2617,-0.2572,-0.2551,-0.2555,-0.2507,-0.2476,-0.2457,-0.2444,-0.2428,-0.241,-0.2399,-0.2384,-0.2363,-0.2334,-0.2315,-0.2303,-0.2285,-0.2277,-0.2271,-0.2247,-0.2221,-0.2203,-0.2189,-0.2177,-0.2159,-0.2176,-0.2177,-0.2162,-0.2196,-0.2207,-0.2191,-0.2206,-0.2217,-0.2215,-0.1496,-0.0803,-0.0,-0.0659,-0.1437,-0.1932,-0.2187,-0.2059,-0.2053,-0.2057,-0.2067,-0.2075,-0.2072,-0.2074,-0.2086,-0.2064,-0.206,-0.2074,-0.2063,-0.2049,-0.205,-0.2059,-0.2059,-0.2054,-0.2057,-0.2061,-0.2052,-0.205,-0.2053,-0.2068,-0.2083,-0.2098,-0.2106,-0.2119,-0.2123,-0.2125,-0.2125,-0.2129,-0.2131,-0.2143,-0.2155,-0.2155,-0.2155,-0.2155,-0.2155,-0.2155,-0.2155,-0.2155,-0.2155,-0.2155,-0.2155,-0.2155,-0.2155,-0.2155,-0.2155,-0.2155,-0.2155,-0.2155,-0.2155,-0.2155,-0.2155,-0.2155,-0.2155,-0.2155,-0.2155,-0.2157,-0.2173,-0.2196,-0.2754,-0.271,-0.2697,-0.2692,-0.2692,-0.2692,-0.2692,-0.2692,-0.2692,-0.2692,-0.2684,-0.2647,-0.2637,-0.2632,-0.2586,-0.2567,-0.2571,-0.2545,-0.2521,-0.2499,-0.2476,-0.2458,-0.2439,-0.2428,-0.2408,-0.238,-0.2358,-0.2343,-0.2331,-0.2316,-0.2307,-0.2301,-0.2277,-0.2253,-0.2233,-0.2222,-0.2206,-0.2193,-0.2207,-0.2207,-0.22,-0.2226,-0.2237,-0.2222,-0.2236,-0.2245,-0.2243,-0.1785,-0.1083,-0.027,-0.0403,-0.1194,-0.2087,-0.2222,-0.2093,-0.2084,-0.2091,-0.2098,-0.2098,-0.2102,-0.2098,-0.2097,-0.2087,-0.2089,-0.2093,-0.209,-0.208,-0.2082,-0.2093,-0.2093,-0.2084,-0.2093,-0.2097,-0.2097,-0.2087,-0.2087,-0.2095,-0.2113,-0.2124,-0.2128,-0.2129,-0.2127,-0.2127,-0.2127,-0.2127,-0.2129,-0.2142,-0.2155,-0.2155,-0.2155,-0.2155,-0.2155,-0.2155,-0.2155,-0.2155,-0.2155,-0.2155,-0.2155,-0.2155,-0.2155,-0.2155,-0.2155,-0.2155,-0.2155,-0.2155,-0.2155,-0.2155,-0.2155,-0.2155,-0.2155,-0.2155,-0.2155,-0.2159,-0.218,-0.2203,-0.2766,-0.2735,-0.2706,-0.2692,-0.2692,-0.2692,-0.2692,-0.2692,-0.2692,-0.2692,-0.268,-0.2642,-0.2628,-0.2635,-0.2598,-0.2586,-0.2596,-0.2575,-0.2562,-0.2545,-0.2512,-0.2484,-0.247,-0.245,-0.2424,-0.2395,-0.2388,-0.2371,-0.2349,-0.2339,-0.2335,-0.2333,-0.2308,-0.229,-0.2279,-0.226,-0.2245,-0.2238,-0.2244,-0.2245,-0.2241,-0.2252,-0.2252,-0.2249,-0.2253,-0.2258,-0.2255,-0.1953,-0.1387,-0.0279,-0.0138,-0.0812,-0.1862,-0.2139,-0.2136,-0.2119,-0.214,-0.2148,-0.2154,-0.2146,-0.2146,-0.2143,-0.2125,-0.2123,-0.2139,-0.2124,-0.2112,-0.2113,-0.2132,-0.2138,-0.2121,-0.2131,-0.2146,-0.2148,-0.2125,-0.2124,-0.2148,-0.2151,-0.2148,-0.2151,-0.2154,-0.2154,-0.215,-0.2151,-0.2151,-0.2151,-0.2153,-0.2154,-0.2155,-0.2155,-0.2155,-0.2155,-0.2155,-0.2155,-0.2155,-0.2155,-0.2155,-0.2155,-0.2155,-0.2155,-0.2155,-0.2155,-0.2155,-0.2155,-0.2155,-0.2155,-0.2155,-0.2155,-0.2155,-0.2155,-0.2155,-0.2155,-0.2168,-0.2187,-0.2213,-0.2766,-0.2735,-0.2705,-0.2692,-0.2692,-0.2692,-0.2692,-0.2692,-0.2692,-0.2692,-0.2687,-0.2676,-0.2668,-0.2675,-0.2641,-0.2628,-0.2624,-0.2604,-0.259,-0.2589,-0.2577,-0.254,-0.251,-0.2493,-0.2473,-0.2446,-0.2439,-0.2429,-0.2399,-0.2376,-0.2367,-0.2365,-0.2338,-0.2312,-0.2292,-0.2286,-0.2266,-0.2252,-0.227,-0.2268,-0.2258,-0.229,-0.2298,-0.2282,-0.2298,-0.2307,-0.2165,-0.1728,-0.0986,-0.0137,-0.0548,-0.0955,-0.1478,-0.1885,-0.2165,-0.2173,-0.2163,-0.2166,-0.218,-0.2168,-0.2157,-0.2155,-0.2146,-0.2146,-0.2153,-0.2148,-0.2143,-0.2144,-0.2151,-0.2151,-0.2146,-0.215,-0.2155,-0.2154,-0.2146,-0.2144,-0.2151,-0.2155,-0.2155,-0.2155,-0.2155,-0.2155,-0.2155,-0.2155,-0.2155,-0.2155,-0.2155,-0.2155,-0.2155,-0.2155,-0.2155,-0.2155,-0.2155,-0.2155,-0.2155,-0.2155,-0.2155,-0.2155,-0.2155,-0.2155,-0.2155,-0.2155,-0.2155,-0.2155,-0.2155,-0.2155,-0.2155,-0.2155,-0.2155,-0.2155,-0.2155,-0.2157,-0.2173,-0.2192,-0.2222,-0.2765,-0.2736,-0.2705,-0.2692,-0.2692,-0.2692,-0.2692,-0.2692,-0.2692,-0.2692,-0.269,-0.2677,-0.2673,-0.2671,-0.2654,-0.2647,-0.2645,-0.2628,-0.2622,-0.2617,-0.2605,-0.2574,-0.2538,-0.2522,-0.2499,-0.2472,-0.247,-0.245,-0.2424,-0.2405,-0.2398,-0.2395,-0.238,-0.2363,-0.2353,-0.2346,-0.2331,-0.2311,-0.2319,-0.2318,-0.2307,-0.2334,-0.235,-0.2343,-0.2352,-0.2345,-0.2177,-0.189,-0.1146,-0.0419,-0.0418,-0.0834,-0.1511,-0.193,-0.2214,-0.2221,-0.2213,-0.2217,-0.221,-0.2191,-0.2176,-0.2172,-0.2165,-0.2163,-0.2168,-0.2165,-0.2157,-0.2172,-0.2163,-0.2157,-0.2155,-0.2155,-0.2161,-0.217,-0.2162,-0.2155,-0.2155,-0.2155,-0.2155,-0.2155,-0.2155,-0.2155,-0.2155,-0.2155,-0.2155,-0.2155,-0.2155,-0.2155,-0.2155,-0.2155,-0.2155,-0.2155,-0.2155,-0.2155,-0.2155,-0.2155,-0.2155,-0.2155,-0.2155,-0.2155,-0.2155,-0.2155,-0.2155,-0.2155,-0.2155,-0.2155,-0.2155,-0.2155,-0.2155,-0.2155,-0.2155,-0.2159,-0.2173,-0.2203,-0.2233,-0.277,-0.274,-0.271,-0.2695,-0.2692,-0.2692,-0.2692,-0.2692,-0.2692,-0.2692,-0.2687,-0.2664,-0.2661,-0.2652,-0.266,-0.2653,-0.2654,-0.2653,-0.2653,-0.2643,-0.2626,-0.2594,-0.2575,-0.2555,-0.2527,-0.2502,-0.2487,-0.2476,-0.2458,-0.2442,-0.2432,-0.2427,-0.2423,-0.2421,-0.2408,-0.2414,-0.2408,-0.2382,-0.2375,-0.2376,-0.2372,-0.238,-0.2393,-0.2413,-0.2401,-0.2368,-0.2338,-0.2188,-0.175,-0.0289,-0.0287,-0.0993,-0.1968,-0.2129,-0.2278,-0.2262,-0.227,-0.2271,-0.2255,-0.2226,-0.2204,-0.2202,-0.2181,-0.2174,-0.2195,-0.2187,-0.2183,-0.2203,-0.2177,-0.2166,-0.2163,-0.2162,-0.2172,-0.2188,-0.2176,-0.2168,-0.2159,-0.2157,-0.2155,-0.2155,-0.2155,-0.2155,-0.2155,-0.2155,-0.2155,-0.2155,-0.2155,-0.2155,-0.2155,-0.2155,-0.2155,-0.2155,-0.2155,-0.2155,-0.2155,-0.2155,-0.2155,-0.2155,-0.2155,-0.2155,-0.2155,-0.2155,-0.2155,-0.2155,-0.2155,-0.2155,-0.2155,-0.2155,-0.2155,-0.2155,-0.2155,-0.2158,-0.2166,-0.221,-0.2245,-0.28,-0.2772,-0.274,-0.2714,-0.2694,-0.2692,-0.2692,-0.2692,-0.2692,-0.2692,-0.269,-0.2684,-0.2682,-0.2682,-0.268,-0.2683,-0.268,-0.268,-0.2683,-0.2679,-0.2652,-0.2637,-0.2627,-0.2616,-0.26,-0.2579,-0.2596,-0.2578,-0.2537,-0.2503,-0.2482,-0.2463,-0.2448,-0.2425,-0.2429,-0.2432,-0.2423,-0.2414,-0.2414,-0.2413,-0.2413,-0.2414,-0.2428,-0.2453,-0.245,-0.2431,-0.2405,-0.2401,-0.211,-0.1953,-0.1761,-0.1578,-0.1706,-0.2002,-0.2305,-0.2311,-0.23,-0.2301,-0.2301,-0.2267,-0.2236,-0.2234,-0.2226,-0.2229,-0.2233,-0.2228,-0.2226,-0.223,-0.2208,-0.2192,-0.2191,-0.2191,-0.2198,-0.2206,-0.2214,-0.2213,-0.2193,-0.217,-0.2159,-0.2157,-0.2155,-0.2155,-0.2155,-0.2155,-0.2155,-0.2155,-0.2155,-0.2155,-0.2155,-0.2155,-0.2155,-0.2155,-0.2155,-0.2155,-0.2155,-0.2155,-0.2155,-0.2155,-0.2155,-0.2155,-0.2155,-0.2155,-0.2155,-0.2155,-0.2155,-0.2155,-0.2155,-0.2155,-0.2155,-0.2155,-0.2158,-0.2168,-0.2185,-0.2225,-0.2255,-0.2819,-0.2801,-0.2772,-0.2742,-0.2716,-0.2714,-0.2705,-0.2694,-0.2692,-0.2692,-0.2692,-0.2692,-0.2692,-0.2692,-0.2692,-0.2691,-0.2692,-0.2692,-0.2691,-0.2688,-0.2675,-0.2669,-0.2668,-0.2664,-0.2647,-0.2612,-0.2615,-0.2609,-0.2596,-0.2572,-0.2556,-0.2548,-0.2508,-0.2495,-0.2484,-0.2472,-0.2459,-0.2447,-0.2444,-0.2444,-0.2444,-0.2444,-0.245,-0.247,-0.248,-0.2476,-0.2446,-0.2459,-0.2473,-0.2316,-0.2126,-0.1935,-0.1919,-0.2228,-0.2388,-0.2372,-0.2364,-0.2349,-0.2343,-0.2303,-0.2267,-0.2266,-0.2255,-0.2256,-0.2256,-0.2255,-0.2253,-0.2256,-0.2241,-0.2221,-0.2221,-0.2222,-0.2225,-0.224,-0.2244,-0.2244,-0.2236,-0.2204,-0.2176,-0.2173,-0.2163,-0.2158,-0.2155,-0.2155,-0.2155,-0.2155,-0.2155,-0.2155,-0.2155,-0.2155,-0.2155,-0.2155,-0.2155,-0.2155,-0.2155,-0.2155,-0.2155,-0.2155,-0.2155,-0.2155,-0.2155,-0.2155,-0.2155,-0.2155,-0.2155,-0.2155,-0.2155,-0.2155,-0.2158,-0.2159,-0.2166,-0.2181,-0.2206,-0.2241,-0.2266,-0.2833,-0.2826,-0.2796,-0.2769,-0.2746,-0.2739,-0.2727,-0.271,-0.2701,-0.2707,-0.2705,-0.2702,-0.2707,-0.2707,-0.271,-0.2707,-0.2706,-0.2692,-0.2694,-0.2702,-0.2692,-0.2688,-0.2687,-0.2683,-0.2668,-0.2619,-0.2634,-0.2642,-0.2643,-0.2635,-0.2631,-0.2639,-0.2598,-0.2564,-0.2557,-0.2536,-0.2504,-0.248,-0.2476,-0.2476,-0.2476,-0.2476,-0.248,-0.2495,-0.2526,-0.2527,-0.251,-0.2515,-0.2373,-0.2218,-0.1901,-0.2048,-0.2353,-0.2503,-0.2499,-0.244,-0.2435,-0.2417,-0.2382,-0.2338,-0.2305,-0.2298,-0.2277,-0.2274,-0.2286,-0.2281,-0.2281,-0.2279,-0.2271,-0.2252,-0.2252,-0.2252,-0.2264,-0.2278,-0.2267,-0.2271,-0.2275,-0.2243,-0.2219,-0.2193,-0.218,-0.217,-0.2159,-0.2155,-0.2155,-0.2155,-0.2155,-0.2155,-0.2155,-0.2155,-0.2155,-0.2155,-0.2155,-0.2155,-0.2155,-0.2184,-0.218,-0.2163,-0.2162,-0.2163,-0.2163,-0.2168,-0.2169,-0.2157,-0.2155,-0.2158,-0.2165,-0.217,-0.2172,-0.2169,-0.2185,-0.2211,-0.2236,-0.226,-0.2278,-0.2852,-0.2826,-0.2796,-0.278,-0.2773,-0.275,-0.2751,-0.2762,-0.2739,-0.2746,-0.2761,-0.2742,-0.2744,-0.2759,-0.2767,-0.2767,-0.2751,-0.2725,-0.271,-0.2718,-0.2707,-0.2697,-0.2692,-0.2691,-0.2683,-0.2688,-0.2692,-0.2698,-0.2694,-0.2703,-0.269,-0.2679,-0.2646,-0.2619,-0.2592,-0.2567,-0.2538,-0.2517,-0.2512,-0.2512,-0.2515,-0.2517,-0.2525,-0.2547,-0.259,-0.2601,-0.2587,-0.2586,-0.2274,-0.164,-0.2132,-0.2459,-0.2608,-0.2579,-0.2542,-0.2508,-0.2495,-0.2473,-0.2429,-0.2387,-0.2353,-0.2333,-0.2319,-0.2316,-0.2323,-0.232,-0.2319,-0.2315,-0.2304,-0.2285,-0.2283,-0.2282,-0.2285,-0.2294,-0.2304,-0.2307,-0.2294,-0.2278,-0.2252,-0.2219,-0.2202,-0.2187,-0.218,-0.217,-0.2166,-0.2163,-0.2158,-0.2157,-0.2155,-0.2155,-0.2155,-0.2155,-0.2155,-0.2155,-0.2155,-0.2196,-0.2215,-0.2185,-0.2178,-0.2183,-0.2184,-0.2187,-0.2184,-0.218,-0.2174,-0.2176,-0.2183,-0.2191,-0.22,-0.2207,-0.2226,-0.2245,-0.2263,-0.2281,-0.2298,-0.2866,-0.2851,-0.2836,-0.2821,-0.2806,-0.2792,-0.2784,-0.2781,-0.2767,-0.2769,-0.2776,-0.2769,-0.2769,-0.2781,-0.2784,-0.2784,-0.2774,-0.2758,-0.274,-0.2736,-0.2722,-0.2706,-0.2695,-0.2692,-0.2692,-0.2699,-0.272,-0.2731,-0.2716,-0.271,-0.2718,-0.2707,-0.2672,-0.2639,-0.2622,-0.2597,-0.2575,-0.256,-0.2559,-0.2566,-0.2579,-0.2581,-0.2592,-0.2611,-0.2645,-0.2668,-0.2679,-0.2691,-0.2533,-0.2207,-0.2549,-0.271,-0.2691,-0.2665,-0.2623,-0.2572,-0.2547,-0.2529,-0.2491,-0.2454,-0.2413,-0.2384,-0.2368,-0.2357,-0.2357,-0.2356,-0.2357,-0.2353,-0.2348,-0.2328,-0.2315,-0.2313,-0.2312,-0.2315,-0.2326,-0.2324,-0.2316,-0.2312,-0.2285,-0.2249,-0.2234,-0.2222,-0.221,-0.2199,-0.2184,-0.2173,-0.2165,-0.2162,-0.2162,-0.2163,-0.2168,-0.2168,-0.217,-0.2177,-0.2181,-0.2214,-0.2238,-0.2213,-0.2203,-0.2207,-0.2208,-0.2215,-0.2217,-0.2214,-0.2208,-0.221,-0.2211,-0.2223,-0.2234,-0.2245,-0.2259,-0.2273,-0.2286,-0.2301,-0.2316,-0.2874,-0.2874,-0.2867,-0.2855,-0.2838,-0.283,-0.2818,-0.2803,-0.2795,-0.2797,-0.28,-0.2796,-0.2796,-0.28,-0.2797,-0.2796,-0.2799,-0.2792,-0.2772,-0.2761,-0.2742,-0.2722,-0.2707,-0.2694,-0.2692,-0.2697,-0.2712,-0.2732,-0.2732,-0.2728,-0.2731,-0.2728,-0.269,-0.2661,-0.2653,-0.2626,-0.2613,-0.2602,-0.2602,-0.2616,-0.2632,-0.2643,-0.2647,-0.2653,-0.2682,-0.2712,-0.2727,-0.2752,-0.2766,-0.2773,-0.2774,-0.2769,-0.2751,-0.2747,-0.271,-0.2639,-0.2598,-0.2577,-0.2547,-0.2519,-0.247,-0.2432,-0.241,-0.2398,-0.2387,-0.2387,-0.2387,-0.2387,-0.2386,-0.2378,-0.2358,-0.2346,-0.2342,-0.2339,-0.2337,-0.2333,-0.233,-0.2326,-0.2319,-0.2293,-0.2274,-0.2255,-0.2238,-0.2226,-0.2211,-0.2208,-0.22,-0.2196,-0.2195,-0.2191,-0.2192,-0.2189,-0.2192,-0.2202,-0.2215,-0.2236,-0.2248,-0.2234,-0.2236,-0.2244,-0.2245,-0.2247,-0.2247,-0.2249,-0.2263,-0.2264,-0.2262,-0.2258,-0.2267,-0.2277,-0.2289,-0.2298,-0.2309,-0.2315,-0.2324,-0.2874,-0.2871,-0.2845,-0.2846,-0.286,-0.2838,-0.2842,-0.2855,-0.283,-0.284,-0.2849,-0.2837,-0.2837,-0.2848,-0.2831,-0.284,-0.284,-0.2815,-0.2799,-0.2799,-0.2763,-0.2739,-0.2727,-0.2703,-0.2699,-0.2702,-0.2705,-0.2714,-0.2732,-0.2752,-0.2763,-0.2758,-0.2731,-0.2713,-0.2679,-0.2654,-0.2628,-0.2608,-0.2605,-0.2611,-0.262,-0.2642,-0.2652,-0.2667,-0.2701,-0.2735,-0.2748,-0.2774,-0.2791,-0.2788,-0.2787,-0.2782,-0.2778,-0.2778,-0.2761,-0.2717,-0.2669,-0.2615,-0.2578,-0.2556,-0.2527,-0.2487,-0.2461,-0.2444,-0.2428,-0.2423,-0.2423,-0.2418,-0.2418,-0.2413,-0.2399,-0.2386,-0.2376,-0.2367,-0.2357,-0.2346,-0.2341,-0.2345,-0.2337,-0.233,-0.2309,-0.2282,-0.226,-0.2249,-0.224,-0.2238,-0.2237,-0.2232,-0.2225,-0.2218,-0.2215,-0.2214,-0.2218,-0.2228,-0.224,-0.2262,-0.2268,-0.2258,-0.2268,-0.2279,-0.2278,-0.2278,-0.2282,-0.2288,-0.2304,-0.2311,-0.2301,-0.2298,-0.2301,-0.2305,-0.2312,-0.2319,-0.2328,-0.2334,-0.2339,-0.2833,-0.2849,-0.2853,-0.2841,-0.2825,-0.2826,-0.2836,-0.2844,-0.2836,-0.2836,-0.2849,-0.2855,-0.2863,-0.2868,-0.2859,-0.2861,-0.2866,-0.2844,-0.283,-0.2822,-0.2785,-0.2755,-0.2737,-0.2725,-0.2718,-0.2722,-0.2733,-0.274,-0.2746,-0.2733,-0.2732,-0.2733,-0.2721,-0.2705,-0.2699,-0.2682,-0.2667,-0.2662,-0.2669,-0.2679,-0.2682,-0.269,-0.2698,-0.2698,-0.274,-0.2758,-0.2772,-0.2811,-0.2822,-0.2819,-0.2822,-0.2825,-0.2814,-0.2807,-0.2795,-0.2765,-0.2742,-0.2697,-0.2646,-0.262,-0.2585,-0.2547,-0.2515,-0.248,-0.2461,-0.2463,-0.2465,-0.245,-0.245,-0.2444,-0.2431,-0.2412,-0.2408,-0.2398,-0.2388,-0.2383,-0.2373,-0.2361,-0.2358,-0.2352,-0.2343,-0.2316,-0.2292,-0.2279,-0.2271,-0.2268,-0.2259,-0.2248,-0.2243,-0.2236,-0.2236,-0.2238,-0.2245,-0.2253,-0.2267,-0.2283,-0.2296,-0.2294,-0.2304,-0.2311,-0.2308,-0.2308,-0.2318,-0.2326,-0.2338,-0.2341,-0.2337,-0.2331,-0.2328,-0.233,-0.2333,-0.2341,-0.2349,-0.2357,-0.2371,-0.2792,-0.2808,-0.2838,-0.2825,-0.2787,-0.2807,-0.2822,-0.2829,-0.2819,-0.2826,-0.2842,-0.2863,-0.2874,-0.2874,-0.2872,-0.2872,-0.2874,-0.2874,-0.2861,-0.2836,-0.281,-0.2784,-0.2766,-0.2754,-0.274,-0.2748,-0.2751,-0.2759,-0.2748,-0.2733,-0.2724,-0.2705,-0.2727,-0.2721,-0.2716,-0.2709,-0.2701,-0.2702,-0.2718,-0.2728,-0.2731,-0.2732,-0.2735,-0.2744,-0.2765,-0.2784,-0.2792,-0.284,-0.2856,-0.2837,-0.2853,-0.2856,-0.2842,-0.2838,-0.2825,-0.2801,-0.2785,-0.2759,-0.2712,-0.2677,-0.265,-0.2611,-0.2572,-0.2532,-0.2514,-0.2521,-0.2521,-0.2496,-0.2482,-0.2473,-0.2459,-0.245,-0.2442,-0.2439,-0.2431,-0.2428,-0.2421,-0.2402,-0.2388,-0.2383,-0.2372,-0.2354,-0.2331,-0.2313,-0.2304,-0.2298,-0.2285,-0.2268,-0.2264,-0.2263,-0.2268,-0.2275,-0.2279,-0.2288,-0.2296,-0.2308,-0.2319,-0.2326,-0.2335,-0.2342,-0.2338,-0.2349,-0.2363,-0.2371,-0.2375,-0.2379,-0.2379,-0.2367,-0.2356,-0.2367,-0.2373,-0.2365,-0.2369,-0.238,-0.2399,-0.2767,-0.2747,-0.2778,-0.2788,-0.2782,-0.2785,-0.2803,-0.2822,-0.2799,-0.2819,-0.2859,-0.287,-0.2867,-0.2874,-0.2874,-0.2874,-0.2874,-0.2874,-0.287,-0.2859,-0.2841,-0.2819,-0.2799,-0.2774,-0.2758,-0.2773,-0.2778,-0.2777,-0.2776,-0.2782,-0.2759,-0.2742,-0.2754,-0.2769,-0.2765,-0.2743,-0.274,-0.2739,-0.2746,-0.2746,-0.2746,-0.2744,-0.2742,-0.2747,-0.2766,-0.2784,-0.2787,-0.2842,-0.286,-0.2833,-0.2857,-0.2874,-0.2864,-0.2863,-0.2848,-0.2833,-0.2826,-0.2796,-0.2754,-0.2724,-0.2697,-0.2654,-0.2613,-0.2583,-0.2563,-0.2559,-0.2555,-0.2542,-0.2521,-0.2525,-0.2518,-0.2508,-0.2488,-0.2484,-0.2474,-0.2457,-0.2447,-0.2431,-0.2418,-0.2414,-0.2401,-0.2382,-0.2372,-0.2356,-0.2327,-0.2319,-0.2316,-0.23,-0.2305,-0.2307,-0.2312,-0.2318,-0.232,-0.2324,-0.2327,-0.2333,-0.2331,-0.2341,-0.2353,-0.2363,-0.2367,-0.2383,-0.2397,-0.2405,-0.2408,-0.2414,-0.2423,-0.2417,-0.2416,-0.2417,-0.2414,-0.2399,-0.2402,-0.2414,-0.2435,-0.2721,-0.2713,-0.2743,-0.2755,-0.2757,-0.2776,-0.2789,-0.2797,-0.2789,-0.2806,-0.2845,-0.2829,-0.284,-0.2866,-0.2874,-0.2874,-0.2874,-0.2874,-0.2874,-0.2864,-0.2846,-0.2831,-0.2815,-0.281,-0.28,-0.281,-0.2812,-0.2811,-0.2811,-0.2825,-0.2818,-0.2804,-0.2792,-0.2782,-0.2776,-0.2776,-0.2777,-0.2782,-0.2777,-0.2773,-0.2788,-0.2773,-0.2766,-0.2767,-0.2795,-0.2799,-0.2796,-0.2844,-0.2846,-0.2845,-0.286,-0.287,-0.2874,-0.2874,-0.2867,-0.2856,-0.2853,-0.283,-0.2791,-0.2757,-0.271,-0.2662,-0.2634,-0.2617,-0.2596,-0.2581,-0.2574,-0.2562,-0.2552,-0.2556,-0.2571,-0.2551,-0.253,-0.2533,-0.2521,-0.2497,-0.248,-0.2467,-0.2454,-0.245,-0.2429,-0.2408,-0.2402,-0.2398,-0.2367,-0.2339,-0.2337,-0.2335,-0.2341,-0.2343,-0.2348,-0.2345,-0.2345,-0.2354,-0.2357,-0.235,-0.2341,-0.2357,-0.2373,-0.2384,-0.2395,-0.2403,-0.2417,-0.2428,-0.244,-0.2447,-0.2457,-0.247,-0.2466,-0.2447,-0.2436,-0.2428,-0.2436,-0.245,-0.2466,-0.2698,-0.2707,-0.2729,-0.2732,-0.2729,-0.2766,-0.2778,-0.277,-0.2769,-0.2787,-0.2815,-0.281,-0.2831,-0.2866,-0.2874,-0.2874,-0.2874,-0.2874,-0.2874,-0.2867,-0.2855,-0.2842,-0.2838,-0.2833,-0.2827,-0.2842,-0.2846,-0.2845,-0.2844,-0.2864,-0.2856,-0.2838,-0.2822,-0.2816,-0.2812,-0.2803,-0.2808,-0.2816,-0.2814,-0.2804,-0.2822,-0.2808,-0.2797,-0.2797,-0.2816,-0.2818,-0.2816,-0.2845,-0.2855,-0.2848,-0.2855,-0.2871,-0.2874,-0.2874,-0.2874,-0.2874,-0.2871,-0.286,-0.2823,-0.2772,-0.2721,-0.2687,-0.2667,-0.2641,-0.2616,-0.2609,-0.2607,-0.2594,-0.2583,-0.2585,-0.2609,-0.2587,-0.2579,-0.2582,-0.257,-0.2549,-0.2533,-0.2518,-0.25,-0.2487,-0.2466,-0.245,-0.2429,-0.2424,-0.2405,-0.238,-0.2379,-0.2376,-0.2376,-0.2378,-0.2375,-0.2369,-0.2361,-0.2373,-0.2384,-0.2372,-0.2365,-0.2391,-0.2405,-0.2413,-0.2423,-0.2432,-0.2447,-0.2465,-0.2476,-0.2481,-0.2487,-0.2493,-0.2481,-0.2463,-0.2459,-0.2462,-0.247,-0.2482,-0.2489,-0.2709,-0.2736,-0.2739,-0.2722,-0.2709,-0.2759,-0.277,-0.2755,-0.2748,-0.2762,-0.2795,-0.2836,-0.2863,-0.2874,-0.2874,-0.2874,-0.2874,-0.2874,-0.2874,-0.2871,-0.2868,-0.2868,-0.286,-0.2851,-0.2846,-0.286,-0.2857,-0.2856,-0.2868,-0.2871,-0.287,-0.287,-0.2859,-0.2859,-0.2866,-0.2841,-0.283,-0.2829,-0.2829,-0.283,-0.2831,-0.283,-0.2829,-0.283,-0.2833,-0.2833,-0.284,-0.2855,-0.286,-0.2848,-0.286,-0.2872,-0.2874,-0.2874,-0.2874,-0.2874,-0.2874,-0.286,-0.283,-0.2772,-0.2744,-0.2731,-0.271,-0.2691,-0.2682,-0.2669,-0.2649,-0.2639,-0.2622,-0.2622,-0.2624,-0.2623,-0.2623,-0.2619,-0.2607,-0.2592,-0.2574,-0.2553,-0.2532,-0.2515,-0.251,-0.2499,-0.247,-0.2448,-0.2436,-0.2424,-0.2423,-0.2418,-0.2412,-0.2405,-0.2398,-0.2394,-0.2384,-0.2399,-0.2409,-0.2391,-0.239,-0.2417,-0.2435,-0.2439,-0.2455,-0.2472,-0.2487,-0.2503,-0.2502,-0.2497,-0.2504,-0.2512,-0.2504,-0.25,-0.2499,-0.2502,-0.251,-0.2511,-0.2512,-0.271,-0.274,-0.2759,-0.275,-0.2733,-0.2788,-0.2807,-0.2796,-0.2778,-0.2774,-0.2789,-0.2827,-0.2857,-0.2868,-0.2874,-0.2874,-0.2874,-0.2874,-0.2874,-0.2874,-0.2874,-0.2874,-0.2868,-0.2864,-0.2863,-0.2868,-0.2861,-0.286,-0.2872,-0.2874,-0.2874,-0.2874,-0.2874,-0.2874,-0.2872,-0.2861,-0.2859,-0.2859,-0.2859,-0.2859,-0.2857,-0.2857,-0.2857,-0.2857,-0.2856,-0.2856,-0.2856,-0.2871,-0.2866,-0.2856,-0.2872,-0.2874,-0.2874,-0.2874,-0.2874,-0.2874,-0.2874,-0.2871,-0.2852,-0.2821,-0.2791,-0.2773,-0.2755,-0.2739,-0.2724,-0.2736,-0.2716,-0.2687,-0.2668,-0.2668,-0.2669,-0.2649,-0.2642,-0.2641,-0.263,-0.2615,-0.2597,-0.2574,-0.2552,-0.254,-0.2533,-0.2522,-0.25,-0.2481,-0.2467,-0.2457,-0.2453,-0.2438,-0.2428,-0.2421,-0.2416,-0.2416,-0.2414,-0.2429,-0.2433,-0.242,-0.2424,-0.2448,-0.2458,-0.2459,-0.2478,-0.2499,-0.2506,-0.2508,-0.2511,-0.2514,-0.2526,-0.2536,-0.2542,-0.2541,-0.2536,-0.2525,-0.2521,-0.2522,-0.2523,-0.271,-0.2739,-0.2759,-0.2769,-0.2777,-0.2823,-0.284,-0.2827,-0.2807,-0.2799,-0.2806,-0.2831,-0.2855,-0.2871,-0.2874,-0.2874,-0.2874,-0.2874,-0.2874,-0.2874,-0.2874,-0.2874,-0.2874,-0.2874,-0.2871,-0.2874,-0.2874,-0.2874,-0.2874,-0.2874,-0.2874,-0.2874,-0.2874,-0.2874,-0.2874,-0.2872,-0.2872,-0.2871,-0.287,-0.2871,-0.2871,-0.2872,-0.2872,-0.2872,-0.2872,-0.2872,-0.2874,-0.2874,-0.2874,-0.2874,-0.2874,-0.2874,-0.2874,-0.2874,-0.2874,-0.2874,-0.2874,-0.2874,-0.2866,-0.2857,-0.2831,-0.2819,-0.28,-0.2776,-0.2759,-0.2766,-0.2757,-0.2735,-0.2717,-0.2709,-0.2703,-0.268,-0.2675,-0.2673,-0.2668,-0.2654,-0.2628,-0.2605,-0.2592,-0.2578,-0.2568,-0.2552,-0.253,-0.2517,-0.2502,-0.2492,-0.2481,-0.2465,-0.2451,-0.2448,-0.2447,-0.2447,-0.2447,-0.2459,-0.2462,-0.2454,-0.2462,-0.2481,-0.2482,-0.2481,-0.2489,-0.2507,-0.2511,-0.2518,-0.2527,-0.2538,-0.2551,-0.256,-0.257,-0.257,-0.2564,-0.2551,-0.2534,-0.2534,-0.254,-0.271,-0.2736,-0.2737,-0.2772,-0.2822,-0.2846,-0.2848,-0.2827,-0.2829,-0.2827,-0.2826,-0.2853,-0.2871,-0.2872,-0.2874,-0.2874,-0.2874,-0.2874,-0.2874,-0.2874,-0.2874,-0.2874,-0.2874,-0.2874,-0.2874,-0.2874,-0.2874,-0.2874,-0.2874,-0.2874,-0.2874,-0.2874,-0.2874,-0.2874,-0.2874,-0.2874,-0.2874,-0.2874,-0.2874,-0.2874,-0.2874,-0.2874,-0.2874,-0.2874,-0.2874,-0.2874,-0.2874,-0.2874,-0.2874,-0.2874,-0.2874,-0.2874,-0.2874,-0.2874,-0.2874,-0.2874,-0.2874,-0.2874,-0.2874,-0.2868,-0.2868,-0.2852,-0.2821,-0.2796,-0.2792,-0.2799,-0.2792,-0.2778,-0.2761,-0.2748,-0.2736,-0.2729,-0.2724,-0.2721,-0.272,-0.2698,-0.2668,-0.2649,-0.2638,-0.2627,-0.262,-0.2602,-0.2566,-0.2547,-0.2536,-0.2532,-0.2522,-0.2512,-0.2499,-0.2492,-0.2491,-0.2491,-0.2491,-0.2491,-0.2491,-0.2491,-0.2496,-0.2515,-0.2506,-0.2503,-0.251,-0.2517,-0.2525,-0.2536,-0.2549,-0.2562,-0.2572,-0.2586,-0.2601,-0.26,-0.26,-0.2585,-0.2571,-0.2563,-0.2566,-0.271,-0.2737,-0.2737,-0.2748,-0.2767,-0.2797,-0.2804,-0.2801,-0.2838,-0.284,-0.2799,-0.2852,-0.2874,-0.2874,-0.2874,-0.2874,-0.2874,-0.2874,-0.2874,-0.2874,-0.2874,-0.2874,-0.2874,-0.2874,-0.2874,-0.2874,-0.2874,-0.2874,-0.2874,-0.2874,-0.2874,-0.2874,-0.2874,-0.2874,-0.2874,-0.2874,-0.2874,-0.2874,-0.2874,-0.2874,-0.2874,-0.2874,-0.2874,-0.2874,-0.2874,-0.2874,-0.2874,-0.2874,-0.2874,-0.2874,-0.2874,-0.2874,-0.2874,-0.2874,-0.2874,-0.2874,-0.2874,-0.2874,-0.2874,-0.2874,-0.2874,-0.2874,-0.2852,-0.2853,-0.2848,-0.284,-0.2833,-0.2816,-0.28,-0.2785,-0.2774,-0.2766,-0.2759,-0.2755,-0.275,-0.2732,-0.2702,-0.2677,-0.2667,-0.2652,-0.2646,-0.2627,-0.2593,-0.2579,-0.257,-0.2568,-0.2563,-0.2552,-0.254,-0.253,-0.2523,-0.2522,-0.2533,-0.2532,-0.2536,-0.2537,-0.254,-0.2544,-0.2536,-0.2527,-0.2527,-0.2534,-0.2542,-0.2557,-0.2577,-0.2587,-0.2594,-0.2611,-0.2632,-0.2643,-0.2643,-0.2626,-0.2609,-0.26,-0.2596,-0.2703,-0.2718,-0.272,-0.2727,-0.2742,-0.277,-0.2777,-0.2781,-0.2842,-0.2845,-0.281,-0.2852,-0.2874,-0.2874,-0.2874,-0.2874,-0.2874,-0.2874,-0.2874,-0.2874,-0.2874,-0.2874,-0.2874,-0.2874,-0.2874,-0.2874,-0.2874,-0.2874,-0.2874,-0.2874,-0.2874,-0.2874,-0.2874,-0.2874,-0.2874,-0.2874,-0.2874,-0.2874,-0.2874,-0.2874,-0.2874,-0.2874,-0.2874,-0.2874,-0.2874,-0.2874,-0.2874,-0.2874,-0.2874,-0.2874,-0.2874,-0.2874,-0.2874,-0.2874,-0.2885,-0.2885,-0.2879,-0.2876,-0.2874,-0.2874,-0.2874,-0.2874,-0.2874,-0.2872,-0.2871,-0.2864,-0.2857,-0.2846,-0.2833,-0.2821,-0.281,-0.28,-0.2791,-0.2782,-0.2774,-0.2765,-0.2735,-0.2705,-0.2686,-0.2668,-0.2654,-0.2639,-0.2623,-0.2612,-0.26,-0.2592,-0.2586,-0.2581,-0.2567,-0.2552,-0.2544,-0.254,-0.2559,-0.2572,-0.2577,-0.2577,-0.2575,-0.2574,-0.257,-0.2562,-0.2553,-0.256,-0.2578,-0.2593,-0.2609,-0.262,-0.2631,-0.2647,-0.2667,-0.2673,-0.2675,-0.2661,-0.2645,-0.2631,-0.2632,-0.2692,-0.2694,-0.2692,-0.2709,-0.2736,-0.2765,-0.2762,-0.2747,-0.2829,-0.2852,-0.2831,-0.2855,-0.287,-0.2872,-0.2874,-0.2874,-0.2874,-0.2874,-0.2874,-0.2874,-0.2874,-0.2874,-0.2874,-0.2874,-0.2874,-0.2874,-0.2874,-0.2874,-0.2874,-0.2874,-0.2874,-0.2874,-0.2874,-0.2874,-0.2874,-0.2874,-0.2874,-0.2874,-0.2874,-0.2874,-0.2874,-0.2874,-0.2874,-0.2874,-0.2874,-0.2874,-0.2874,-0.2874,-0.2874,-0.2874,-0.2874,-0.2874,-0.2881,-0.2882,-0.2896,-0.2902,-0.2896,-0.2887,-0.2882,-0.2879,-0.2875,-0.2874,-0.2874,-0.2874,-0.2874,-0.2874,-0.2867,-0.2864,-0.2851,-0.2844,-0.2834,-0.2831,-0.2826,-0.2816,-0.2806,-0.2793,-0.2772,-0.2746,-0.2728,-0.271,-0.2695,-0.2679,-0.2667,-0.2656,-0.2639,-0.2622,-0.2608,-0.2607,-0.26,-0.2583,-0.2572,-0.2567,-0.2586,-0.2605,-0.2605,-0.2605,-0.2605,-0.2604,-0.26,-0.2592,-0.2579,-0.2593,-0.2615,-0.2631,-0.2646,-0.2661,-0.2675,-0.2682,-0.2683,-0.2684,-0.2687,-0.269,-0.2679,-0.2662,-0.2658,-0.2692,-0.2692,-0.2692,-0.2698,-0.2706,-0.2736,-0.2732,-0.2712,-0.28,-0.2822,-0.2804,-0.2827,-0.2855,-0.2872,-0.2874,-0.2874,-0.2874,-0.2874,-0.2874,-0.2874,-0.2874,-0.2874,-0.2874,-0.2874,-0.2874,-0.2874,-0.2874,-0.2874,-0.2874,-0.2874,-0.2874,-0.2874,-0.2874,-0.2874,-0.2874,-0.2874,-0.2874,-0.2874,-0.2874,-0.2874,-0.2874,-0.2874,-0.2874,-0.2874,-0.2874,-0.2874,-0.2874,-0.2874,-0.2874,-0.2874,-0.2874,-0.2886,-0.2905,-0.2905,-0.2921,-0.2938,-0.292,-0.2905,-0.2896,-0.2886,-0.2875,-0.2874,-0.2874,-0.2874,-0.2874,-0.2874,-0.2874,-0.2871,-0.2868,-0.2863,-0.286,-0.2859,-0.2857,-0.2846,-0.2837,-0.2821,-0.2806,-0.2788,-0.277,-0.2754,-0.2737,-0.2725,-0.2712,-0.2697,-0.2679,-0.2661,-0.2643,-0.2637,-0.2639,-0.2628,-0.2613,-0.2609,-0.2622,-0.2634,-0.2635,-0.2635,-0.2637,-0.263,-0.2623,-0.2615,-0.2607,-0.2624,-0.2645,-0.2667,-0.2684,-0.2695,-0.2699,-0.2692,-0.2694,-0.2703,-0.2699,-0.2702,-0.2699,-0.2686,-0.2683,-0.2672,-0.2673,-0.2687,-0.2692,-0.2695,-0.2712,-0.2707,-0.2705,-0.2747,-0.2774,-0.2791,-0.2827,-0.2859,-0.2874,-0.2874,-0.2874,-0.2874,-0.2874,-0.2874,-0.2874,-0.2874,-0.2874,-0.2874,-0.2874,-0.2874,-0.2874,-0.2874,-0.2874,-0.2874,-0.2874,-0.2874,-0.2874,-0.2874,-0.2874,-0.2874,-0.2874,-0.2874,-0.2874,-0.2874,-0.2874,-0.2874,-0.2874,-0.2874,-0.2874,-0.2874,-0.2874,-0.2874,-0.2874,-0.2874,-0.2874,-0.2874,-0.289,-0.2906,-0.2913,-0.2931,-0.2942,-0.2934,-0.2916,-0.2909,-0.2894,-0.2876,-0.2874,-0.2874,-0.2874,-0.2874,-0.2874,-0.2874,-0.2872,-0.2872,-0.2868,-0.2868,-0.2868,-0.2868,-0.2861,-0.2855,-0.2844,-0.2827,-0.281,-0.2791,-0.2772,-0.2767,-0.2774,-0.2761,-0.2747,-0.2732,-0.2727,-0.2706,-0.2686,-0.2684,-0.2676,-0.2661,-0.2653,-0.2667,-0.2668,-0.2667,-0.2667,-0.2667,-0.2658,-0.2646,-0.2652,-0.2653,-0.2661,-0.2675,-0.2698,-0.2716,-0.2724,-0.2724,-0.2721,-0.2731,-0.2746,-0.2731,-0.2716,-0.2712,-0.2712,-0.2713,-0.2643,-0.265,-0.268,-0.2692,-0.2692,-0.2692,-0.2692,-0.2694,-0.2699,-0.2733,-0.2785,-0.2841,-0.2867,-0.2874,-0.2874,-0.2874,-0.2874,-0.2874,-0.2874,-0.2874,-0.2874,-0.2874,-0.2874,-0.2874,-0.2874,-0.2874,-0.2874,-0.2874,-0.2874,-0.2874,-0.2874,-0.2874,-0.2874,-0.2874,-0.2874,-0.2874,-0.2874,-0.2874,-0.2874,-0.2874,-0.2874,-0.2874,-0.2874,-0.2874,-0.2874,-0.2874,-0.2874,-0.2874,-0.2874,-0.2874,-0.2876,-0.2898,-0.2917,-0.293,-0.2954,-0.2965,-0.2949,-0.2934,-0.2919,-0.2894,-0.2881,-0.2874,-0.2874,-0.2874,-0.2874,-0.2874,-0.2874,-0.2874,-0.2874,-0.2874,-0.2874,-0.2874,-0.2874,-0.2874,-0.2868,-0.2864,-0.2848,-0.2834,-0.2816,-0.2796,-0.2801,-0.2811,-0.2803,-0.2791,-0.2781,-0.2777,-0.2769,-0.2754,-0.2739,-0.2727,-0.2713,-0.2707,-0.2714,-0.2712,-0.2697,-0.2691,-0.2688,-0.2682,-0.2672,-0.2687,-0.2697,-0.2698,-0.2709,-0.2733,-0.2748,-0.2754,-0.2761,-0.2763,-0.2774,-0.278,-0.275,-0.2728,-0.2739,-0.274,-0.2743,-0.2624,-0.2649,-0.268,-0.2692,-0.2691,-0.2692,-0.2692,-0.2697,-0.2718,-0.2751,-0.2782,-0.2818,-0.2848,-0.2874,-0.2874,-0.2874,-0.2874,-0.2874,-0.2874,-0.2874,-0.2874,-0.2874,-0.2874,-0.2874,-0.2874,-0.2874,-0.2874,-0.2874,-0.2874,-0.2874,-0.2874,-0.2874,-0.2874,-0.2874,-0.2874,-0.2874,-0.2874,-0.2874,-0.2874,-0.2874,-0.2874,-0.2874,-0.2874,-0.2874,-0.2874,-0.2874,-0.2874,-0.2874,-0.2874,-0.2874,-0.2876,-0.2901,-0.2921,-0.2942,-0.2965,-0.2976,-0.296,-0.2946,-0.2927,-0.2896,-0.2879,-0.2874,-0.2874,-0.2874,-0.2874,-0.2874,-0.2874,-0.2874,-0.2874,-0.2874,-0.2874,-0.2874,-0.2874,-0.2874,-0.2871,-0.2871,-0.2863,-0.286,-0.2853,-0.284,-0.2833,-0.2833,-0.2825,-0.2811,-0.2795,-0.2792,-0.2788,-0.2776,-0.2773,-0.2767,-0.2761,-0.2758,-0.2757,-0.2729,-0.2703,-0.2706,-0.2703,-0.2698,-0.2699,-0.2714,-0.2725,-0.2728,-0.2743,-0.2766,-0.2774,-0.2778,-0.2787,-0.2803,-0.2796,-0.2793,-0.2758,-0.274,-0.2757,-0.2767,-0.2772]}]]